Time,TemperatureF,DewpointF,PressureIn,WindDirection,WindDirectionDegrees,WindSpeedMPH,WindSpeedGustMPH,Humidity,HourlyPrecipIn,Conditions,Clouds,dailyrainin,SoftwareType,DateUTC
2013-03-06 00:00:00,20.5,15.6,30.16,North,2,0.0,6.0,81,0.00,,OVC030,0.04,VWS V14.01,2013-03-06 06:00:00,
2013-03-06 00:01:00,20.5,15.6,30.16,North,2,0.0,4.0,81,0.00,,OVC030,0.00,VWS V14.01,2013-03-06 06:01:00,
2013-03-06 00:02:00,20.5,15.6,30.16,North,3,2.0,4.0,81,0.00,,OVC030,0.00,VWS V14.01,2013-03-06 06:02:00,
2013-03-06 00:03:00,20.5,15.6,30.16,North,2,4.0,4.0,81,0.00,,OVC030,0.00,VWS V14.01,2013-03-06 06:03:00,
2013-03-06 00:04:00,20.5,15.6,30.16,North,2,0.0,4.0,81,0.00,,OVC030,0.00,VWS V14.01,2013-03-06 06:04:00,
2013-03-06 00:05:00,20.6,15.7,30.16,North,2,0.0,4.0,81,0.00,,OVC030,0.00,VWS V14.01,2013-03-06 06:05:00,
2013-03-06 00:06:00,20.6,15.7,30.16,North,2,0.0,4.0,81,0.00,,OVC030,0.00,VWS V14.01,2013-03-06 06:06:00,
2013-03-06 00:07:00,20.6,15.7,30.16,North,2,5.0,5.0,81,0.00,,OVC030,0.00,VWS V14.01,2013-03-06 06:07:00,
2013-03-06 00:08:00,20.6,15.7,30.16,North,2,0.0,5.0,81,0.00,,OVC030,0.00,VWS V14.01,2013-03-06 06:08:00,
2013-03-06 00:09:00,20.8,15.9,30.16,North,2,0.0,5.0,81,0.00,,OVC030,0.00,VWS V14.01,2013-03-06 06:09:00,
2013-03-06 00:10:00,20.8,15.9,30.16,North,2,1.0,5.0,81,0.00,,OVC030,0.00,VWS V14.01,2013-03-06 06:10:00,
2013-03-06 00:11:00,20.8,15.9,30.16,North,2,2.0,5.0,81,0.00,,OVC030,0.00,VWS V14.01,2013-03-06 06:11:00,
2013-03-06 00:12:00,21.0,16.1,30.16,North,2,1.0,5.0,81,0.00,,OVC030,0.00,VWS V14.01,2013-03-06 06:12:00,
2013-03-06 00:13:00,21.0,16.1,30.16,North,2,3.0,5.0,81,0.00,,OVC028,0.00,VWS V14.01,2013-03-06 06:13:00,
2013-03-06 00:14:00,21.0,16.1,30.16,North,3,1.0,6.0,81,0.00,,OVC028,0.00,VWS V14.01,2013-03-06 06:14:00,
2013-03-06 00:15:00,21.0,16.1,30.17,North,3,3.0,6.0,81,0.00,,OVC028,0.00,VWS V14.01,2013-03-06 06:15:00,
2013-03-06 00:16:00,21.1,16.2,30.17,North,3,0.0,6.0,81,0.00,,OVC028,0.00,VWS V14.01,2013-03-06 06:16:00,
2013-03-06 00:17:00,21.1,16.2,30.17,North,3,5.0,6.0,81,0.00,,OVC028,0.00,VWS V14.01,2013-03-06 06:17:00,
2013-03-06 00:18:00,21.1,16.2,30.17,North,3,0.0,6.0,81,0.00,,OVC028,0.00,VWS V14.01,2013-03-06 06:18:00,
2013-03-06 00:19:00,21.1,16.2,30.17,North,3,1.0,6.0,81,0.00,,OVC028,0.00,VWS V14.01,2013-03-06 06:19:00,
2013-03-06 00:20:00,21.1,16.2,30.17,North,3,1.0,6.0,81,0.00,,OVC028,0.00,VWS V14.01,2013-03-06 06:20:00,
2013-03-06 00:21:00,21.1,16.2,30.17,North,3,0.0,6.0,81,0.00,,OVC028,0.00,VWS V14.01,2013-03-06 06:21:00,
2013-03-06 00:22:00,21.3,16.4,30.17,North,3,0.0,6.0,81,0.00,,OVC028,0.00,VWS V14.01,2013-03-06 06:22:00,
2013-03-06 00:23:00,21.3,16.4,30.17,North,3,0.0,6.0,81,0.00,,OVC028,0.00,VWS V14.01,2013-03-06 06:23:00,
2013-03-06 00:24:00,21.3,16.4,30.17,North,3,3.0,6.0,81,0.00,,OVC028,0.00,VWS V14.01,2013-03-06 06:24:00,
2013-03-06 00:25:00,21.3,16.4,30.17,North,3,0.0,6.0,81,0.00,,OVC028,0.00,VWS V14.01,2013-03-06 06:25:00,
2013-03-06 00:26:00,21.3,16.4,30.17,North,3,0.0,6.0,81,0.00,,OVC028,0.00,VWS V14.01,2013-03-06 06:26:00,
2013-03-06 00:27:00,21.3,16.4,30.17,North,3,3.0,6.0,81,0.00,,OVC028,0.00,VWS V14.01,2013-03-06 06:27:00,
2013-03-06 00:28:00,21.4,16.5,30.17,North,3,0.0,6.0,81,0.00,,OVC028,0.00,VWS V14.01,2013-03-06 06:28:00,
2013-03-06 00:29:00,21.4,16.5,30.17,North,3,0.0,6.0,81,0.00,,OVC028,0.00,VWS V14.01,2013-03-06 06:29:00,
2013-03-06 00:30:00,21.4,16.5,30.18,North,3,0.0,6.0,81,0.00,,OVC028,0.00,VWS V14.01,2013-03-06 06:30:00,
2013-03-06 00:31:00,21.4,16.5,30.18,North,5,6.0,6.0,81,0.00,,OVC028,0.00,VWS V14.01,2013-03-06 06:31:00,
2013-03-06 00:32:00,21.4,16.5,30.18,North,5,0.0,6.0,81,0.00,,OVC028,0.00,VWS V14.01,2013-03-06 06:32:00,
2013-03-06 00:33:00,21.4,16.5,30.18,North,5,0.0,6.0,81,0.00,,OVC028,0.00,VWS V14.01,2013-03-06 06:33:00,
2013-03-06 00:34:00,21.4,16.2,30.18,North,5,0.0,6.0,80,0.00,,OVC028,0.00,VWS V14.01,2013-03-06 06:34:00,
2013-03-06 00:35:00,21.4,16.2,30.18,North,5,0.0,6.0,80,0.00,,OVC028,0.00,VWS V14.01,2013-03-06 06:35:00,
2013-03-06 00:36:00,21.4,16.2,30.18,North,5,0.0,6.0,80,0.00,,OVC028,0.00,VWS V14.01,2013-03-06 06:36:00,
2013-03-06 00:37:00,21.4,16.2,30.18,North,5,0.0,6.0,80,0.00,,OVC028,0.00,VWS V14.01,2013-03-06 06:37:00,
2013-03-06 00:38:00,21.4,16.5,30.18,North,5,0.0,6.0,81,0.00,,OVC028,0.00,VWS V14.01,2013-03-06 06:38:00,
2013-03-06 00:39:00,21.4,16.5,30.18,North,5,0.0,6.0,81,0.00,,OVC028,0.00,VWS V14.01,2013-03-06 06:39:00,
2013-03-06 00:40:00,21.6,16.7,30.18,North,5,5.0,6.0,81,0.00,,OVC028,0.00,VWS V14.01,2013-03-06 06:40:00,
2013-03-06 00:41:00,21.6,16.7,30.18,North,5,4.0,6.0,81,0.00,,OVC028,0.00,VWS V14.01,2013-03-06 06:41:00,
2013-03-06 00:42:00,21.6,16.7,30.18,North,5,3.0,6.0,81,0.00,,OVC028,0.00,VWS V14.01,2013-03-06 06:42:00,
2013-03-06 00:43:00,21.6,16.7,30.18,North,5,5.0,6.0,81,0.00,,OVC026,0.00,VWS V14.01,2013-03-06 06:43:00,
2013-03-06 00:44:00,21.6,16.7,30.18,North,5,0.0,6.0,81,0.00,,OVC026,0.00,VWS V14.01,2013-03-06 06:44:00,
2013-03-06 00:45:00,21.6,16.7,30.18,North,5,2.0,6.0,81,0.00,,OVC026,0.00,VWS V14.01,2013-03-06 06:45:00,
2013-03-06 00:46:00,21.6,16.4,30.18,North,5,0.0,6.0,80,0.00,,OVC026,0.00,VWS V14.01,2013-03-06 06:46:00,
2013-03-06 00:47:00,21.6,16.4,30.18,North,5,3.0,6.0,80,0.00,,OVC026,0.00,VWS V14.01,2013-03-06 06:47:00,
2013-03-06 00:48:00,21.6,16.4,30.18,North,5,0.0,6.0,80,0.00,,OVC026,0.00,VWS V14.01,2013-03-06 06:48:00,
2013-03-06 00:49:00,21.6,16.4,30.18,North,5,0.0,6.0,80,0.00,,OVC026,0.00,VWS V14.01,2013-03-06 06:49:00,
2013-03-06 00:50:00,21.6,16.4,30.18,North,5,0.0,6.0,80,0.00,,OVC026,0.00,VWS V14.01,2013-03-06 06:50:00,
2013-03-06 00:51:00,21.6,16.4,30.18,North,5,1.0,6.0,80,0.00,,OVC026,0.00,VWS V14.01,2013-03-06 06:51:00,
2013-03-06 00:52:00,21.8,16.6,30.18,North,5,3.0,6.0,80,0.00,,OVC026,0.00,VWS V14.01,2013-03-06 06:52:00,
2013-03-06 00:53:00,21.8,16.6,30.18,North,5,1.0,6.0,80,0.00,,OVC026,0.00,VWS V14.01,2013-03-06 06:53:00,
2013-03-06 00:54:00,21.8,16.6,30.18,North,5,0.0,6.0,80,0.00,,OVC026,0.00,VWS V14.01,2013-03-06 06:54:00,
2013-03-06 00:55:00,21.8,16.6,30.18,North,5,3.0,6.0,80,0.00,,OVC026,0.00,VWS V14.01,2013-03-06 06:55:00,
2013-03-06 00:56:00,21.8,16.6,30.18,North,5,2.0,6.0,80,0.00,,OVC026,0.00,VWS V14.01,2013-03-06 06:56:00,
2013-03-06 00:57:00,21.8,16.9,30.18,North,5,0.0,6.0,81,0.00,,OVC026,0.00,VWS V14.01,2013-03-06 06:57:00,
2013-03-06 00:58:00,21.8,16.9,30.18,North,5,0.0,6.0,81,0.00,,OVC026,0.00,VWS V14.01,2013-03-06 06:58:00,
2013-03-06 00:59:00,21.8,16.9,30.18,North,5,0.0,6.0,81,0.00,,OVC026,0.00,VWS V14.01,2013-03-06 06:59:00,
2013-03-06 01:00:00,21.8,16.6,30.19,North,5,0.0,6.0,80,0.00,,OVC026,0.00,VWS V14.01,2013-03-06 07:00:00,
2013-03-06 01:01:00,21.8,16.6,30.19,North,5,0.0,0.0,80,0.00,,OVC026,0.00,VWS V14.01,2013-03-06 07:01:00,
2013-03-06 01:02:00,21.8,16.6,30.19,North,5,0.0,0.0,80,0.00,,OVC026,0.00,VWS V14.01,2013-03-06 07:02:00,
2013-03-06 01:03:00,21.8,16.6,30.19,North,5,0.0,0.0,80,0.00,,OVC026,0.00,VWS V14.01,2013-03-06 07:03:00,
2013-03-06 01:04:00,21.8,16.6,30.19,North,5,0.0,0.0,80,0.00,,OVC026,0.00,VWS V14.01,2013-03-06 07:04:00,
2013-03-06 01:05:00,21.8,16.9,30.19,North,5,0.0,1.0,81,0.00,,OVC026,0.00,VWS V14.01,2013-03-06 07:05:00,
2013-03-06 01:06:00,21.8,16.9,30.19,North,5,0.0,1.0,81,0.00,,OVC026,0.00,VWS V14.01,2013-03-06 07:06:00,
2013-03-06 01:07:00,21.8,16.9,30.19,North,5,0.0,4.0,81,0.00,,OVC026,0.00,VWS V14.01,2013-03-06 07:07:00,
2013-03-06 01:08:00,21.8,16.9,30.19,North,5,1.0,4.0,81,0.00,,OVC026,0.00,VWS V14.01,2013-03-06 07:08:00,
2013-03-06 01:09:00,21.8,16.9,30.19,North,5,0.0,4.0,81,0.00,,OVC026,0.00,VWS V14.01,2013-03-06 07:09:00,
2013-03-06 01:10:00,21.8,16.9,30.19,North,5,0.0,4.0,81,0.00,,OVC026,0.00,VWS V14.01,2013-03-06 07:10:00,
2013-03-06 01:11:00,21.8,16.9,30.19,North,2,2.0,4.0,81,0.00,,OVC026,0.00,VWS V14.01,2013-03-06 07:11:00,
2013-03-06 01:12:00,21.8,16.9,30.19,North,360,0.0,4.0,81,0.00,,OVC026,0.00,VWS V14.01,2013-03-06 07:12:00,
2013-03-06 01:13:00,21.8,16.9,30.19,North,360,0.0,4.0,81,0.00,,OVC026,0.00,VWS V14.01,2013-03-06 07:13:00,
2013-03-06 01:14:00,21.8,16.9,30.19,North,360,0.0,4.0,81,0.00,,OVC026,0.00,VWS V14.01,2013-03-06 07:14:00,
2013-03-06 01:15:00,21.8,16.9,30.20,North,360,3.0,4.0,81,0.00,,OVC026,0.00,VWS V14.01,2013-03-06 07:15:00,
2013-03-06 01:16:00,21.8,16.9,30.20,North,360,2.0,4.0,81,0.00,,OVC026,0.00,VWS V14.01,2013-03-06 07:16:00,
2013-03-06 01:17:00,21.8,16.9,30.20,North,353,0.0,4.0,81,0.00,,OVC026,0.00,VWS V14.01,2013-03-06 07:17:00,
2013-03-06 01:18:00,21.8,16.9,30.20,North,353,0.0,4.0,81,0.00,,OVC026,0.00,VWS V14.01,2013-03-06 07:18:00,
2013-03-06 01:19:00,21.8,16.9,30.20,North,353,0.0,4.0,81,0.00,,OVC026,0.00,VWS V14.01,2013-03-06 07:19:00,
2013-03-06 01:20:00,21.8,16.9,30.20,North,353,0.0,4.0,81,0.00,,OVC026,0.00,VWS V14.01,2013-03-06 07:20:00,
2013-03-06 01:21:00,21.8,16.9,30.20,North,353,0.0,4.0,81,0.00,,OVC026,0.00,VWS V14.01,2013-03-06 07:21:00,
2013-03-06 01:22:00,21.8,16.9,30.20,North,353,0.0,4.0,81,0.00,,OVC026,0.00,VWS V14.01,2013-03-06 07:22:00,
2013-03-06 01:23:00,21.8,16.9,30.20,North,353,0.0,4.0,81,0.00,,OVC026,0.00,VWS V14.01,2013-03-06 07:23:00,
2013-03-06 01:24:00,21.8,16.9,30.20,North,350,1.0,4.0,81,0.00,,OVC026,0.00,VWS V14.01,2013-03-06 07:24:00,
2013-03-06 01:25:00,21.8,16.9,30.20,North,349,4.0,6.0,81,0.00,,OVC026,0.00,VWS V14.01,2013-03-06 07:25:00,
2013-03-06 01:26:00,21.8,16.9,30.20,NW,317,5.0,6.0,81,0.00,,OVC026,0.00,VWS V14.01,2013-03-06 07:26:00,
2013-03-06 01:27:00,21.8,16.9,30.20,NW,315,1.0,6.0,81,0.00,,OVC026,0.00,VWS V14.01,2013-03-06 07:27:00,
2013-03-06 01:28:00,21.8,16.9,30.20,NW,311,2.0,6.0,81,0.00,,OVC026,0.00,VWS V14.01,2013-03-06 07:28:00,
2013-03-06 01:29:00,21.8,16.9,30.20,NW,311,0.0,6.0,81,0.00,,OVC026,0.00,VWS V14.01,2013-03-06 07:29:00,
2013-03-06 01:30:00,21.8,16.9,30.20,NW,311,0.0,6.0,81,0.00,,OVC026,0.00,VWS V14.01,2013-03-06 07:30:00,
2013-03-06 01:31:00,21.8,16.9,30.20,NW,312,6.0,6.0,81,0.00,,OVC026,0.00,VWS V14.01,2013-03-06 07:31:00,
2013-03-06 01:32:00,21.8,16.9,30.20,NW,312,0.0,6.0,81,0.00,,OVC026,0.00,VWS V14.01,2013-03-06 07:32:00,
2013-03-06 01:33:00,21.8,16.9,30.20,NW,312,1.0,6.0,81,0.00,,OVC026,0.00,VWS V14.01,2013-03-06 07:33:00,
2013-03-06 01:34:00,21.8,16.9,30.20,NW,311,1.0,6.0,81,0.00,,OVC026,0.00,VWS V14.01,2013-03-06 07:34:00,
2013-03-06 01:35:00,21.6,16.7,30.20,NW,311,5.0,6.0,81,0.00,,OVC026,0.00,VWS V14.01,2013-03-06 07:35:00,
2013-03-06 01:36:00,21.6,16.7,30.20,NW,312,5.0,6.0,81,0.00,,OVC026,0.00,VWS V14.01,2013-03-06 07:36:00,
2013-03-06 01:37:00,21.6,16.7,30.20,NW,312,1.0,6.0,81,0.00,,OVC026,0.00,VWS V14.01,2013-03-06 07:37:00,
2013-03-06 01:38:00,21.6,16.7,30.20,NW,312,4.0,6.0,81,0.00,,OVC026,0.00,VWS V14.01,2013-03-06 07:38:00,
2013-03-06 01:39:00,21.6,16.7,30.20,NW,312,1.0,6.0,81,0.00,,OVC026,0.00,VWS V14.01,2013-03-06 07:39:00,
2013-03-06 01:40:00,21.6,16.7,30.20,NW,312,1.0,6.0,81,0.00,,OVC026,0.00,VWS V14.01,2013-03-06 07:40:00,
2013-03-06 01:41:00,21.6,16.7,30.20,NW,312,0.0,6.0,81,0.00,,OVC026,0.00,VWS V14.01,2013-03-06 07:41:00,
2013-03-06 01:42:00,21.6,16.7,30.20,NW,312,3.0,6.0,81,0.00,,OVC026,0.00,VWS V14.01,2013-03-06 07:42:00,
2013-03-06 01:43:00,21.6,16.7,30.20,NW,312,0.0,6.0,81,0.00,,OVC024,0.00,VWS V14.01,2013-03-06 07:43:00,
2013-03-06 01:44:00,21.6,16.7,30.20,NW,312,1.0,6.0,81,0.00,,OVC024,0.00,VWS V14.01,2013-03-06 07:44:00,
2013-03-06 01:45:00,21.6,16.7,30.20,NW,312,0.0,6.0,81,0.00,,OVC024,0.00,VWS V14.01,2013-03-06 07:45:00,
2013-03-06 01:46:00,21.6,16.7,30.20,NW,312,0.0,6.0,81,0.00,,OVC024,0.00,VWS V14.01,2013-03-06 07:46:00,
2013-03-06 01:47:00,21.6,16.7,30.20,NW,312,0.0,6.0,81,0.00,,OVC024,0.00,VWS V14.01,2013-03-06 07:47:00,
2013-03-06 01:48:00,21.4,16.5,30.20,NW,312,0.0,6.0,81,0.00,,OVC024,0.00,VWS V14.01,2013-03-06 07:48:00,
2013-03-06 01:49:00,21.4,16.8,30.20,NW,312,2.0,6.0,82,0.00,,OVC024,0.00,VWS V14.01,2013-03-06 07:49:00,
2013-03-06 01:50:00,21.4,16.8,30.20,NW,312,1.0,6.0,82,0.00,,OVC024,0.00,VWS V14.01,2013-03-06 07:50:00,
2013-03-06 01:51:00,21.4,16.8,30.20,NW,312,2.0,6.0,82,0.00,,OVC024,0.00,VWS V14.01,2013-03-06 07:51:00,
2013-03-06 01:52:00,21.4,16.8,30.20,NW,312,2.0,6.0,82,0.00,,OVC024,0.00,VWS V14.01,2013-03-06 07:52:00,
2013-03-06 01:53:00,21.4,16.8,30.20,NW,312,0.0,6.0,82,0.00,,OVC024,0.00,VWS V14.01,2013-03-06 07:53:00,
2013-03-06 01:54:00,21.4,16.8,30.20,NW,312,0.0,6.0,82,0.00,,OVC024,0.00,VWS V14.01,2013-03-06 07:54:00,
2013-03-06 01:55:00,21.4,16.8,30.20,NW,312,0.0,6.0,82,0.00,,OVC024,0.00,VWS V14.01,2013-03-06 07:55:00,
2013-03-06 01:56:00,21.4,16.8,30.20,NW,312,2.0,6.0,82,0.00,,OVC024,0.00,VWS V14.01,2013-03-06 07:56:00,
2013-03-06 01:57:00,21.4,16.8,30.20,NW,312,0.0,6.0,82,0.00,,OVC024,0.00,VWS V14.01,2013-03-06 07:57:00,
2013-03-06 01:58:00,21.4,16.8,30.20,NW,312,0.0,6.0,82,0.00,,OVC024,0.00,VWS V14.01,2013-03-06 07:58:00,
2013-03-06 01:59:00,21.4,16.8,30.20,NW,312,2.0,6.0,82,0.00,,OVC024,0.00,VWS V14.01,2013-03-06 07:59:00,
2013-03-06 02:00:00,21.4,16.8,30.20,NW,312,1.0,6.0,82,0.00,,OVC024,0.00,VWS V14.01,2013-03-06 08:00:00,
2013-03-06 02:01:00,21.4,16.8,30.20,NW,312,0.0,1.0,82,0.00,,OVC024,0.00,VWS V14.01,2013-03-06 08:01:00,
2013-03-06 02:02:00,21.4,16.8,30.20,NW,312,0.0,1.0,82,0.00,,OVC024,0.00,VWS V14.01,2013-03-06 08:02:00,
2013-03-06 02:03:00,21.4,16.8,30.20,NW,312,2.0,2.0,82,0.00,,OVC024,0.00,VWS V14.01,2013-03-06 08:03:00,
2013-03-06 02:04:00,21.4,16.8,30.20,NW,312,0.0,2.0,82,0.00,,OVC024,0.00,VWS V14.01,2013-03-06 08:04:00,
2013-03-06 02:05:00,21.4,16.8,30.20,NW,312,1.0,2.0,82,0.00,,OVC024,0.00,VWS V14.01,2013-03-06 08:05:00,
2013-03-06 02:06:00,21.6,17.0,30.20,NW,312,0.0,2.0,82,0.00,,OVC024,0.00,VWS V14.01,2013-03-06 08:06:00,
2013-03-06 02:07:00,21.4,16.8,30.20,NW,314,1.0,2.0,82,0.00,,OVC024,0.00,VWS V14.01,2013-03-06 08:07:00,
2013-03-06 02:08:00,21.6,17.0,30.20,NW,312,0.0,2.0,82,0.00,,OVC024,0.00,VWS V14.01,2013-03-06 08:08:00,
2013-03-06 02:09:00,21.4,16.8,30.20,NW,312,1.0,2.0,82,0.00,,OVC024,0.00,VWS V14.01,2013-03-06 08:09:00,
2013-03-06 02:10:00,21.6,17.2,30.20,NW,318,5.0,5.0,83,0.00,,OVC024,0.00,VWS V14.01,2013-03-06 08:10:00,
2013-03-06 02:11:00,21.6,17.2,30.20,NW,318,1.0,5.0,83,0.00,,OVC024,0.00,VWS V14.01,2013-03-06 08:11:00,
2013-03-06 02:12:00,21.6,17.2,30.20,NW,318,0.0,5.0,83,0.00,,OVC024,0.00,VWS V14.01,2013-03-06 08:12:00,
2013-03-06 02:13:00,21.6,17.2,30.20,NW,318,2.0,5.0,83,0.00,,OVC024,0.00,VWS V14.01,2013-03-06 08:13:00,
2013-03-06 02:14:00,21.6,17.2,30.20,NW,318,1.0,5.0,83,0.00,,OVC024,0.00,VWS V14.01,2013-03-06 08:14:00,
2013-03-06 02:15:00,21.6,17.2,30.20,NW,318,6.0,6.0,83,0.00,,OVC024,0.00,VWS V14.01,2013-03-06 08:15:00,
2013-03-06 02:16:00,21.6,17.2,30.20,NW,322,0.0,7.0,83,0.00,,OVC024,0.00,VWS V14.01,2013-03-06 08:16:00,
2013-03-06 02:17:00,21.6,17.2,30.20,NW,322,3.0,7.0,83,0.00,,OVC024,0.00,VWS V14.01,2013-03-06 08:17:00,
2013-03-06 02:18:00,21.6,17.2,30.20,NW,322,6.0,7.0,83,0.00,,OVC024,0.00,VWS V14.01,2013-03-06 08:18:00,
2013-03-06 02:19:00,21.6,17.2,30.20,NW,322,0.0,7.0,83,0.00,,OVC024,0.00,VWS V14.01,2013-03-06 08:19:00,
2013-03-06 02:20:00,21.8,17.4,30.20,NW,322,0.0,7.0,83,0.00,,OVC024,0.00,VWS V14.01,2013-03-06 08:20:00,
2013-03-06 02:21:00,21.8,17.4,30.20,NW,322,2.0,7.0,83,0.00,,OVC024,0.00,VWS V14.01,2013-03-06 08:21:00,
2013-03-06 02:22:00,21.6,17.2,30.20,NW,322,1.0,7.0,83,0.00,,OVC024,0.00,VWS V14.01,2013-03-06 08:22:00,
2013-03-06 02:23:00,21.6,17.2,30.20,NW,322,0.0,7.0,83,0.00,,OVC024,0.00,VWS V14.01,2013-03-06 08:23:00,
2013-03-06 02:24:00,21.6,17.2,30.20,NW,324,3.0,7.0,83,0.00,,OVC024,0.00,VWS V14.01,2013-03-06 08:24:00,
2013-03-06 02:25:00,21.6,17.2,30.20,NW,324,0.0,7.0,83,0.00,,OVC024,0.00,VWS V14.01,2013-03-06 08:25:00,
2013-03-06 02:26:00,21.6,17.2,30.20,NW,324,2.0,7.0,83,0.00,,OVC024,0.00,VWS V14.01,2013-03-06 08:26:00,
2013-03-06 02:27:00,21.6,17.2,30.20,NW,324,0.0,7.0,83,0.00,,OVC024,0.00,VWS V14.01,2013-03-06 08:27:00,
2013-03-06 02:28:00,21.6,17.2,30.20,NW,324,1.0,7.0,83,0.00,,OVC024,0.00,VWS V14.01,2013-03-06 08:28:00,
2013-03-06 02:29:00,21.6,17.2,30.20,NW,324,1.0,7.0,83,0.00,,OVC024,0.00,VWS V14.01,2013-03-06 08:29:00,
2013-03-06 02:30:00,21.6,17.2,30.20,NW,324,1.0,7.0,83,0.00,,OVC024,0.00,VWS V14.01,2013-03-06 08:30:00,
2013-03-06 02:31:00,21.6,17.2,30.20,NW,324,0.0,4.0,83,0.00,,OVC024,0.00,VWS V14.01,2013-03-06 08:31:00,
2013-03-06 02:32:00,21.6,17.2,30.20,NW,324,1.0,4.0,83,0.00,,OVC024,0.00,VWS V14.01,2013-03-06 08:32:00,
2013-03-06 02:33:00,21.6,17.2,30.20,NW,324,1.0,4.0,83,0.00,,OVC024,0.00,VWS V14.01,2013-03-06 08:33:00,
2013-03-06 02:34:00,21.6,17.2,30.20,NW,324,0.0,4.0,83,0.00,,OVC024,0.00,VWS V14.01,2013-03-06 08:34:00,
2013-03-06 02:35:00,21.6,17.2,30.20,NW,324,0.0,4.0,83,0.00,,OVC024,0.00,VWS V14.01,2013-03-06 08:35:00,
2013-03-06 02:36:00,21.6,17.2,30.20,NW,322,2.0,4.0,83,0.00,,OVC024,0.00,VWS V14.01,2013-03-06 08:36:00,
2013-03-06 02:37:00,21.6,17.2,30.20,NW,322,1.0,4.0,83,0.00,,OVC024,0.00,VWS V14.01,2013-03-06 08:37:00,
2013-03-06 02:38:00,21.6,17.2,30.20,NW,322,1.0,4.0,83,0.00,,OVC024,0.00,VWS V14.01,2013-03-06 08:38:00,
2013-03-06 02:39:00,21.6,17.2,30.20,NW,322,0.0,4.0,83,0.00,,OVC024,0.00,VWS V14.01,2013-03-06 08:39:00,
2013-03-06 02:40:00,21.6,17.2,30.20,NW,322,1.0,4.0,83,0.00,,OVC024,0.00,VWS V14.01,2013-03-06 08:40:00,
2013-03-06 02:41:00,21.6,17.2,30.20,NW,322,1.0,4.0,83,0.00,,OVC024,0.00,VWS V14.01,2013-03-06 08:41:00,
2013-03-06 02:42:00,21.6,17.2,30.20,NW,324,0.0,4.0,83,0.00,,OVC024,0.00,VWS V14.01,2013-03-06 08:42:00,
2013-03-06 02:43:00,21.6,17.2,30.20,NW,324,5.0,5.0,83,0.00,,OVC020,0.00,VWS V14.01,2013-03-06 08:43:00,
2013-03-06 02:44:00,21.6,17.2,30.20,NW,322,1.0,5.0,83,0.00,,OVC020,0.00,VWS V14.01,2013-03-06 08:44:00,
2013-03-06 02:45:00,21.6,17.2,30.20,NW,324,0.0,5.0,83,0.00,,OVC020,0.00,VWS V14.01,2013-03-06 08:45:00,
2013-03-06 02:46:00,21.6,17.2,30.20,NW,324,1.0,5.0,83,0.00,,OVC020,0.00,VWS V14.01,2013-03-06 08:46:00,
2013-03-06 02:47:00,21.6,17.2,30.20,NNW,331,4.0,7.0,83,0.00,,OVC020,0.00,VWS V14.01,2013-03-06 08:47:00,
2013-03-06 02:48:00,21.6,17.2,30.20,NNW,331,3.0,7.0,83,0.00,,OVC020,0.00,VWS V14.01,2013-03-06 08:48:00,
2013-03-06 02:49:00,21.6,17.5,30.20,NNW,331,5.0,7.0,84,0.00,,OVC020,0.00,VWS V14.01,2013-03-06 08:49:00,
2013-03-06 02:50:00,21.6,17.2,30.20,NNW,329,0.0,7.0,83,0.00,,OVC020,0.00,VWS V14.01,2013-03-06 08:50:00,
2013-03-06 02:51:00,21.6,17.5,30.20,NW,308,5.0,8.0,84,0.00,,OVC020,0.00,VWS V14.01,2013-03-06 08:51:00,
2013-03-06 02:52:00,21.8,17.7,30.20,WNW,288,0.0,10.0,84,0.00,,OVC020,0.00,VWS V14.01,2013-03-06 08:52:00,
2013-03-06 02:53:00,21.8,17.7,30.20,WNW,291,2.0,10.0,84,0.00,,OVC020,0.00,VWS V14.01,2013-03-06 08:53:00,
2013-03-06 02:54:00,21.8,17.7,30.20,WNW,291,1.0,10.0,84,0.00,,OVC020,0.00,VWS V14.01,2013-03-06 08:54:00,
2013-03-06 02:55:00,21.8,17.7,30.20,WNW,293,0.0,10.0,84,0.00,,OVC020,0.00,VWS V14.01,2013-03-06 08:55:00,
2013-03-06 02:56:00,21.8,17.4,30.20,WNW,293,0.0,10.0,83,0.00,,OVC020,0.00,VWS V14.01,2013-03-06 08:56:00,
2013-03-06 02:57:00,21.8,17.4,30.20,WNW,293,0.0,10.0,83,0.00,,OVC020,0.00,VWS V14.01,2013-03-06 08:57:00,
2013-03-06 02:58:00,21.8,17.4,30.20,WNW,301,5.0,10.0,83,0.00,,OVC020,0.00,VWS V14.01,2013-03-06 08:58:00,
2013-03-06 02:59:00,21.8,17.4,30.20,WNW,302,5.0,10.0,83,0.00,,OVC020,0.00,VWS V14.01,2013-03-06 08:59:00,
2013-03-06 03:00:00,21.9,17.5,30.20,WNW,302,0.0,10.0,83,0.00,,OVC020,0.00,VWS V14.01,2013-03-06 09:00:00,
2013-03-06 03:01:00,21.9,17.5,30.20,WNW,302,1.0,2.0,83,0.00,,OVC020,0.00,VWS V14.01,2013-03-06 09:01:00,
2013-03-06 03:02:00,21.9,17.5,30.20,WNW,302,0.0,2.0,83,0.00,,OVC020,0.00,VWS V14.01,2013-03-06 09:02:00,
2013-03-06 03:03:00,21.9,17.5,30.20,WNW,302,2.0,6.0,83,0.00,,OVC020,0.00,VWS V14.01,2013-03-06 09:03:00,
2013-03-06 03:04:00,21.9,17.5,30.20,WNW,302,1.0,6.0,83,0.00,,OVC020,0.00,VWS V14.01,2013-03-06 09:04:00,
2013-03-06 03:05:00,21.9,17.5,30.20,WNW,302,0.0,6.0,83,0.00,,OVC020,0.00,VWS V14.01,2013-03-06 09:05:00,
2013-03-06 03:06:00,21.9,17.5,30.20,WNW,302,0.0,6.0,83,0.00,,OVC020,0.00,VWS V14.01,2013-03-06 09:06:00,
2013-03-06 03:07:00,21.9,17.5,30.20,WNW,302,2.0,6.0,83,0.00,,OVC020,0.00,VWS V14.01,2013-03-06 09:07:00,
2013-03-06 03:08:00,21.9,17.5,30.20,WNW,302,1.0,6.0,83,0.00,,OVC020,0.00,VWS V14.01,2013-03-06 09:08:00,
2013-03-06 03:09:00,21.9,17.5,30.20,WNW,302,2.0,6.0,83,0.00,,OVC020,0.00,VWS V14.01,2013-03-06 09:09:00,
2013-03-06 03:10:00,21.9,17.5,30.20,WNW,302,2.0,6.0,83,0.00,,OVC020,0.00,VWS V14.01,2013-03-06 09:10:00,
2013-03-06 03:11:00,22.1,17.7,30.20,WNW,288,1.0,6.0,83,0.00,,OVC020,0.00,VWS V14.01,2013-03-06 09:11:00,
2013-03-06 03:12:00,22.1,17.7,30.20,WNW,288,2.0,6.0,83,0.00,,OVC020,0.00,VWS V14.01,2013-03-06 09:12:00,
2013-03-06 03:13:00,22.1,17.7,30.20,WNW,288,0.0,6.0,83,0.00,,OVC020,0.00,VWS V14.01,2013-03-06 09:13:00,
2013-03-06 03:14:00,22.1,17.7,30.20,WNW,288,0.0,6.0,83,0.00,,OVC020,0.00,VWS V14.01,2013-03-06 09:14:00,
2013-03-06 03:15:00,22.1,17.7,30.20,WNW,288,0.0,6.0,83,0.00,,OVC020,0.00,VWS V14.01,2013-03-06 09:15:00,
2013-03-06 03:16:00,22.1,17.7,30.20,WNW,288,0.0,6.0,83,0.00,,OVC020,0.00,VWS V14.01,2013-03-06 09:16:00,
2013-03-06 03:17:00,22.1,17.7,30.20,NW,310,6.0,8.0,83,0.00,,OVC020,0.00,VWS V14.01,2013-03-06 09:17:00,
2013-03-06 03:18:00,22.1,17.7,30.20,NW,318,3.0,8.0,83,0.00,,OVC020,0.00,VWS V14.01,2013-03-06 09:18:00,
2013-03-06 03:19:00,22.1,17.5,30.20,NNW,328,7.0,8.0,82,0.00,,OVC020,0.00,VWS V14.01,2013-03-06 09:19:00,
2013-03-06 03:20:00,22.1,17.5,30.20,NNW,328,0.0,8.0,82,0.00,,OVC020,0.00,VWS V14.01,2013-03-06 09:20:00,
2013-03-06 03:21:00,22.2,17.5,30.20,NNW,328,3.0,8.0,82,0.00,,OVC020,0.00,VWS V14.01,2013-03-06 09:21:00,
2013-03-06 03:22:00,22.2,17.5,30.20,NNW,328,2.0,8.0,82,0.00,,OVC020,0.00,VWS V14.01,2013-03-06 09:22:00,
2013-03-06 03:23:00,22.2,17.5,30.20,NW,326,6.0,8.0,82,0.00,,OVC020,0.00,VWS V14.01,2013-03-06 09:23:00,
2013-03-06 03:24:00,22.2,17.5,30.20,NNW,328,5.0,8.0,82,0.00,,OVC020,0.00,VWS V14.01,2013-03-06 09:24:00,
2013-03-06 03:25:00,22.2,17.5,30.20,North,359,6.0,8.0,82,0.00,,OVC020,0.00,VWS V14.01,2013-03-06 09:25:00,
2013-03-06 03:26:00,22.2,17.3,30.20,North,356,2.0,8.0,81,0.00,,OVC020,0.00,VWS V14.01,2013-03-06 09:26:00,
2013-03-06 03:27:00,22.2,17.3,30.20,NNW,345,5.0,8.0,81,0.00,,OVC020,0.00,VWS V14.01,2013-03-06 09:27:00,
2013-03-06 03:28:00,22.2,17.3,30.20,NNW,342,13.0,14.0,81,0.00,,OVC020,0.00,VWS V14.01,2013-03-06 09:28:00,
2013-03-06 03:29:00,22.2,17.0,30.20,NW,325,2.0,14.0,80,0.00,,OVC020,0.00,VWS V14.01,2013-03-06 09:29:00,
2013-03-06 03:30:00,22.4,17.2,30.20,NNW,332,7.0,14.0,80,0.00,,OVC020,0.00,VWS V14.01,2013-03-06 09:30:00,
2013-03-06 03:31:00,22.4,17.2,30.20,NW,317,1.0,10.0,80,0.00,,OVC020,0.00,VWS V14.01,2013-03-06 09:31:00,
2013-03-06 03:32:00,22.4,16.9,30.20,NNW,328,0.0,10.0,79,0.00,,OVC020,0.00,VWS V14.01,2013-03-06 09:32:00,
2013-03-06 03:33:00,22.4,16.9,30.20,NNW,331,5.0,10.0,79,0.00,,OVC020,0.00,VWS V14.01,2013-03-06 09:33:00,
2013-03-06 03:34:00,22.4,16.9,30.20,NW,312,3.0,10.0,79,0.00,,OVC020,0.00,VWS V14.01,2013-03-06 09:34:00,
2013-03-06 03:35:00,22.4,16.9,30.20,NNW,334,6.0,10.0,79,0.00,,OVC020,0.00,VWS V14.01,2013-03-06 09:35:00,
2013-03-06 03:36:00,22.4,16.9,30.20,WNW,295,5.0,10.0,79,0.00,,OVC020,0.00,VWS V14.01,2013-03-06 09:36:00,
2013-03-06 03:37:00,22.4,16.9,30.20,NNW,329,2.0,11.0,79,0.00,,OVC020,0.00,VWS V14.01,2013-03-06 09:37:00,
2013-03-06 03:38:00,22.4,16.9,30.20,NW,324,7.0,11.0,79,0.00,,OVC020,0.00,VWS V14.01,2013-03-06 09:38:00,
2013-03-06 03:39:00,22.4,16.9,30.20,NW,318,5.0,12.0,79,0.00,,OVC020,0.00,VWS V14.01,2013-03-06 09:39:00,
2013-03-06 03:40:00,22.4,16.9,30.20,NNW,332,8.0,12.0,79,0.00,,OVC020,0.00,VWS V14.01,2013-03-06 09:40:00,
2013-03-06 03:41:00,22.4,16.9,30.20,NNW,338,6.0,12.0,79,0.00,,OVC020,0.00,VWS V14.01,2013-03-06 09:41:00,
2013-03-06 03:42:00,22.4,16.9,30.20,NW,310,5.0,12.0,79,0.00,,OVC020,0.00,VWS V14.01,2013-03-06 09:42:00,
2013-03-06 03:43:00,22.4,16.9,30.20,NNW,334,7.0,12.0,79,0.00,,OVC014,0.00,VWS V14.01,2013-03-06 09:43:00,
2013-03-06 03:44:00,22.4,16.9,30.20,NNW,335,10.0,12.0,79,0.00,,OVC014,0.00,VWS V14.01,2013-03-06 09:44:00,
2013-03-06 03:45:00,22.2,16.7,30.21,North,353,8.0,12.0,79,0.00,,OVC014,0.00,VWS V14.01,2013-03-06 09:45:00,
2013-03-06 03:46:00,22.2,16.7,30.21,NNW,329,4.0,12.0,79,0.00,,OVC014,0.00,VWS V14.01,2013-03-06 09:46:00,
2013-03-06 03:47:00,22.2,16.7,30.21,NNW,329,0.0,12.0,79,0.00,,OVC014,0.00,VWS V14.01,2013-03-06 09:47:00,
2013-03-06 03:48:00,22.2,16.7,30.21,NNW,329,2.0,12.0,79,0.00,,OVC014,0.00,VWS V14.01,2013-03-06 09:48:00,
2013-03-06 03:49:00,22.2,16.7,30.21,NW,326,4.0,12.0,79,0.00,,OVC014,0.00,VWS V14.01,2013-03-06 09:49:00,
2013-03-06 03:50:00,22.2,16.7,30.21,NW,324,1.0,12.0,79,0.00,,OVC014,0.00,VWS V14.01,2013-03-06 09:50:00,
2013-03-06 03:51:00,22.1,16.6,30.21,NW,318,5.0,12.0,79,0.00,,OVC014,0.00,VWS V14.01,2013-03-06 09:51:00,
2013-03-06 03:52:00,22.1,16.9,30.21,NW,321,4.0,12.0,80,0.00,,OVC014,0.00,VWS V14.01,2013-03-06 09:52:00,
2013-03-06 03:53:00,22.1,16.9,30.21,NW,321,0.0,12.0,80,0.00,,OVC014,0.00,VWS V14.01,2013-03-06 09:53:00,
2013-03-06 03:54:00,22.1,16.9,30.21,NW,321,6.0,12.0,80,0.00,,OVC014,0.00,VWS V14.01,2013-03-06 09:54:00,
2013-03-06 03:55:00,22.1,16.9,30.21,NW,324,5.0,12.0,80,0.00,,OVC014,0.00,VWS V14.01,2013-03-06 09:55:00,
2013-03-06 03:56:00,22.1,16.9,30.21,NNW,334,0.0,12.0,80,0.00,,OVC014,0.00,VWS V14.01,2013-03-06 09:56:00,
2013-03-06 03:57:00,22.1,16.9,30.21,NNW,341,5.0,12.0,80,0.00,,OVC014,0.00,VWS V14.01,2013-03-06 09:57:00,
2013-03-06 03:58:00,22.1,16.9,30.21,NNW,341,5.0,12.0,80,0.00,,OVC014,0.00,VWS V14.01,2013-03-06 09:58:00,
2013-03-06 03:59:00,21.9,16.7,30.21,NNW,328,0.0,12.0,80,0.00,,OVC016,0.00,VWS V14.01,2013-03-06 09:59:00,
2013-03-06 04:00:00,21.9,16.7,30.22,NW,322,9.0,12.0,80,0.00,,OVC016,0.00,VWS V14.01,2013-03-06 10:00:00,
2013-03-06 04:01:00,21.9,16.7,30.22,NNW,334,6.0,9.0,80,0.00,,OVC016,0.00,VWS V14.01,2013-03-06 10:01:00,
2013-03-06 04:02:00,21.9,16.7,30.22,West,278,5.0,11.0,80,0.00,,OVC016,0.00,VWS V14.01,2013-03-06 10:02:00,
2013-03-06 04:03:00,21.8,16.3,30.22,WNW,300,12.0,12.0,79,0.00,,OVC016,0.00,VWS V14.01,2013-03-06 10:03:00,
2013-03-06 04:04:00,21.8,16.3,30.22,NNW,345,12.0,13.0,79,0.00,,OVC016,0.00,VWS V14.01,2013-03-06 10:04:00,
2013-03-06 04:05:00,21.8,16.0,30.22,NNW,332,9.0,16.0,78,0.00,,OVC016,0.00,VWS V14.01,2013-03-06 10:05:00,
2013-03-06 04:06:00,21.6,15.8,30.22,North,350,8.0,16.0,78,0.00,,OVC016,0.00,VWS V14.01,2013-03-06 10:06:00,
2013-03-06 04:07:00,21.4,15.6,30.22,NW,319,8.0,16.0,78,0.00,,OVC016,0.00,VWS V14.01,2013-03-06 10:07:00,
2013-03-06 04:08:00,21.4,15.6,30.22,NNW,339,12.0,16.0,78,0.00,,OVC016,0.00,VWS V14.01,2013-03-06 10:08:00,
2013-03-06 04:09:00,21.3,15.5,30.22,NNW,338,14.0,16.0,78,0.00,,OVC016,0.00,VWS V14.01,2013-03-06 10:09:00,
2013-03-06 04:10:00,21.1,15.3,30.22,NNW,334,13.0,16.0,78,0.00,,OVC016,0.00,VWS V14.01,2013-03-06 10:10:00,
2013-03-06 04:11:00,21.1,15.3,30.22,NNW,343,11.0,16.0,78,0.00,,OVC016,0.00,VWS V14.01,2013-03-06 10:11:00,
2013-03-06 04:12:00,21.0,15.2,30.22,NW,317,13.0,16.0,78,0.00,,OVC016,0.00,VWS V14.01,2013-03-06 10:12:00,
2013-03-06 04:13:00,20.8,15.0,30.22,NNW,332,7.0,16.0,78,0.00,,OVC016,0.00,VWS V14.01,2013-03-06 10:13:00,
2013-03-06 04:14:00,20.8,15.0,30.22,NW,325,12.0,16.0,78,0.00,,OVC016,0.00,VWS V14.01,2013-03-06 10:14:00,
2013-03-06 04:15:00,20.8,15.3,30.22,NNW,345,11.0,16.0,79,0.00,,OVC016,0.00,VWS V14.01,2013-03-06 10:15:00,
2013-03-06 04:16:00,20.6,15.1,30.22,North,349,11.0,16.0,79,0.00,,OVC016,0.00,VWS V14.01,2013-03-06 10:16:00,
2013-03-06 04:17:00,20.6,15.1,30.22,NNW,332,12.0,16.0,79,0.00,,OVC016,0.00,VWS V14.01,2013-03-06 10:17:00,
2013-03-06 04:18:00,20.6,15.1,30.22,NW,321,10.0,16.0,79,0.00,,OVC016,0.00,VWS V14.01,2013-03-06 10:18:00,
2013-03-06 04:19:00,20.6,15.1,30.22,NW,314,4.0,16.0,79,0.00,,OVC016,0.00,VWS V14.01,2013-03-06 10:19:00,
2013-03-06 04:20:00,20.6,14.8,30.22,NNW,341,6.0,16.0,78,0.00,,OVC016,0.00,VWS V14.01,2013-03-06 10:20:00,
2013-03-06 04:21:00,20.6,15.1,30.22,NNW,328,6.0,16.0,79,0.00,,OVC016,0.00,VWS V14.01,2013-03-06 10:21:00,
2013-03-06 04:22:00,20.6,15.1,30.22,NNW,336,1.0,16.0,79,0.00,,OVC016,0.00,VWS V14.01,2013-03-06 10:22:00,
2013-03-06 04:23:00,20.6,15.1,30.22,NNW,335,7.0,16.0,79,0.00,,OVC016,0.00,VWS V14.01,2013-03-06 10:23:00,
2013-03-06 04:24:00,20.6,15.1,30.22,NNW,335,6.0,16.0,79,0.00,,OVC016,0.00,VWS V14.01,2013-03-06 10:24:00,
2013-03-06 04:25:00,20.6,15.1,30.22,NNW,341,6.0,16.0,79,0.00,,OVC016,0.00,VWS V14.01,2013-03-06 10:25:00,
2013-03-06 04:26:00,20.6,15.1,30.22,NNW,343,5.0,16.0,79,0.00,,OVC016,0.00,VWS V14.01,2013-03-06 10:26:00,
2013-03-06 04:27:00,20.6,15.1,30.22,North,2,3.0,16.0,79,0.00,,OVC016,0.00,VWS V14.01,2013-03-06 10:27:00,
2013-03-06 04:28:00,20.6,15.1,30.22,NNE,17,4.0,16.0,79,0.00,,OVC016,0.00,VWS V14.01,2013-03-06 10:28:00,
2013-03-06 04:29:00,20.6,15.1,30.22,NNE,13,3.0,16.0,79,0.00,,OVC016,0.00,VWS V14.01,2013-03-06 10:29:00,
2013-03-06 04:30:00,20.6,15.1,30.22,NNE,26,10.0,16.0,79,0.00,,OVC016,0.00,VWS V14.01,2013-03-06 10:30:00,
2013-03-06 04:31:00,20.6,15.1,30.22,NNE,17,10.0,12.0,79,0.00,,OVC016,0.00,VWS V14.01,2013-03-06 10:31:00,
2013-03-06 04:32:00,20.6,15.1,30.22,North,349,4.0,12.0,79,0.00,,OVC016,0.00,VWS V14.01,2013-03-06 10:32:00,
2013-03-06 04:33:00,20.6,15.1,30.22,NNW,346,8.0,12.0,79,0.00,,OVC016,0.00,VWS V14.01,2013-03-06 10:33:00,
2013-03-06 04:34:00,20.6,15.1,30.22,NNW,346,2.0,12.0,79,0.00,,OVC016,0.00,VWS V14.01,2013-03-06 10:34:00,
2013-03-06 04:35:00,20.6,15.1,30.22,NNW,332,5.0,12.0,79,0.00,,OVC016,0.00,VWS V14.01,2013-03-06 10:35:00,
2013-03-06 04:36:00,20.6,15.1,30.22,NNW,332,3.0,12.0,79,0.00,,OVC016,0.00,VWS V14.01,2013-03-06 10:36:00,
2013-03-06 04:37:00,20.6,15.1,30.22,NNW,332,3.0,12.0,79,0.00,,OVC016,0.00,VWS V14.01,2013-03-06 10:37:00,
2013-03-06 04:38:00,20.6,15.1,30.22,NNW,332,0.0,12.0,79,0.00,,OVC016,0.00,VWS V14.01,2013-03-06 10:38:00,
2013-03-06 04:39:00,20.5,15.0,30.22,NNW,336,1.0,12.0,79,0.00,,OVC016,0.00,VWS V14.01,2013-03-06 10:39:00,
2013-03-06 04:40:00,20.6,15.1,30.22,NNE,16,5.0,12.0,79,0.00,,OVC016,0.00,VWS V14.01,2013-03-06 10:40:00,
2013-03-06 04:41:00,20.6,15.1,30.22,North,349,7.0,12.0,79,0.00,,OVC016,0.00,VWS V14.01,2013-03-06 10:41:00,
2013-03-06 04:42:00,20.6,15.1,30.22,North,2,6.0,12.0,79,0.00,,OVC016,0.00,VWS V14.01,2013-03-06 10:42:00,
2013-03-06 04:43:00,20.6,15.1,30.22,North,360,5.0,12.0,79,0.00,,OVC016,0.00,VWS V14.01,2013-03-06 10:43:00,
2013-03-06 04:44:00,20.6,15.1,30.22,NNW,345,5.0,12.0,79,0.00,,OVC016,0.00,VWS V14.01,2013-03-06 10:44:00,
2013-03-06 04:45:00,20.6,15.1,30.23,NNE,16,7.0,13.0,79,0.00,,OVC016,0.00,VWS V14.01,2013-03-06 10:45:00,
2013-03-06 04:46:00,20.6,15.1,30.23,North,3,8.0,13.0,79,0.00,,OVC016,0.00,VWS V14.01,2013-03-06 10:46:00,
2013-03-06 04:47:00,20.6,15.1,30.23,North,353,4.0,13.0,79,0.00,,OVC016,0.00,VWS V14.01,2013-03-06 10:47:00,
2013-03-06 04:48:00,20.6,15.1,30.23,NW,315,2.0,13.0,79,0.00,,OVC016,0.00,VWS V14.01,2013-03-06 10:48:00,
2013-03-06 04:49:00,20.6,15.1,30.23,NNW,341,3.0,13.0,79,0.00,,OVC016,0.00,VWS V14.01,2013-03-06 10:49:00,
2013-03-06 04:50:00,20.6,15.1,30.23,NNW,338,7.0,15.0,79,0.00,,OVC016,0.00,VWS V14.01,2013-03-06 10:50:00,
2013-03-06 04:51:00,20.6,15.1,30.23,NW,317,11.0,15.0,79,0.00,,OVC016,0.00,VWS V14.01,2013-03-06 10:51:00,
2013-03-06 04:52:00,20.6,14.8,30.23,North,359,8.0,15.0,78,0.00,,OVC016,0.00,VWS V14.01,2013-03-06 10:52:00,
2013-03-06 04:53:00,20.5,14.7,30.23,NNE,14,13.0,15.0,78,0.00,,OVC016,0.00,VWS V14.01,2013-03-06 10:53:00,
2013-03-06 04:54:00,20.5,14.7,30.23,NNW,332,0.0,15.0,78,0.00,,OVC016,0.00,VWS V14.01,2013-03-06 10:54:00,
2013-03-06 04:55:00,20.5,14.7,30.23,NNW,334,3.0,15.0,78,0.00,,OVC016,0.00,VWS V14.01,2013-03-06 10:55:00,
2013-03-06 04:56:00,20.5,14.7,30.23,NNW,334,2.0,15.0,78,0.00,,OVC016,0.00,VWS V14.01,2013-03-06 10:56:00,
2013-03-06 04:57:00,20.5,14.7,30.23,North,7,4.0,15.0,78,0.00,,OVC016,0.00,VWS V14.01,2013-03-06 10:57:00,
2013-03-06 04:58:00,20.3,14.6,30.23,NNW,343,6.0,15.0,78,0.00,,OVC016,0.00,VWS V14.01,2013-03-06 10:58:00,
2013-03-06 04:59:00,20.3,14.6,30.23,NNE,12,7.0,15.0,78,0.00,,OVC016,0.00,VWS V14.01,2013-03-06 10:59:00,
2013-03-06 05:00:00,20.3,14.6,30.24,NE,38,8.0,15.0,78,0.00,,OVC016,0.00,VWS V14.01,2013-03-06 11:00:00,
2013-03-06 05:01:00,20.3,14.8,30.24,NNW,336,3.0,12.0,79,0.00,,OVC016,0.00,VWS V14.01,2013-03-06 11:01:00,
2013-03-06 05:02:00,20.2,14.7,30.24,North,360,12.0,12.0,79,0.00,,OVC016,0.00,VWS V14.01,2013-03-06 11:02:00,
2013-03-06 05:03:00,20.2,14.7,30.24,North,350,10.0,15.0,79,0.00,,OVC016,0.00,VWS V14.01,2013-03-06 11:03:00,
2013-03-06 05:04:00,20.2,14.7,30.24,NNW,345,3.0,15.0,79,0.00,,OVC016,0.00,VWS V14.01,2013-03-06 11:04:00,
2013-03-06 05:05:00,20.0,14.6,30.24,NNW,348,5.0,15.0,79,0.00,,OVC016,0.00,VWS V14.01,2013-03-06 11:05:00,
2013-03-06 05:06:00,20.0,14.6,30.24,North,355,8.0,15.0,79,0.00,,OVC016,0.00,VWS V14.01,2013-03-06 11:06:00,
2013-03-06 05:07:00,20.0,14.6,30.24,NNW,348,12.0,15.0,79,0.00,,OVC016,0.00,VWS V14.01,2013-03-06 11:07:00,
2013-03-06 05:08:00,20.0,14.6,30.24,NNE,33,10.0,15.0,79,0.00,,OVC016,0.00,VWS V14.01,2013-03-06 11:08:00,
2013-03-06 05:09:00,20.0,14.6,30.24,North,355,8.0,15.0,79,0.00,,OVC016,0.00,VWS V14.01,2013-03-06 11:09:00,
2013-03-06 05:10:00,20.0,14.6,30.24,NW,325,6.0,15.0,79,0.00,,OVC016,0.00,VWS V14.01,2013-03-06 11:10:00,
2013-03-06 05:11:00,19.9,14.4,30.24,NW,325,1.0,15.0,79,0.00,,OVC016,0.00,VWS V14.01,2013-03-06 11:11:00,
2013-03-06 05:12:00,19.9,14.4,30.24,NNE,14,8.0,15.0,79,0.00,,OVC016,0.00,VWS V14.01,2013-03-06 11:12:00,
2013-03-06 05:13:00,19.9,14.4,30.24,North,350,9.0,15.0,79,0.00,,OVC016,0.00,VWS V14.01,2013-03-06 11:13:00,
2013-03-06 05:14:00,19.9,14.4,30.24,NNW,339,7.0,15.0,79,0.00,,OVC016,0.00,VWS V14.01,2013-03-06 11:14:00,
2013-03-06 05:15:00,19.9,14.4,30.25,NW,325,5.0,15.0,79,0.00,,OVC016,0.00,VWS V14.01,2013-03-06 11:15:00,
2013-03-06 05:16:00,19.9,14.4,30.25,NNW,332,6.0,15.0,79,0.00,,OVC016,0.00,VWS V14.01,2013-03-06 11:16:00,
2013-03-06 05:17:00,19.9,14.4,30.25,NNW,338,5.0,15.0,79,0.00,,OVC016,0.00,VWS V14.01,2013-03-06 11:17:00,
2013-03-06 05:18:00,19.9,14.4,30.25,North,355,1.0,15.0,79,0.00,,OVC016,0.00,VWS V14.01,2013-03-06 11:18:00,
2013-03-06 05:19:00,19.9,14.4,30.25,North,353,3.0,15.0,79,0.00,,OVC016,0.00,VWS V14.01,2013-03-06 11:19:00,
2013-03-06 05:20:00,19.9,14.4,30.25,NNW,338,1.0,15.0,79,0.00,,OVC016,0.00,VWS V14.01,2013-03-06 11:20:00,
2013-03-06 05:21:00,19.9,14.4,30.25,NNW,339,4.0,15.0,79,0.00,,OVC016,0.00,VWS V14.01,2013-03-06 11:21:00,
2013-03-06 05:22:00,19.9,14.4,30.25,NNE,23,11.0,15.0,79,0.00,,OVC016,0.00,VWS V14.01,2013-03-06 11:22:00,
2013-03-06 05:23:00,19.9,14.4,30.25,NE,34,4.0,15.0,79,0.00,,OVC016,0.00,VWS V14.01,2013-03-06 11:23:00,
2013-03-06 05:24:00,19.9,14.4,30.25,North,5,6.0,15.0,79,0.00,,OVC016,0.00,VWS V14.01,2013-03-06 11:24:00,
2013-03-06 05:25:00,19.9,14.4,30.25,North,360,1.0,15.0,79,0.00,,OVC016,0.00,VWS V14.01,2013-03-06 11:25:00,
2013-03-06 05:26:00,19.9,14.4,30.25,North,349,5.0,15.0,79,0.00,,OVC016,0.00,VWS V14.01,2013-03-06 11:26:00,
2013-03-06 05:27:00,20.0,14.6,30.25,NNW,329,5.0,15.0,79,0.00,,OVC016,0.00,VWS V14.01,2013-03-06 11:27:00,
2013-03-06 05:28:00,20.0,14.6,30.25,NNE,29,7.0,15.0,79,0.00,,OVC016,0.00,VWS V14.01,2013-03-06 11:28:00,
2013-03-06 05:29:00,20.0,14.6,30.25,NNW,335,1.0,15.0,79,0.00,,OVC016,0.00,VWS V14.01,2013-03-06 11:29:00,
2013-03-06 05:30:00,20.0,14.6,30.25,NNW,342,5.0,15.0,79,0.00,,OVC016,0.00,VWS V14.01,2013-03-06 11:30:00,
2013-03-06 05:31:00,20.0,14.6,30.25,NNW,345,5.0,8.0,79,0.00,,OVC016,0.00,VWS V14.01,2013-03-06 11:31:00,
2013-03-06 05:32:00,20.0,14.6,30.25,NNW,345,3.0,8.0,79,0.00,,OVC016,0.00,VWS V14.01,2013-03-06 11:32:00,
2013-03-06 05:33:00,20.0,14.6,30.25,NNW,345,1.0,8.0,79,0.00,,OVC016,0.00,VWS V14.01,2013-03-06 11:33:00,
2013-03-06 05:34:00,20.0,14.6,30.25,NNW,345,2.0,8.0,79,0.00,,OVC016,0.00,VWS V14.01,2013-03-06 11:34:00,
2013-03-06 05:35:00,20.0,14.6,30.25,NNW,345,0.0,8.0,79,0.00,,OVC016,0.00,VWS V14.01,2013-03-06 11:35:00,
2013-03-06 05:36:00,20.0,14.6,30.25,NNW,341,3.0,8.0,79,0.00,,OVC016,0.00,VWS V14.01,2013-03-06 11:36:00,
2013-03-06 05:37:00,20.0,14.6,30.25,NNW,341,0.0,8.0,79,0.00,,OVC016,0.00,VWS V14.01,2013-03-06 11:37:00,
2013-03-06 05:38:00,20.0,14.6,30.25,NNW,343,3.0,8.0,79,0.00,,OVC016,0.00,VWS V14.01,2013-03-06 11:38:00,
2013-03-06 05:39:00,20.0,14.6,30.25,NNW,343,0.0,8.0,79,0.00,,OVC016,0.00,VWS V14.01,2013-03-06 11:39:00,
2013-03-06 05:40:00,20.0,14.6,30.25,NNW,343,3.0,8.0,79,0.00,,OVC016,0.00,VWS V14.01,2013-03-06 11:40:00,
2013-03-06 05:41:00,20.0,14.6,30.25,NNW,343,1.0,8.0,79,0.00,,OVC016,0.00,VWS V14.01,2013-03-06 11:41:00,
2013-03-06 05:42:00,20.0,14.6,30.25,NNW,343,2.0,8.0,79,0.00,,OVC016,0.00,VWS V14.01,2013-03-06 11:42:00,
2013-03-06 05:43:00,20.0,14.6,30.25,NNW,343,0.0,8.0,79,0.00,,OVC016,0.00,VWS V14.01,2013-03-06 11:43:00,
2013-03-06 05:44:00,20.0,14.6,30.25,NNW,342,1.0,8.0,79,0.00,,OVC016,0.00,VWS V14.01,2013-03-06 11:44:00,
2013-03-06 05:45:00,20.2,14.7,30.26,NNW,343,1.0,8.0,79,0.00,,OVC016,0.00,VWS V14.01,2013-03-06 11:45:00,
2013-03-06 05:46:00,20.2,14.7,30.26,NNW,343,2.0,8.0,79,0.00,,OVC016,0.00,VWS V14.01,2013-03-06 11:46:00,
2013-03-06 05:47:00,20.2,14.7,30.26,NNW,343,1.0,8.0,79,0.00,,OVC016,0.00,VWS V14.01,2013-03-06 11:47:00,
2013-03-06 05:48:00,20.2,14.7,30.26,NNW,343,0.0,8.0,79,0.00,,OVC016,0.00,VWS V14.01,2013-03-06 11:48:00,
2013-03-06 05:49:00,20.2,14.7,30.26,NNW,343,3.0,8.0,79,0.00,,OVC016,0.00,VWS V14.01,2013-03-06 11:49:00,
2013-03-06 05:50:00,20.2,14.7,30.26,NNW,343,6.0,8.0,79,0.00,,OVC016,0.00,VWS V14.01,2013-03-06 11:50:00,
2013-03-06 05:51:00,20.2,14.7,30.26,NNW,343,2.0,8.0,79,0.00,,OVC016,0.00,VWS V14.01,2013-03-06 11:51:00,
2013-03-06 05:52:00,20.2,14.7,30.26,NNW,342,0.0,8.0,79,0.00,,OVC016,0.00,VWS V14.01,2013-03-06 11:52:00,
2013-03-06 05:53:00,20.2,14.7,30.26,NNW,342,0.0,8.0,79,0.00,,OVC016,0.00,VWS V14.01,2013-03-06 11:53:00,
2013-03-06 05:54:00,20.2,14.7,30.26,NNW,343,0.0,8.0,79,0.00,,OVC016,0.00,VWS V14.01,2013-03-06 11:54:00,
2013-03-06 05:55:00,20.2,14.7,30.26,NNW,342,1.0,8.0,79,0.00,,OVC016,0.00,VWS V14.01,2013-03-06 11:55:00,
2013-03-06 05:56:00,20.2,14.7,30.26,NNW,343,3.0,8.0,79,0.00,,OVC016,0.00,VWS V14.01,2013-03-06 11:56:00,
2013-03-06 05:57:00,20.2,14.7,30.26,NNW,343,0.0,8.0,79,0.00,,OVC016,0.00,VWS V14.01,2013-03-06 11:57:00,
2013-03-06 05:58:00,20.2,14.7,30.26,NNW,343,5.0,8.0,79,0.00,,OVC016,0.00,VWS V14.01,2013-03-06 11:58:00,
2013-03-06 05:59:00,20.2,14.7,30.26,NNW,345,6.0,8.0,79,0.00,,OVC016,0.00,VWS V14.01,2013-03-06 11:59:00,
2013-03-06 06:00:00,20.2,14.7,30.26,NNW,345,0.0,8.0,79,0.00,,OVC016,0.00,VWS V14.01,2013-03-06 12:00:00,
2013-03-06 06:01:00,20.2,14.7,30.26,NNW,346,6.0,6.0,79,0.00,,OVC016,0.00,VWS V14.01,2013-03-06 12:01:00,
2013-03-06 06:02:00,20.2,14.7,30.26,NNW,346,5.0,6.0,79,0.00,,OVC016,0.00,VWS V14.01,2013-03-06 12:02:00,
2013-03-06 06:03:00,20.2,14.7,30.26,NW,311,1.0,7.0,79,0.00,,OVC016,0.00,VWS V14.01,2013-03-06 12:03:00,
2013-03-06 06:04:00,20.2,14.7,30.26,NW,307,5.0,7.0,79,0.00,,OVC016,0.00,VWS V14.01,2013-03-06 12:04:00,
2013-03-06 06:05:00,20.2,14.7,30.26,NW,314,6.0,7.0,79,0.00,,OVC016,0.00,VWS V14.01,2013-03-06 12:05:00,
2013-03-06 06:06:00,20.2,14.7,30.26,NW,317,0.0,7.0,79,0.00,,OVC016,0.00,VWS V14.01,2013-03-06 12:06:00,
2013-03-06 06:07:00,20.2,14.7,30.26,NW,317,5.0,7.0,79,0.00,,OVC016,0.00,VWS V14.01,2013-03-06 12:07:00,
2013-03-06 06:08:00,20.2,14.7,30.26,NNW,328,1.0,7.0,79,0.00,,OVC016,0.00,VWS V14.01,2013-03-06 12:08:00,
2013-03-06 06:09:00,20.3,14.8,30.26,NNW,334,8.0,10.0,79,0.00,,OVC016,0.00,VWS V14.01,2013-03-06 12:09:00,
2013-03-06 06:10:00,20.3,14.8,30.26,NNW,328,3.0,10.0,79,0.00,,OVC016,0.00,VWS V14.01,2013-03-06 12:10:00,
2013-03-06 06:11:00,20.3,14.6,30.26,NNW,328,3.0,10.0,78,0.00,,OVC016,0.00,VWS V14.01,2013-03-06 12:11:00,
2013-03-06 06:12:00,20.3,14.6,30.26,NNW,328,0.0,10.0,78,0.00,,OVC016,0.00,VWS V14.01,2013-03-06 12:12:00,
2013-03-06 06:13:00,20.3,14.6,30.26,NNE,16,6.0,10.0,78,0.00,,OVC016,0.00,VWS V14.01,2013-03-06 12:13:00,
2013-03-06 06:14:00,20.3,14.6,30.26,NNW,332,6.0,10.0,78,0.00,,OVC016,0.00,VWS V14.01,2013-03-06 12:14:00,
2013-03-06 06:15:00,20.5,14.7,30.26,NNE,22,6.0,12.0,78,0.00,,OVC016,0.00,VWS V14.01,2013-03-06 12:15:00,
2013-03-06 06:16:00,20.5,14.4,30.26,North,356,6.0,12.0,77,0.00,,OVC016,0.00,VWS V14.01,2013-03-06 12:16:00,
2013-03-06 06:17:00,20.5,14.4,30.26,North,352,2.0,12.0,77,0.00,,OVC016,0.00,VWS V14.01,2013-03-06 12:17:00,
2013-03-06 06:18:00,20.5,14.4,30.26,North,352,7.0,12.0,77,0.00,,OVC016,0.00,VWS V14.01,2013-03-06 12:18:00,
2013-03-06 06:19:00,20.5,14.4,30.26,North,350,2.0,12.0,77,0.00,,OVC016,0.00,VWS V14.01,2013-03-06 12:19:00,
2013-03-06 06:20:00,20.5,14.4,30.26,NE,40,14.0,14.0,77,0.00,,OVC016,0.00,VWS V14.01,2013-03-06 12:20:00,
2013-03-06 06:21:00,20.5,14.4,30.26,NE,37,2.0,14.0,77,0.00,,OVC016,0.00,VWS V14.01,2013-03-06 12:21:00,
2013-03-06 06:22:00,20.5,14.4,30.26,NNE,13,12.0,14.0,77,0.00,,OVC016,0.00,VWS V14.01,2013-03-06 12:22:00,
2013-03-06 06:23:00,20.5,14.4,30.26,North,350,7.0,14.0,77,0.00,,OVC016,0.00,VWS V14.01,2013-03-06 12:23:00,
2013-03-06 06:24:00,20.5,14.4,30.26,North,353,2.0,14.0,77,0.00,,OVC016,0.00,VWS V14.01,2013-03-06 12:24:00,
2013-03-06 06:25:00,20.5,14.4,30.26,North,359,4.0,14.0,77,0.00,,OVC016,0.00,VWS V14.01,2013-03-06 12:25:00,
2013-03-06 06:26:00,20.5,14.4,30.26,North,360,5.0,14.0,77,0.00,,OVC016,0.00,VWS V14.01,2013-03-06 12:26:00,
2013-03-06 06:27:00,20.5,14.4,30.26,North,360,0.0,14.0,77,0.00,,OVC016,0.00,VWS V14.01,2013-03-06 12:27:00,
2013-03-06 06:28:00,20.5,14.4,30.26,North,355,5.0,14.0,77,0.00,,OVC016,0.00,VWS V14.01,2013-03-06 12:28:00,
2013-03-06 06:29:00,20.5,14.4,30.26,North,355,0.0,14.0,77,0.00,,OVC016,0.00,VWS V14.01,2013-03-06 12:29:00,
2013-03-06 06:30:00,20.5,14.4,30.27,North,352,3.0,14.0,77,0.00,,OVC016,0.00,VWS V14.01,2013-03-06 12:30:00,
2013-03-06 06:31:00,20.5,14.4,30.27,NNW,343,6.0,7.0,77,0.00,,OVC016,0.00,VWS V14.01,2013-03-06 12:31:00,
2013-03-06 06:32:00,20.5,14.4,30.27,NNW,329,4.0,8.0,77,0.00,,OVC016,0.00,VWS V14.01,2013-03-06 12:32:00,
2013-03-06 06:33:00,20.5,14.4,30.27,NNW,339,3.0,8.0,77,0.00,,OVC016,0.00,VWS V14.01,2013-03-06 12:33:00,
2013-03-06 06:34:00,20.5,14.4,30.27,NNW,348,7.0,8.0,77,0.00,,OVC016,0.00,VWS V14.01,2013-03-06 12:34:00,
2013-03-06 06:35:00,20.5,14.4,30.27,NNW,348,6.0,8.0,77,0.00,,OVC016,0.00,VWS V14.01,2013-03-06 12:35:00,
2013-03-06 06:36:00,20.5,14.4,30.27,NNE,19,7.0,8.0,77,0.00,,OVC016,0.00,VWS V14.01,2013-03-06 12:36:00,
2013-03-06 06:37:00,20.5,14.7,30.27,North,2,7.0,8.0,78,0.00,,OVC016,0.00,VWS V14.01,2013-03-06 12:37:00,
2013-03-06 06:38:00,20.5,14.7,30.27,NNW,348,6.0,10.0,78,0.00,,OVC016,0.00,VWS V14.01,2013-03-06 12:38:00,
2013-03-06 06:39:00,20.5,14.4,30.27,North,356,7.0,10.0,77,0.00,,OVC016,0.00,VWS V14.01,2013-03-06 12:39:00,
2013-03-06 06:40:00,20.5,14.4,30.27,North,356,2.0,10.0,77,0.00,,OVC016,0.00,VWS V14.01,2013-03-06 12:40:00,
2013-03-06 06:41:00,20.5,14.4,30.27,North,356,4.0,10.0,77,0.00,,OVC016,0.00,VWS V14.01,2013-03-06 12:41:00,
2013-03-06 06:42:00,20.5,14.7,30.27,North,356,0.0,10.0,78,0.00,,OVC016,0.00,VWS V14.01,2013-03-06 12:42:00,
2013-03-06 06:43:00,20.5,14.7,30.27,North,352,3.0,10.0,78,0.00,,OVC022,0.00,VWS V14.01,2013-03-06 12:43:00,
2013-03-06 06:44:00,20.5,14.7,30.27,NW,318,1.0,10.0,78,0.00,,OVC022,0.00,VWS V14.01,2013-03-06 12:44:00,
2013-03-06 06:45:00,20.5,14.7,30.27,NW,318,1.0,10.0,78,0.00,,OVC022,0.00,VWS V14.01,2013-03-06 12:45:00,
2013-03-06 06:46:00,20.5,14.7,30.27,NW,318,3.0,10.0,78,0.00,,OVC022,0.00,VWS V14.01,2013-03-06 12:46:00,
2013-03-06 06:47:00,20.6,14.8,30.27,NW,318,3.0,10.0,78,0.00,,OVC022,0.00,VWS V14.01,2013-03-06 12:47:00,
2013-03-06 06:48:00,20.5,14.7,30.27,NW,319,2.0,10.0,78,0.00,,OVC022,0.00,VWS V14.01,2013-03-06 12:48:00,
2013-03-06 06:49:00,20.6,14.8,30.27,NNW,342,6.0,10.0,78,0.00,,OVC022,0.00,VWS V14.01,2013-03-06 12:49:00,
2013-03-06 06:50:00,20.6,14.8,30.27,NNW,336,1.0,10.0,78,0.00,,OVC022,0.00,VWS V14.01,2013-03-06 12:50:00,
2013-03-06 06:51:00,20.6,14.8,30.27,NNW,335,2.0,10.0,78,0.00,,OVC022,0.00,VWS V14.01,2013-03-06 12:51:00,
2013-03-06 06:52:00,20.6,14.8,30.27,NW,324,6.0,10.0,78,0.00,,OVC022,0.00,VWS V14.01,2013-03-06 12:52:00,
2013-03-06 06:53:00,20.6,14.8,30.27,NNW,343,7.0,10.0,78,0.00,,OVC022,0.00,VWS V14.01,2013-03-06 12:53:00,
2013-03-06 06:54:00,20.6,14.8,30.27,NNW,332,6.0,10.0,78,0.00,,OVC022,0.00,VWS V14.01,2013-03-06 12:54:00,
2013-03-06 06:55:00,20.6,14.6,30.27,NNW,332,5.0,10.0,77,0.00,,OVC022,0.00,VWS V14.01,2013-03-06 12:55:00,
2013-03-06 06:56:00,20.6,14.6,30.27,NNW,332,0.0,10.0,77,0.00,,OVC022,0.00,VWS V14.01,2013-03-06 12:56:00,
2013-03-06 06:57:00,20.6,14.6,30.27,NNW,332,5.0,10.0,77,0.00,,OVC022,0.00,VWS V14.01,2013-03-06 12:57:00,
2013-03-06 06:58:00,20.6,14.6,30.27,NNW,331,1.0,10.0,77,0.00,,OVC022,0.00,VWS V14.01,2013-03-06 12:58:00,
2013-03-06 06:59:00,20.6,14.6,30.27,NNW,332,2.0,10.0,77,0.00,,OVC022,0.00,VWS V14.01,2013-03-06 12:59:00,
2013-03-06 07:00:00,20.6,14.6,30.27,North,360,6.0,10.0,77,0.00,,OVC022,0.00,VWS V14.01,2013-03-06 13:00:00,
2013-03-06 07:01:00,20.6,14.6,30.27,North,7,7.0,7.0,77,0.00,,OVC022,0.00,VWS V14.01,2013-03-06 13:01:00,
2013-03-06 07:02:00,20.6,14.6,30.27,NNE,12,5.0,11.0,77,0.00,,OVC022,0.00,VWS V14.01,2013-03-06 13:02:00,
2013-03-06 07:03:00,20.6,14.6,30.27,North,5,8.0,11.0,77,0.00,,OVC022,0.00,VWS V14.01,2013-03-06 13:03:00,
2013-03-06 07:04:00,20.6,14.6,30.27,NNW,331,1.0,11.0,77,0.00,,OVC022,0.00,VWS V14.01,2013-03-06 13:04:00,
2013-03-06 07:05:00,20.6,14.6,30.27,NW,325,1.0,12.0,77,0.00,,OVC022,0.00,VWS V14.01,2013-03-06 13:05:00,
2013-03-06 07:06:00,20.6,14.6,30.27,NNE,16,8.0,12.0,77,0.00,,OVC022,0.00,VWS V14.01,2013-03-06 13:06:00,
2013-03-06 07:07:00,20.6,14.6,30.27,NW,307,4.0,12.0,77,0.00,,OVC022,0.00,VWS V14.01,2013-03-06 13:07:00,
2013-03-06 07:08:00,20.6,14.6,30.27,NNW,334,6.0,12.0,77,0.00,,OVC022,0.00,VWS V14.01,2013-03-06 13:08:00,
2013-03-06 07:09:00,20.6,14.6,30.27,North,349,10.0,12.0,77,0.00,,OVC022,0.00,VWS V14.01,2013-03-06 13:09:00,
2013-03-06 07:10:00,20.6,14.6,30.27,NNW,342,5.0,13.0,77,0.00,,OVC022,0.00,VWS V14.01,2013-03-06 13:10:00,
2013-03-06 07:11:00,20.6,14.6,30.27,North,9,11.0,13.0,77,0.00,,OVC022,0.00,VWS V14.01,2013-03-06 13:11:00,
2013-03-06 07:12:00,20.6,14.6,30.27,ENE,58,11.0,14.0,77,0.00,,OVC022,0.00,VWS V14.01,2013-03-06 13:12:00,
2013-03-06 07:13:00,20.6,14.6,30.27,NE,34,7.0,14.0,77,0.00,,OVC022,0.00,VWS V14.01,2013-03-06 13:13:00,
2013-03-06 07:14:00,20.6,14.6,30.27,NNW,334,7.0,14.0,77,0.00,,OVC022,0.00,VWS V14.01,2013-03-06 13:14:00,
2013-03-06 07:15:00,20.6,14.6,30.27,NNE,23,10.0,14.0,77,0.00,,OVC022,0.00,VWS V14.01,2013-03-06 13:15:00,
2013-03-06 07:16:00,20.6,14.6,30.27,North,359,6.0,14.0,77,0.00,,OVC022,0.00,VWS V14.01,2013-03-06 13:16:00,
2013-03-06 07:17:00,20.6,14.6,30.27,North,350,6.0,14.0,77,0.00,,OVC022,0.00,VWS V14.01,2013-03-06 13:17:00,
2013-03-06 07:18:00,20.6,14.6,30.27,North,5,7.0,14.0,77,0.00,,OVC022,0.00,VWS V14.01,2013-03-06 13:18:00,
2013-03-06 07:19:00,20.6,14.6,30.27,North,5,5.0,14.0,77,0.00,,OVC022,0.00,VWS V14.01,2013-03-06 13:19:00,
2013-03-06 07:20:00,20.6,14.6,30.27,North,5,4.0,14.0,77,0.00,,OVC022,0.00,VWS V14.01,2013-03-06 13:20:00,
2013-03-06 07:21:00,20.6,14.6,30.27,North,2,3.0,14.0,77,0.00,,OVC022,0.00,VWS V14.01,2013-03-06 13:21:00,
2013-03-06 07:22:00,20.6,14.6,30.27,North,5,5.0,14.0,77,0.00,,OVC022,0.00,VWS V14.01,2013-03-06 13:22:00,
2013-03-06 07:23:00,20.6,14.6,30.27,North,5,6.0,14.0,77,0.00,,OVC022,0.00,VWS V14.01,2013-03-06 13:23:00,
2013-03-06 07:24:00,20.6,14.8,30.27,North,6,6.0,14.0,78,0.00,,OVC022,0.00,VWS V14.01,2013-03-06 13:24:00,
2013-03-06 07:25:00,20.6,14.8,30.27,North,6,0.0,14.0,78,0.00,,OVC022,0.00,VWS V14.01,2013-03-06 13:25:00,
2013-03-06 07:26:00,20.6,14.8,30.27,North,6,2.0,14.0,78,0.00,,OVC022,0.00,VWS V14.01,2013-03-06 13:26:00,
2013-03-06 07:27:00,20.6,14.8,30.27,North,6,4.0,14.0,78,0.00,,OVC022,0.00,VWS V14.01,2013-03-06 13:27:00,
2013-03-06 07:28:00,20.6,14.8,30.27,North,6,3.0,14.0,78,0.00,,OVC022,0.00,VWS V14.01,2013-03-06 13:28:00,
2013-03-06 07:29:00,20.6,14.8,30.27,North,6,6.0,14.0,78,0.00,,OVC022,0.00,VWS V14.01,2013-03-06 13:29:00,
2013-03-06 07:30:00,20.8,15.0,30.27,North,9,10.0,14.0,78,0.00,,OVC022,0.00,VWS V14.01,2013-03-06 13:30:00,
2013-03-06 07:31:00,20.8,15.0,30.27,NNE,12,0.0,10.0,78,0.00,,OVC022,0.00,VWS V14.01,2013-03-06 13:31:00,
2013-03-06 07:32:00,20.8,15.0,30.27,NNE,13,7.0,10.0,78,0.00,,OVC022,0.00,VWS V14.01,2013-03-06 13:32:00,
2013-03-06 07:33:00,20.8,15.0,30.27,NNE,17,8.0,10.0,78,0.00,,OVC022,0.00,VWS V14.01,2013-03-06 13:33:00,
2013-03-06 07:34:00,20.8,15.0,30.27,NNE,22,5.0,10.0,78,0.00,,OVC022,0.00,VWS V14.01,2013-03-06 13:34:00,
2013-03-06 07:35:00,20.8,15.0,30.27,NNE,30,4.0,10.0,78,0.00,,OVC022,0.00,VWS V14.01,2013-03-06 13:35:00,
2013-03-06 07:36:00,20.8,15.0,30.27,NNE,27,4.0,10.0,78,0.00,,OVC022,0.00,VWS V14.01,2013-03-06 13:36:00,
2013-03-06 07:37:00,20.8,15.0,30.27,NNE,23,3.0,10.0,78,0.00,,OVC022,0.00,VWS V14.01,2013-03-06 13:37:00,
2013-03-06 07:38:00,20.8,15.0,30.27,NNE,20,1.0,10.0,78,0.00,,OVC022,0.00,VWS V14.01,2013-03-06 13:38:00,
2013-03-06 07:39:00,21.0,15.2,30.27,NNE,22,8.0,10.0,78,0.00,,OVC022,0.00,VWS V14.01,2013-03-06 13:39:00,
2013-03-06 07:40:00,21.0,15.2,30.27,NNE,23,7.0,10.0,78,0.00,,OVC022,0.00,VWS V14.01,2013-03-06 13:40:00,
2013-03-06 07:41:00,21.0,15.2,30.27,NNE,20,5.0,10.0,78,0.00,,OVC022,0.00,VWS V14.01,2013-03-06 13:41:00,
2013-03-06 07:42:00,21.0,15.2,30.27,NNE,24,9.0,10.0,78,0.00,,OVC022,0.00,VWS V14.01,2013-03-06 13:42:00,
2013-03-06 07:43:00,21.0,15.2,30.27,NNE,23,9.0,10.0,78,0.00,,OVC024,0.00,VWS V14.01,2013-03-06 13:43:00,
2013-03-06 07:44:00,21.0,14.9,30.27,NNE,23,6.0,10.0,77,0.00,,OVC024,0.00,VWS V14.01,2013-03-06 13:44:00,
2013-03-06 07:45:00,21.0,14.9,30.28,NNE,23,4.0,10.0,77,0.00,,OVC024,0.00,VWS V14.01,2013-03-06 13:45:00,
2013-03-06 07:46:00,21.0,14.9,30.28,NNE,12,5.0,10.0,77,0.00,,OVC024,0.00,VWS V14.01,2013-03-06 13:46:00,
2013-03-06 07:47:00,21.0,14.9,30.28,NNE,29,8.0,10.0,77,0.00,,OVC024,0.00,VWS V14.01,2013-03-06 13:47:00,
2013-03-06 07:48:00,21.0,14.9,30.28,NNE,19,2.0,10.0,77,0.00,,OVC024,0.00,VWS V14.01,2013-03-06 13:48:00,
2013-03-06 07:49:00,21.0,14.9,30.28,NNE,19,6.0,10.0,77,0.00,,OVC024,0.00,VWS V14.01,2013-03-06 13:49:00,
2013-03-06 07:50:00,21.0,14.9,30.28,NNE,16,6.0,10.0,77,0.00,,OVC024,0.00,VWS V14.01,2013-03-06 13:50:00,
2013-03-06 07:51:00,21.0,14.9,30.28,NNE,19,12.0,12.0,77,0.00,,OVC024,0.00,VWS V14.01,2013-03-06 13:51:00,
2013-03-06 07:52:00,21.0,14.9,30.28,NNE,29,6.0,12.0,77,0.00,,OVC024,0.00,VWS V14.01,2013-03-06 13:52:00,
2013-03-06 07:53:00,21.0,14.9,30.28,NNE,29,7.0,12.0,77,0.00,,OVC024,0.00,VWS V14.01,2013-03-06 13:53:00,
2013-03-06 07:54:00,21.0,14.9,30.28,NNE,16,0.0,12.0,77,0.00,,OVC024,0.00,VWS V14.01,2013-03-06 13:54:00,
2013-03-06 07:55:00,21.0,14.9,30.28,NNE,20,6.0,12.0,77,0.00,,OVC024,0.00,VWS V14.01,2013-03-06 13:55:00,
2013-03-06 07:56:00,21.0,14.9,30.28,NNE,20,5.0,12.0,77,0.00,,OVC024,0.00,VWS V14.01,2013-03-06 13:56:00,
2013-03-06 07:57:00,21.0,14.9,30.28,NNE,20,0.0,12.0,77,0.00,,OVC024,0.00,VWS V14.01,2013-03-06 13:57:00,
2013-03-06 07:58:00,21.0,14.9,30.28,NNE,14,6.0,12.0,77,0.00,,OVC024,0.00,VWS V14.01,2013-03-06 13:58:00,
2013-03-06 07:59:00,21.0,14.9,30.28,NNE,16,7.0,12.0,77,0.00,,OVC024,0.00,VWS V14.01,2013-03-06 13:59:00,
2013-03-06 08:00:00,21.1,15.0,30.28,NNE,33,7.0,12.0,77,0.00,,OVC024,0.00,VWS V14.01,2013-03-06 14:00:00,
2013-03-06 08:01:00,21.1,15.0,30.28,NNE,33,3.0,7.0,77,0.00,,OVC024,0.00,VWS V14.01,2013-03-06 14:01:00,
2013-03-06 08:02:00,21.1,15.0,30.28,NNE,20,5.0,9.0,77,0.00,,OVC024,0.00,VWS V14.01,2013-03-06 14:02:00,
2013-03-06 08:03:00,21.1,15.0,30.28,North,10,11.0,11.0,77,0.00,,OVC024,0.00,VWS V14.01,2013-03-06 14:03:00,
2013-03-06 08:04:00,21.1,15.0,30.28,NNE,33,7.0,11.0,77,0.00,,OVC024,0.00,VWS V14.01,2013-03-06 14:04:00,
2013-03-06 08:05:00,21.1,15.0,30.28,NNE,30,5.0,11.0,77,0.00,,OVC024,0.00,VWS V14.01,2013-03-06 14:05:00,
2013-03-06 08:06:00,21.1,14.7,30.28,NNE,30,5.0,11.0,76,0.00,,OVC024,0.00,VWS V14.01,2013-03-06 14:06:00,
2013-03-06 08:07:00,21.1,14.7,30.28,NNE,33,3.0,11.0,76,0.00,,OVC024,0.00,VWS V14.01,2013-03-06 14:07:00,
2013-03-06 08:08:00,21.1,14.7,30.28,NNE,29,11.0,11.0,76,0.00,,OVC024,0.00,VWS V14.01,2013-03-06 14:08:00,
2013-03-06 08:09:00,21.1,14.7,30.28,NE,54,11.0,11.0,76,0.00,,OVC024,0.00,VWS V14.01,2013-03-06 14:09:00,
2013-03-06 08:10:00,21.1,14.7,30.28,NNE,29,6.0,12.0,76,0.00,,OVC024,0.00,VWS V14.01,2013-03-06 14:10:00,
2013-03-06 08:11:00,21.1,14.7,30.28,NNE,30,10.0,12.0,76,0.00,,OVC024,0.00,VWS V14.01,2013-03-06 14:11:00,
2013-03-06 08:12:00,21.1,14.7,30.28,NNE,30,2.0,12.0,76,0.00,,OVC024,0.00,VWS V14.01,2013-03-06 14:12:00,
2013-03-06 08:13:00,21.1,14.7,30.28,NNE,30,1.0,12.0,76,0.00,,OVC024,0.00,VWS V14.01,2013-03-06 14:13:00,
2013-03-06 08:14:00,21.1,14.7,30.28,NNE,20,8.0,12.0,76,0.00,,OVC024,0.00,VWS V14.01,2013-03-06 14:14:00,
2013-03-06 08:15:00,21.1,14.7,30.28,NNE,26,10.0,12.0,76,0.00,,OVC024,0.00,VWS V14.01,2013-03-06 14:15:00,
2013-03-06 08:16:00,21.1,14.7,30.28,North,2,7.0,12.0,76,0.00,,OVC024,0.00,VWS V14.01,2013-03-06 14:16:00,
2013-03-06 08:17:00,21.1,14.7,30.28,NNE,23,8.0,12.0,76,0.00,,OVC024,0.00,VWS V14.01,2013-03-06 14:17:00,
2013-03-06 08:18:00,21.1,14.7,30.28,North,3,5.0,12.0,76,0.00,,OVC024,0.00,VWS V14.01,2013-03-06 14:18:00,
2013-03-06 08:19:00,21.1,14.7,30.28,North,5,5.0,12.0,76,0.00,,OVC024,0.00,VWS V14.01,2013-03-06 14:19:00,
2013-03-06 08:20:00,21.1,14.7,30.28,NE,41,1.0,12.0,76,0.00,,OVC024,0.00,VWS V14.01,2013-03-06 14:20:00,
2013-03-06 08:21:00,21.1,14.7,30.28,NE,43,7.0,12.0,76,0.00,,OVC024,0.00,VWS V14.01,2013-03-06 14:21:00,
2013-03-06 08:22:00,21.1,14.7,30.28,NNE,20,11.0,12.0,76,0.00,,OVC024,0.00,VWS V14.01,2013-03-06 14:22:00,
2013-03-06 08:23:00,21.1,14.7,30.28,NE,34,10.0,13.0,76,0.00,,OVC024,0.00,VWS V14.01,2013-03-06 14:23:00,
2013-03-06 08:24:00,21.1,14.7,30.28,North,7,6.0,13.0,76,0.00,,OVC024,0.00,VWS V14.01,2013-03-06 14:24:00,
2013-03-06 08:25:00,21.1,14.7,30.28,NNE,20,8.0,13.0,76,0.00,,OVC024,0.00,VWS V14.01,2013-03-06 14:25:00,
2013-03-06 08:26:00,21.3,14.9,30.28,NE,41,7.0,13.0,76,0.00,,OVC024,0.00,VWS V14.01,2013-03-06 14:26:00,
2013-03-06 08:27:00,21.3,14.9,30.28,NE,40,5.0,13.0,76,0.00,,OVC024,0.00,VWS V14.01,2013-03-06 14:27:00,
2013-03-06 08:28:00,21.3,14.9,30.28,NE,48,7.0,13.0,76,0.00,,OVC024,0.00,VWS V14.01,2013-03-06 14:28:00,
2013-03-06 08:29:00,21.3,14.9,30.28,NE,48,6.0,13.0,76,0.00,,OVC024,0.00,VWS V14.01,2013-03-06 14:29:00,
2013-03-06 08:30:00,21.3,14.9,30.28,NE,47,0.0,13.0,76,0.00,,OVC024,0.00,VWS V14.01,2013-03-06 14:30:00,
2013-03-06 08:31:00,21.4,15.0,30.28,NE,47,0.0,6.0,76,0.00,,OVC024,0.00,VWS V14.01,2013-03-06 14:31:00,
2013-03-06 08:32:00,21.4,15.0,30.28,NE,47,3.0,6.0,76,0.00,,OVC024,0.00,VWS V14.01,2013-03-06 14:32:00,
2013-03-06 08:33:00,21.4,15.0,30.28,NE,47,7.0,7.0,76,0.00,,OVC024,0.00,VWS V14.01,2013-03-06 14:33:00,
2013-03-06 08:34:00,21.4,15.0,30.28,NE,47,4.0,8.0,76,0.00,,OVC024,0.00,VWS V14.01,2013-03-06 14:34:00,
2013-03-06 08:35:00,21.4,15.0,30.28,NE,46,6.0,8.0,76,0.00,,OVC024,0.00,VWS V14.01,2013-03-06 14:35:00,
2013-03-06 08:36:00,21.6,15.2,30.28,NE,47,2.0,8.0,76,0.00,,OVC024,0.00,VWS V14.01,2013-03-06 14:36:00,
2013-03-06 08:37:00,21.6,15.2,30.28,NE,47,6.0,8.0,76,0.00,,OVC024,0.00,VWS V14.01,2013-03-06 14:37:00,
2013-03-06 08:38:00,21.6,15.2,30.28,NE,47,2.0,8.0,76,0.00,,OVC024,0.00,VWS V14.01,2013-03-06 14:38:00,
2013-03-06 08:39:00,21.6,15.2,30.28,NE,47,0.0,8.0,76,0.00,,OVC024,0.00,VWS V14.01,2013-03-06 14:39:00,
2013-03-06 08:40:00,21.8,15.4,30.28,NE,47,3.0,8.0,76,0.00,,OVC024,0.00,VWS V14.01,2013-03-06 14:40:00,
2013-03-06 08:41:00,21.8,15.4,30.28,NE,46,5.0,8.0,76,0.00,,OVC024,0.00,VWS V14.01,2013-03-06 14:41:00,
2013-03-06 08:42:00,21.8,15.1,30.28,NE,46,7.0,8.0,75,0.00,,OVC024,0.00,VWS V14.01,2013-03-06 14:42:00,
2013-03-06 08:43:00,21.8,15.1,30.28,NE,44,2.0,8.0,75,0.00,,OVC017,0.00,VWS V14.01,2013-03-06 14:43:00,
2013-03-06 08:44:00,21.8,15.1,30.28,NE,44,0.0,8.0,75,0.00,,OVC017,0.00,VWS V14.01,2013-03-06 14:44:00,
2013-03-06 08:45:00,21.8,15.1,30.28,NE,44,0.0,8.0,75,0.00,,OVC017,0.00,VWS V14.01,2013-03-06 14:45:00,
2013-03-06 08:46:00,21.9,15.2,30.28,NE,44,1.0,8.0,75,0.00,,OVC017,0.00,VWS V14.01,2013-03-06 14:46:00,
2013-03-06 08:47:00,21.9,15.2,30.28,NE,46,6.0,8.0,75,0.00,,OVC017,0.00,VWS V14.01,2013-03-06 14:47:00,
2013-03-06 08:48:00,21.9,15.2,30.28,NE,46,5.0,8.0,75,0.00,,OVC017,0.00,VWS V14.01,2013-03-06 14:48:00,
2013-03-06 08:49:00,21.9,15.2,30.28,NE,38,0.0,8.0,75,0.00,,OVC017,0.00,VWS V14.01,2013-03-06 14:49:00,
2013-03-06 08:50:00,21.9,15.2,30.28,NE,40,0.0,8.0,75,0.00,,OVC017,0.00,VWS V14.01,2013-03-06 14:50:00,
2013-03-06 08:51:00,21.9,15.2,30.28,NE,38,0.0,8.0,75,0.00,,OVC017,0.00,VWS V14.01,2013-03-06 14:51:00,
2013-03-06 08:52:00,21.9,15.2,30.28,NE,36,2.0,8.0,75,0.00,,OVC017,0.00,VWS V14.01,2013-03-06 14:52:00,
2013-03-06 08:53:00,21.9,15.2,30.28,NNE,29,5.0,8.0,75,0.00,,OVC017,0.00,VWS V14.01,2013-03-06 14:53:00,
2013-03-06 08:54:00,21.9,15.2,30.28,NNE,30,9.0,9.0,75,0.00,,OVC017,0.00,VWS V14.01,2013-03-06 14:54:00,
2013-03-06 08:55:00,22.1,15.4,30.28,NNE,30,7.0,9.0,75,0.00,,OVC017,0.00,VWS V14.01,2013-03-06 14:55:00,
2013-03-06 08:56:00,22.1,15.4,30.28,NNE,30,5.0,9.0,75,0.00,,OVC017,0.00,VWS V14.01,2013-03-06 14:56:00,
2013-03-06 08:57:00,22.1,15.4,30.28,NNE,30,1.0,9.0,75,0.00,,OVC017,0.00,VWS V14.01,2013-03-06 14:57:00,
2013-03-06 08:58:00,22.1,15.4,30.28,NE,34,7.0,9.0,75,0.00,,OVC017,0.00,VWS V14.01,2013-03-06 14:58:00,
2013-03-06 08:59:00,22.1,15.4,30.28,NE,38,5.0,10.0,75,0.00,,OVC017,0.00,VWS V14.01,2013-03-06 14:59:00,
2013-03-06 09:00:00,22.1,15.4,30.28,NE,38,0.0,10.0,75,0.00,,OVC017,0.00,VWS V14.01,2013-03-06 15:00:00,
2013-03-06 09:01:00,22.1,15.4,30.28,NE,38,5.0,6.0,75,0.00,,OVC017,0.00,VWS V14.01,2013-03-06 15:01:00,
2013-03-06 09:02:00,22.1,15.4,30.28,NNE,30,2.0,6.0,75,0.00,,OVC017,0.00,VWS V14.01,2013-03-06 15:02:00,
2013-03-06 09:03:00,22.1,15.1,30.28,NNE,30,0.0,6.0,74,0.00,,OVC017,0.00,VWS V14.01,2013-03-06 15:03:00,
2013-03-06 09:04:00,22.1,15.4,30.28,NNE,30,0.0,6.0,75,0.00,,OVC017,0.00,VWS V14.01,2013-03-06 15:04:00,
2013-03-06 09:05:00,22.1,15.4,30.28,NNE,30,1.0,6.0,75,0.00,,OVC017,0.00,VWS V14.01,2013-03-06 15:05:00,
2013-03-06 09:06:00,22.1,15.4,30.28,NNE,30,0.0,6.0,75,0.00,,OVC017,0.00,VWS V14.01,2013-03-06 15:06:00,
2013-03-06 09:07:00,22.2,15.5,30.28,NNE,30,0.0,6.0,75,0.00,,OVC017,0.00,VWS V14.01,2013-03-06 15:07:00,
2013-03-06 09:08:00,22.2,15.5,30.28,NNE,29,2.0,7.0,75,0.00,,OVC017,0.00,VWS V14.01,2013-03-06 15:08:00,
2013-03-06 09:09:00,22.2,15.5,30.28,NNE,26,7.0,7.0,75,0.00,,OVC017,0.00,VWS V14.01,2013-03-06 15:09:00,
2013-03-06 09:10:00,22.2,15.5,30.28,NNE,26,7.0,7.0,75,0.00,,OVC017,0.00,VWS V14.01,2013-03-06 15:10:00,
2013-03-06 09:11:00,22.2,15.5,30.28,North,358,7.0,10.0,75,0.00,,OVC017,0.00,VWS V14.01,2013-03-06 15:11:00,
2013-03-06 09:12:00,22.2,15.5,30.28,North,358,4.0,10.0,75,0.00,,OVC017,0.00,VWS V14.01,2013-03-06 15:12:00,
2013-03-06 09:13:00,22.2,15.5,30.28,North,358,5.0,10.0,75,0.00,,OVC017,0.00,VWS V14.01,2013-03-06 15:13:00,
2013-03-06 09:14:00,22.2,15.5,30.28,NE,43,8.0,11.0,75,0.00,,OVC017,0.00,VWS V14.01,2013-03-06 15:14:00,
2013-03-06 09:15:00,22.4,15.7,30.28,NNE,16,5.0,11.0,75,0.00,,OVC017,0.00,VWS V14.01,2013-03-06 15:15:00,
2013-03-06 09:16:00,22.4,15.7,30.28,NNE,26,10.0,11.0,75,0.00,,OVC017,0.00,VWS V14.01,2013-03-06 15:16:00,
2013-03-06 09:17:00,22.4,15.7,30.28,NNE,23,6.0,11.0,75,0.00,,OVC017,0.00,VWS V14.01,2013-03-06 15:17:00,
2013-03-06 09:18:00,22.4,15.7,30.28,North,352,6.0,11.0,75,0.00,,OVC017,0.00,VWS V14.01,2013-03-06 15:18:00,
2013-03-06 09:19:00,22.4,15.7,30.28,NNW,339,6.0,11.0,75,0.00,,OVC017,0.00,VWS V14.01,2013-03-06 15:19:00,
2013-03-06 09:20:00,22.2,15.5,30.28,NNW,339,0.0,11.0,75,0.00,,OVC017,0.00,VWS V14.01,2013-03-06 15:20:00,
2013-03-06 09:21:00,22.2,15.5,30.28,NNW,339,0.0,11.0,75,0.00,,OVC017,0.00,VWS V14.01,2013-03-06 15:21:00,
2013-03-06 09:22:00,22.2,15.5,30.28,NNE,14,7.0,11.0,75,0.00,,OVC017,0.00,VWS V14.01,2013-03-06 15:22:00,
2013-03-06 09:23:00,22.2,15.5,30.28,NNW,336,6.0,11.0,75,0.00,,OVC017,0.00,VWS V14.01,2013-03-06 15:23:00,
2013-03-06 09:24:00,22.2,15.5,30.28,North,356,6.0,11.0,75,0.00,,OVC017,0.00,VWS V14.01,2013-03-06 15:24:00,
2013-03-06 09:25:00,22.2,15.5,30.28,North,356,6.0,11.0,75,0.00,,OVC017,0.00,VWS V14.01,2013-03-06 15:25:00,
2013-03-06 09:26:00,22.2,15.5,30.28,North,359,3.0,11.0,75,0.00,,OVC017,0.00,VWS V14.01,2013-03-06 15:26:00,
2013-03-06 09:27:00,22.4,15.7,30.28,North,353,7.0,11.0,75,0.00,,OVC017,0.00,VWS V14.01,2013-03-06 15:27:00,
2013-03-06 09:28:00,22.4,15.7,30.28,NNW,332,5.0,11.0,75,0.00,,OVC017,0.00,VWS V14.01,2013-03-06 15:28:00,
2013-03-06 09:29:00,22.2,15.5,30.28,NNW,336,6.0,11.0,75,0.00,,OVC017,0.00,VWS V14.01,2013-03-06 15:29:00,
2013-03-06 09:30:00,22.2,15.5,30.28,North,353,11.0,11.0,75,0.00,,OVC017,0.00,VWS V14.01,2013-03-06 15:30:00,
2013-03-06 09:31:00,22.2,15.5,30.28,NNW,342,7.0,11.0,75,0.00,,OVC017,0.00,VWS V14.01,2013-03-06 15:31:00,
2013-03-06 09:32:00,22.2,15.2,30.28,NNW,342,7.0,11.0,74,0.00,,OVC017,0.00,VWS V14.01,2013-03-06 15:32:00,
2013-03-06 09:33:00,22.2,15.2,30.28,North,356,7.0,11.0,74,0.00,,OVC017,0.00,VWS V14.01,2013-03-06 15:33:00,
2013-03-06 09:34:00,22.2,15.2,30.28,North,3,9.0,11.0,74,0.00,,OVC017,0.00,VWS V14.01,2013-03-06 15:34:00,
2013-03-06 09:35:00,22.2,15.2,30.28,NW,319,0.0,11.0,74,0.00,,OVC017,0.00,VWS V14.01,2013-03-06 15:35:00,
2013-03-06 09:36:00,22.2,15.2,30.28,North,9,7.0,11.0,74,0.00,,OVC017,0.00,VWS V14.01,2013-03-06 15:36:00,
2013-03-06 09:37:00,22.2,15.2,30.28,North,349,6.0,11.0,74,0.00,,OVC017,0.00,VWS V14.01,2013-03-06 15:37:00,
2013-03-06 09:38:00,22.4,15.4,30.28,NE,36,9.0,12.0,74,0.00,,OVC017,0.00,VWS V14.01,2013-03-06 15:38:00,
2013-03-06 09:39:00,22.4,15.4,30.28,North,2,0.0,12.0,74,0.00,,OVC017,0.00,VWS V14.01,2013-03-06 15:39:00,
2013-03-06 09:40:00,22.4,15.4,30.28,NNW,345,7.0,12.0,74,0.00,,OVC017,0.00,VWS V14.01,2013-03-06 15:40:00,
2013-03-06 09:41:00,22.4,15.1,30.28,NNW,342,2.0,12.0,73,0.00,,OVC017,0.00,VWS V14.01,2013-03-06 15:41:00,
2013-03-06 09:42:00,22.4,15.1,30.28,NNE,20,7.0,12.0,73,0.00,,OVC017,0.00,VWS V14.01,2013-03-06 15:42:00,
2013-03-06 09:43:00,22.4,15.1,30.28,North,356,6.0,12.0,73,0.00,,OVC017,0.00,VWS V14.01,2013-03-06 15:43:00,
2013-03-06 09:44:00,22.2,14.9,30.28,NNW,335,6.0,12.0,73,0.00,,OVC017,0.00,VWS V14.01,2013-03-06 15:44:00,
2013-03-06 09:45:00,22.2,14.9,30.28,NW,326,0.0,12.0,73,0.00,,OVC017,0.00,VWS V14.01,2013-03-06 15:45:00,
2013-03-06 09:46:00,22.2,15.2,30.28,NNE,19,7.0,12.0,74,0.00,,OVC017,0.00,VWS V14.01,2013-03-06 15:46:00,
2013-03-06 09:47:00,22.4,15.4,30.28,NNE,26,8.0,12.0,74,0.00,,OVC017,0.00,VWS V14.01,2013-03-06 15:47:00,
2013-03-06 09:48:00,22.4,15.4,30.28,NE,41,8.0,12.0,74,0.00,,OVC017,0.00,VWS V14.01,2013-03-06 15:48:00,
2013-03-06 09:49:00,22.5,15.5,30.28,NNE,24,7.0,12.0,74,0.00,,OVC017,0.00,VWS V14.01,2013-03-06 15:49:00,
2013-03-06 09:50:00,22.5,15.5,30.28,NNW,345,1.0,12.0,74,0.00,,OVC017,0.00,VWS V14.01,2013-03-06 15:50:00,
2013-03-06 09:51:00,22.5,15.2,30.28,NNW,335,3.0,12.0,73,0.00,,OVC017,0.00,VWS V14.01,2013-03-06 15:51:00,
2013-03-06 09:52:00,22.7,15.4,30.28,NNE,20,8.0,12.0,73,0.00,,OVC017,0.00,VWS V14.01,2013-03-06 15:52:00,
2013-03-06 09:53:00,22.7,15.4,30.28,NE,41,8.0,12.0,73,0.00,,OVC017,0.00,VWS V14.01,2013-03-06 15:53:00,
2013-03-06 09:54:00,22.7,15.4,30.28,NNE,22,6.0,12.0,73,0.00,,OVC017,0.00,VWS V14.01,2013-03-06 15:54:00,
2013-03-06 09:55:00,22.9,15.6,30.28,NE,38,11.0,12.0,73,0.00,,OVC017,0.00,VWS V14.01,2013-03-06 15:55:00,
2013-03-06 09:56:00,22.9,15.6,30.28,NE,51,5.0,12.0,73,0.00,,OVC017,0.00,VWS V14.01,2013-03-06 15:56:00,
2013-03-06 09:57:00,22.9,15.6,30.28,NE,48,6.0,12.0,73,0.00,,OVC017,0.00,VWS V14.01,2013-03-06 15:57:00,
2013-03-06 09:58:00,23.0,15.6,30.28,NE,47,6.0,12.0,73,0.00,,OVC017,0.00,VWS V14.01,2013-03-06 15:58:00,
2013-03-06 09:59:00,23.0,15.6,30.28,NE,44,0.0,12.0,73,0.00,,OVC017,0.00,VWS V14.01,2013-03-06 15:59:00,
2013-03-06 10:00:00,23.2,15.5,30.27,NE,38,0.0,12.0,72,0.00,,OVC017,0.00,VWS V14.01,2013-03-06 16:00:00,
2013-03-06 10:01:00,23.2,15.5,30.27,NE,44,5.0,11.0,72,0.00,,OVC017,0.00,VWS V14.01,2013-03-06 16:01:00,
2013-03-06 10:02:00,23.2,15.5,30.27,NE,43,8.0,11.0,72,0.00,,OVC017,0.00,VWS V14.01,2013-03-06 16:02:00,
2013-03-06 10:03:00,23.2,15.5,30.27,NE,47,13.0,13.0,72,0.00,,OVC017,0.00,VWS V14.01,2013-03-06 16:03:00,
2013-03-06 10:04:00,23.2,15.2,30.27,NNE,24,7.0,13.0,71,0.00,,OVC017,0.00,VWS V14.01,2013-03-06 16:04:00,
2013-03-06 10:05:00,23.2,15.2,30.27,NNE,19,12.0,13.0,71,0.00,,OVC017,0.00,VWS V14.01,2013-03-06 16:05:00,
2013-03-06 10:06:00,23.2,15.2,30.27,NNE,20,5.0,13.0,71,0.00,,OVC017,0.00,VWS V14.01,2013-03-06 16:06:00,
2013-03-06 10:07:00,23.2,15.2,30.27,NNE,33,6.0,13.0,71,0.00,,OVC017,0.00,VWS V14.01,2013-03-06 16:07:00,
2013-03-06 10:08:00,23.3,15.6,30.27,NNE,20,5.0,13.0,72,0.00,,OVC017,0.00,VWS V14.01,2013-03-06 16:08:00,
2013-03-06 10:09:00,23.3,15.3,30.27,NNW,336,4.0,13.0,71,0.00,,OVC017,0.00,VWS V14.01,2013-03-06 16:09:00,
2013-03-06 10:10:00,23.3,15.3,30.27,NNW,332,6.0,13.0,71,0.00,,OVC017,0.00,VWS V14.01,2013-03-06 16:10:00,
2013-03-06 10:11:00,23.2,15.2,30.27,NNE,17,10.0,14.0,71,0.00,,OVC017,0.00,VWS V14.01,2013-03-06 16:11:00,
2013-03-06 10:12:00,23.2,15.2,30.27,NNE,27,6.0,14.0,71,0.00,,OVC017,0.00,VWS V14.01,2013-03-06 16:12:00,
2013-03-06 10:13:00,23.3,15.6,30.27,NE,47,11.0,14.0,72,0.00,,OVC017,0.00,VWS V14.01,2013-03-06 16:13:00,
2013-03-06 10:14:00,23.3,15.6,30.27,NE,46,3.0,14.0,72,0.00,,OVC017,0.00,VWS V14.01,2013-03-06 16:14:00,
2013-03-06 10:15:00,23.5,15.8,30.27,NE,44,8.0,14.0,72,0.00,,OVC017,0.00,VWS V14.01,2013-03-06 16:15:00,
2013-03-06 10:16:00,23.6,15.9,30.27,NNE,26,12.0,14.0,72,0.00,,OVC017,0.00,VWS V14.01,2013-03-06 16:16:00,
2013-03-06 10:17:00,23.6,15.6,30.27,NNE,16,7.0,14.0,71,0.00,,OVC017,0.00,VWS V14.01,2013-03-06 16:17:00,
2013-03-06 10:18:00,23.6,15.6,30.27,NNE,20,8.0,14.0,71,0.00,,OVC017,0.00,VWS V14.01,2013-03-06 16:18:00,
2013-03-06 10:19:00,23.6,15.6,30.27,NNE,20,5.0,14.0,71,0.00,,OVC017,0.00,VWS V14.01,2013-03-06 16:19:00,
2013-03-06 10:20:00,23.6,15.6,30.27,NNE,20,1.0,14.0,71,0.00,,OVC017,0.00,VWS V14.01,2013-03-06 16:20:00,
2013-03-06 10:21:00,23.8,15.8,30.27,NE,34,8.0,14.0,71,0.00,,OVC017,0.00,VWS V14.01,2013-03-06 16:21:00,
2013-03-06 10:22:00,23.8,15.8,30.27,NE,34,11.0,14.0,71,0.00,,OVC017,0.00,VWS V14.01,2013-03-06 16:22:00,
2013-03-06 10:23:00,23.8,15.5,30.27,NNE,26,7.0,14.0,70,0.00,,OVC017,0.00,VWS V14.01,2013-03-06 16:23:00,
2013-03-06 10:24:00,23.8,15.5,30.27,NNE,27,7.0,14.0,70,0.00,,OVC017,0.00,VWS V14.01,2013-03-06 16:24:00,
2013-03-06 10:25:00,23.8,15.5,30.27,NNE,14,7.0,14.0,70,0.00,,OVC017,0.00,VWS V14.01,2013-03-06 16:25:00,
2013-03-06 10:26:00,23.8,15.5,30.27,North,352,5.0,14.0,70,0.00,,OVC017,0.00,VWS V14.01,2013-03-06 16:26:00,
2013-03-06 10:27:00,23.8,15.5,30.27,North,350,1.0,14.0,70,0.00,,OVC017,0.00,VWS V14.01,2013-03-06 16:27:00,
2013-03-06 10:28:00,23.6,15.3,30.27,North,350,5.0,14.0,70,0.00,,OVC017,0.00,VWS V14.01,2013-03-06 16:28:00,
2013-03-06 10:29:00,23.6,15.6,30.27,NNE,30,12.0,14.0,71,0.00,,OVC017,0.00,VWS V14.01,2013-03-06 16:29:00,
2013-03-06 10:30:00,23.5,15.5,30.27,NNE,29,8.0,14.0,71,0.00,,OVC017,0.00,VWS V14.01,2013-03-06 16:30:00,
2013-03-06 10:31:00,23.5,15.8,30.27,North,5,5.0,9.0,72,0.00,,OVC017,0.00,VWS V14.01,2013-03-06 16:31:00,
2013-03-06 10:32:00,23.6,15.9,30.27,North,360,5.0,9.0,72,0.00,,OVC017,0.00,VWS V14.01,2013-03-06 16:32:00,
2013-03-06 10:33:00,23.6,15.9,30.27,NNE,33,9.0,11.0,72,0.00,,OVC017,0.00,VWS V14.01,2013-03-06 16:33:00,
2013-03-06 10:34:00,23.6,15.9,30.27,NE,46,7.0,12.0,72,0.00,,OVC017,0.00,VWS V14.01,2013-03-06 16:34:00,
2013-03-06 10:35:00,23.8,16.1,30.27,NE,37,7.0,12.0,72,0.00,,OVC017,0.00,VWS V14.01,2013-03-06 16:35:00,
2013-03-06 10:36:00,23.8,15.8,30.27,NNE,24,7.0,12.0,71,0.00,,OVC017,0.00,VWS V14.01,2013-03-06 16:36:00,
2013-03-06 10:37:00,23.8,15.8,30.27,NNE,24,2.0,12.0,71,0.00,,OVC017,0.00,VWS V14.01,2013-03-06 16:37:00,
2013-03-06 10:38:00,23.8,15.8,30.27,ENE,58,4.0,12.0,71,0.00,,OVC017,0.00,VWS V14.01,2013-03-06 16:38:00,
2013-03-06 10:39:00,23.9,15.9,30.27,NNE,17,7.0,12.0,71,0.00,,OVC017,0.00,VWS V14.01,2013-03-06 16:39:00,
2013-03-06 10:40:00,23.9,15.6,30.27,NNW,346,7.0,12.0,70,0.00,,OVC017,0.00,VWS V14.01,2013-03-06 16:40:00,
2013-03-06 10:41:00,23.8,15.1,30.27,NNW,345,3.0,12.0,69,0.00,,OVC017,0.00,VWS V14.01,2013-03-06 16:41:00,
2013-03-06 10:42:00,23.8,15.1,30.27,NNW,345,0.0,12.0,69,0.00,,OVC017,0.00,VWS V14.01,2013-03-06 16:42:00,
2013-03-06 10:43:00,23.8,15.5,30.27,NNW,345,1.0,12.0,70,0.00,,OVC019,0.00,VWS V14.01,2013-03-06 16:43:00,
2013-03-06 10:44:00,23.9,15.6,30.27,North,352,0.0,12.0,70,0.00,,OVC019,0.00,VWS V14.01,2013-03-06 16:44:00,
2013-03-06 10:45:00,23.9,15.6,30.27,North,352,1.0,12.0,70,0.00,,OVC019,0.00,VWS V14.01,2013-03-06 16:45:00,
2013-03-06 10:46:00,24.1,15.4,30.27,North,352,2.0,12.0,69,0.00,,OVC019,0.00,VWS V14.01,2013-03-06 16:46:00,
2013-03-06 10:47:00,24.1,15.8,30.27,NW,325,7.0,12.0,70,0.00,,OVC019,0.00,VWS V14.01,2013-03-06 16:47:00,
2013-03-06 10:48:00,23.9,15.2,30.27,NNW,329,7.0,12.0,69,0.00,,OVC019,0.00,VWS V14.01,2013-03-06 16:48:00,
2013-03-06 10:49:00,23.9,15.2,30.27,NNW,329,1.0,12.0,69,0.00,,OVC019,0.00,VWS V14.01,2013-03-06 16:49:00,
2013-03-06 10:50:00,23.9,15.6,30.27,NNE,16,3.0,12.0,70,0.00,,OVC019,0.00,VWS V14.01,2013-03-06 16:50:00,
2013-03-06 10:51:00,23.9,15.6,30.27,North,7,7.0,12.0,70,0.00,,OVC019,0.00,VWS V14.01,2013-03-06 16:51:00,
2013-03-06 10:52:00,24.1,15.8,30.27,NE,34,6.0,12.0,70,0.00,,OVC019,0.00,VWS V14.01,2013-03-06 16:52:00,
2013-03-06 10:53:00,24.1,15.8,30.27,NE,40,8.0,12.0,70,0.00,,OVC019,0.00,VWS V14.01,2013-03-06 16:53:00,
2013-03-06 10:54:00,24.2,15.8,30.27,NE,38,3.0,12.0,70,0.00,,OVC019,0.00,VWS V14.01,2013-03-06 16:54:00,
2013-03-06 10:55:00,24.2,15.8,30.27,NE,48,6.0,12.0,70,0.00,,OVC019,0.00,VWS V14.01,2013-03-06 16:55:00,
2013-03-06 10:56:00,24.4,15.7,30.27,NNE,23,3.0,12.0,69,0.00,,OVC019,0.00,VWS V14.01,2013-03-06 16:56:00,
2013-03-06 10:57:00,24.4,16.0,30.27,NE,34,11.0,12.0,70,0.00,,OVC019,0.00,VWS V14.01,2013-03-06 16:57:00,
2013-03-06 10:58:00,24.5,16.1,30.27,North,2,2.0,12.0,70,0.00,,OVC019,0.00,VWS V14.01,2013-03-06 16:58:00,
2013-03-06 10:59:00,24.5,15.8,30.27,NNW,331,6.0,12.0,69,0.00,,OVC019,0.00,VWS V14.01,2013-03-06 16:59:00,
2013-03-06 11:00:00,24.4,15.7,30.27,NW,326,4.0,12.0,69,0.00,,OVC019,0.00,VWS V14.01,2013-03-06 17:00:00,
2013-03-06 11:01:00,24.2,15.5,30.27,NW,326,1.0,5.0,69,0.00,,OVC019,0.00,VWS V14.01,2013-03-06 17:01:00,
2013-03-06 11:02:00,24.2,15.5,30.27,NNW,328,2.0,7.0,69,0.00,,OVC019,0.00,VWS V14.01,2013-03-06 17:02:00,
2013-03-06 11:03:00,24.2,15.5,30.27,NNW,328,0.0,7.0,69,0.00,,OVC019,0.00,VWS V14.01,2013-03-06 17:03:00,
2013-03-06 11:04:00,24.1,15.4,30.27,North,349,3.0,7.0,69,0.00,,OVC019,0.00,VWS V14.01,2013-03-06 17:04:00,
2013-03-06 11:05:00,24.2,15.8,30.27,NNW,348,7.0,7.0,70,0.00,,OVC019,0.00,VWS V14.01,2013-03-06 17:05:00,
2013-03-06 11:06:00,24.2,15.5,30.27,NNW,346,6.0,10.0,69,0.00,,OVC019,0.00,VWS V14.01,2013-03-06 17:06:00,
2013-03-06 11:07:00,24.2,15.5,30.27,NNE,17,6.0,10.0,69,0.00,,OVC019,0.00,VWS V14.01,2013-03-06 17:07:00,
2013-03-06 11:08:00,24.2,15.5,30.27,NNE,13,5.0,10.0,69,0.00,,OVC019,0.00,VWS V14.01,2013-03-06 17:08:00,
2013-03-06 11:09:00,24.4,16.0,30.27,NNE,12,1.0,10.0,70,0.00,,OVC019,0.00,VWS V14.01,2013-03-06 17:09:00,
2013-03-06 11:10:00,24.4,15.7,30.27,NNE,13,5.0,10.0,69,0.00,,OVC019,0.00,VWS V14.01,2013-03-06 17:10:00,
2013-03-06 11:11:00,24.5,15.8,30.27,NNE,14,2.0,10.0,69,0.00,,OVC019,0.00,VWS V14.01,2013-03-06 17:11:00,
2013-03-06 11:12:00,24.5,15.8,30.27,NNE,13,3.0,10.0,69,0.00,,OVC019,0.00,VWS V14.01,2013-03-06 17:12:00,
2013-03-06 11:13:00,24.7,16.0,30.27,North,3,5.0,10.0,69,0.00,,OVC019,0.00,VWS V14.01,2013-03-06 17:13:00,
2013-03-06 11:14:00,24.7,16.0,30.27,North,6,7.0,10.0,69,0.00,,OVC019,0.00,VWS V14.01,2013-03-06 17:14:00,
2013-03-06 11:15:00,24.7,16.0,30.27,North,5,6.0,12.0,69,0.00,,OVC019,0.00,VWS V14.01,2013-03-06 17:15:00,
2013-03-06 11:16:00,24.7,15.7,30.27,NNE,19,10.0,12.0,68,0.00,,OVC019,0.00,VWS V14.01,2013-03-06 17:16:00,
2013-03-06 11:17:00,24.7,16.0,30.27,NNE,20,4.0,12.0,69,0.00,,OVC019,0.00,VWS V14.01,2013-03-06 17:17:00,
2013-03-06 11:18:00,24.8,16.1,30.27,NNE,20,4.0,12.0,69,0.00,,OVC019,0.00,VWS V14.01,2013-03-06 17:18:00,
2013-03-06 11:19:00,24.8,16.1,30.27,NNW,336,4.0,12.0,69,0.00,,OVC019,0.00,VWS V14.01,2013-03-06 17:19:00,
2013-03-06 11:20:00,24.8,16.1,30.27,NNW,331,1.0,12.0,69,0.00,,OVC019,0.00,VWS V14.01,2013-03-06 17:20:00,
2013-03-06 11:21:00,24.8,16.1,30.27,NNW,331,0.0,12.0,69,0.00,,OVC019,0.00,VWS V14.01,2013-03-06 17:21:00,
2013-03-06 11:22:00,24.8,16.1,30.27,North,353,2.0,12.0,69,0.00,,OVC019,0.00,VWS V14.01,2013-03-06 17:22:00,
2013-03-06 11:23:00,25.0,16.6,30.27,NE,43,11.0,12.0,70,0.00,,OVC019,0.00,VWS V14.01,2013-03-06 17:23:00,
2013-03-06 11:24:00,25.0,16.6,30.27,NE,37,6.0,12.0,70,0.00,,OVC019,0.00,VWS V14.01,2013-03-06 17:24:00,
2013-03-06 11:25:00,25.1,16.7,30.27,WNW,298,1.0,12.0,70,0.00,,OVC019,0.00,VWS V14.01,2013-03-06 17:25:00,
2013-03-06 11:26:00,25.0,15.9,30.27,WNW,298,2.0,12.0,68,0.00,,OVC019,0.00,VWS V14.01,2013-03-06 17:26:00,
2013-03-06 11:27:00,24.8,15.8,30.27,WNW,300,7.0,12.0,68,0.00,,OVC019,0.00,VWS V14.01,2013-03-06 17:27:00,
2013-03-06 11:28:00,24.7,15.7,30.27,NNW,329,5.0,12.0,68,0.00,,OVC019,0.00,VWS V14.01,2013-03-06 17:28:00,
2013-03-06 11:29:00,24.7,16.0,30.27,NNW,329,2.0,12.0,69,0.00,,OVC019,0.00,VWS V14.01,2013-03-06 17:29:00,
2013-03-06 11:30:00,24.5,15.8,30.26,NNW,329,0.0,12.0,69,0.00,,OVC019,0.00,VWS V14.01,2013-03-06 17:30:00,
2013-03-06 11:31:00,24.5,15.5,30.26,NNW,329,5.0,5.0,68,0.00,,OVC019,0.00,VWS V14.01,2013-03-06 17:31:00,
2013-03-06 11:32:00,24.5,15.8,30.26,NNE,33,2.0,7.0,69,0.00,,OVC019,0.00,VWS V14.01,2013-03-06 17:32:00,
2013-03-06 11:33:00,24.5,16.1,30.26,NE,48,6.0,8.0,70,0.00,,OVC019,0.00,VWS V14.01,2013-03-06 17:33:00,
2013-03-06 11:34:00,24.7,16.6,30.26,NE,47,7.0,8.0,71,0.00,,OVC019,0.00,VWS V14.01,2013-03-06 17:34:00,
2013-03-06 11:35:00,24.7,16.3,30.26,NNE,16,9.0,9.0,70,0.00,,OVC019,0.00,VWS V14.01,2013-03-06 17:35:00,
2013-03-06 11:36:00,24.8,16.1,30.26,NNE,17,8.0,10.0,69,0.00,,OVC019,0.00,VWS V14.01,2013-03-06 17:36:00,
2013-03-06 11:37:00,24.8,16.1,30.26,NNE,17,2.0,10.0,69,0.00,,OVC019,0.00,VWS V14.01,2013-03-06 17:37:00,
2013-03-06 11:38:00,25.0,16.3,30.26,NNE,30,5.0,10.0,69,0.00,,OVC019,0.00,VWS V14.01,2013-03-06 17:38:00,
2013-03-06 11:39:00,25.1,16.4,30.26,NNE,30,4.0,10.0,69,0.00,,OVC019,0.00,VWS V14.01,2013-03-06 17:39:00,
2013-03-06 11:40:00,25.1,16.4,30.26,NNE,23,3.0,10.0,69,0.00,,OVC019,0.00,VWS V14.01,2013-03-06 17:40:00,
2013-03-06 11:41:00,25.1,16.0,30.26,NNE,16,0.0,10.0,68,0.00,,OVC019,0.00,VWS V14.01,2013-03-06 17:41:00,
2013-03-06 11:42:00,25.0,15.9,30.26,NNE,13,0.0,10.0,68,0.00,,OVC019,0.00,VWS V14.01,2013-03-06 17:42:00,
2013-03-06 11:43:00,25.0,15.9,30.26,North,10,1.0,10.0,68,0.00,,OVC021,0.00,VWS V14.01,2013-03-06 17:43:00,
2013-03-06 11:44:00,25.0,15.9,30.26,North,349,1.0,10.0,68,0.00,,OVC021,0.00,VWS V14.01,2013-03-06 17:44:00,
2013-03-06 11:45:00,24.8,15.8,30.26,NNW,339,2.0,10.0,68,0.00,,OVC021,0.00,VWS V14.01,2013-03-06 17:45:00,
2013-03-06 11:46:00,24.8,15.8,30.26,NNW,341,6.0,10.0,68,0.00,,OVC021,0.00,VWS V14.01,2013-03-06 17:46:00,
2013-03-06 11:47:00,24.8,15.8,30.26,North,352,5.0,10.0,68,0.00,,OVC021,0.00,VWS V14.01,2013-03-06 17:47:00,
2013-03-06 11:48:00,24.8,15.8,30.26,North,352,5.0,10.0,68,0.00,,OVC021,0.00,VWS V14.01,2013-03-06 17:48:00,
2013-03-06 11:49:00,24.8,15.8,30.26,North,352,0.0,10.0,68,0.00,,OVC021,0.00,VWS V14.01,2013-03-06 17:49:00,
2013-03-06 11:50:00,25.0,15.9,30.26,North,352,0.0,10.0,68,0.00,,OVC021,0.00,VWS V14.01,2013-03-06 17:50:00,
2013-03-06 11:51:00,25.0,15.9,30.26,North,350,0.0,10.0,68,0.00,,OVC021,0.00,VWS V14.01,2013-03-06 17:51:00,
2013-03-06 11:52:00,25.0,15.6,30.26,North,350,0.0,10.0,67,0.00,,OVC021,0.00,VWS V14.01,2013-03-06 17:52:00,
2013-03-06 11:53:00,25.0,15.6,30.26,North,350,0.0,10.0,67,0.00,,OVC021,0.00,VWS V14.01,2013-03-06 17:53:00,
2013-03-06 11:54:00,25.0,15.9,30.26,North,350,2.0,10.0,68,0.00,,OVC021,0.00,VWS V14.01,2013-03-06 17:54:00,
2013-03-06 11:55:00,25.1,16.4,30.26,North,350,2.0,10.0,69,0.00,,OVC021,0.00,VWS V14.01,2013-03-06 17:55:00,
2013-03-06 11:56:00,25.1,16.0,30.26,North,349,0.0,10.0,68,0.00,,OVC021,0.00,VWS V14.01,2013-03-06 17:56:00,
2013-03-06 11:57:00,25.3,16.2,30.26,North,349,0.0,10.0,68,0.00,,OVC021,0.00,VWS V14.01,2013-03-06 17:57:00,
2013-03-06 11:58:00,25.3,16.2,30.26,North,349,0.0,10.0,68,0.00,,OVC021,0.00,VWS V14.01,2013-03-06 17:58:00,
2013-03-06 11:59:00,25.4,16.3,30.26,North,349,0.0,10.0,68,0.00,,OVC021,0.00,VWS V14.01,2013-03-06 17:59:00,
2013-03-06 12:00:00,25.6,16.9,30.26,North,350,0.0,10.0,69,0.00,,OVC021,0.00,VWS V14.01,2013-03-06 18:00:00,
2013-03-06 12:01:00,25.6,16.2,30.26,NW,322,1.0,2.0,67,0.00,,OVC021,0.00,VWS V14.01,2013-03-06 18:01:00,
2013-03-06 12:02:00,25.4,15.6,30.26,NW,317,1.0,3.0,66,0.00,,OVC021,0.00,VWS V14.01,2013-03-06 18:02:00,
2013-03-06 12:03:00,25.3,15.9,30.26,NW,308,0.0,3.0,67,0.00,,OVC021,0.00,VWS V14.01,2013-03-06 18:03:00,
2013-03-06 12:04:00,25.1,15.7,30.26,NW,310,6.0,7.0,67,0.00,,OVC021,0.00,VWS V14.01,2013-03-06 18:04:00,
2013-03-06 12:05:00,25.1,16.0,30.26,NW,310,0.0,7.0,68,0.00,,OVC021,0.00,VWS V14.01,2013-03-06 18:05:00,
2013-03-06 12:06:00,25.1,16.0,30.26,NNE,13,9.0,9.0,68,0.00,,OVC021,0.00,VWS V14.01,2013-03-06 18:06:00,
2013-03-06 12:07:00,25.1,16.0,30.26,NW,314,2.0,10.0,68,0.00,,OVC021,0.00,VWS V14.01,2013-03-06 18:07:00,
2013-03-06 12:08:00,25.1,15.7,30.26,NW,317,6.0,10.0,67,0.00,,OVC021,0.00,VWS V14.01,2013-03-06 18:08:00,
2013-03-06 12:09:00,25.1,15.7,30.26,NW,317,3.0,10.0,67,0.00,,OVC021,0.00,VWS V14.01,2013-03-06 18:09:00,
2013-03-06 12:10:00,25.1,15.7,30.26,NW,312,0.0,10.0,67,0.00,,OVC021,0.00,VWS V14.01,2013-03-06 18:10:00,
2013-03-06 12:11:00,25.1,15.7,30.26,NW,314,0.0,10.0,67,0.00,,OVC021,0.00,VWS V14.01,2013-03-06 18:11:00,
2013-03-06 12:12:00,25.1,16.0,30.26,NNW,331,7.0,10.0,68,0.00,,OVC021,0.00,VWS V14.01,2013-03-06 18:12:00,
2013-03-06 12:13:00,25.3,15.9,30.26,North,349,5.0,10.0,67,0.00,,OVC021,0.00,VWS V14.01,2013-03-06 18:13:00,
2013-03-06 12:14:00,25.3,15.9,30.26,North,349,4.0,10.0,67,0.00,,OVC021,0.00,VWS V14.01,2013-03-06 18:14:00,
2013-03-06 12:15:00,25.4,16.0,30.26,North,349,2.0,10.0,67,0.00,,OVC021,0.00,VWS V14.01,2013-03-06 18:15:00,
2013-03-06 12:16:00,25.6,16.5,30.26,North,349,4.0,10.0,68,0.00,,OVC021,0.00,VWS V14.01,2013-03-06 18:16:00,
2013-03-06 12:17:00,25.6,16.2,30.26,North,349,0.0,10.0,67,0.00,,OVC021,0.00,VWS V14.01,2013-03-06 18:17:00,
2013-03-06 12:18:00,25.7,15.9,30.26,NNW,342,6.0,10.0,66,0.00,,OVC021,0.00,VWS V14.01,2013-03-06 18:18:00,
2013-03-06 12:19:00,25.7,16.3,30.26,North,355,8.0,10.0,67,0.00,,OVC021,0.00,VWS V14.01,2013-03-06 18:19:00,
2013-03-06 12:20:00,25.7,15.9,30.26,NNE,14,9.0,10.0,66,0.00,,OVC021,0.00,VWS V14.01,2013-03-06 18:20:00,
2013-03-06 12:21:00,25.7,16.3,30.26,NNE,17,6.0,10.0,67,0.00,,OVC021,0.00,VWS V14.01,2013-03-06 18:21:00,
2013-03-06 12:22:00,25.8,16.4,30.26,North,358,2.0,10.0,67,0.00,,OVC021,0.00,VWS V14.01,2013-03-06 18:22:00,
2013-03-06 12:23:00,25.7,15.9,30.26,North,349,1.0,10.0,66,0.00,,OVC021,0.00,VWS V14.01,2013-03-06 18:23:00,
2013-03-06 12:24:00,25.7,15.9,30.26,North,349,1.0,10.0,66,0.00,,OVC021,0.00,VWS V14.01,2013-03-06 18:24:00,
2013-03-06 12:25:00,25.7,15.9,30.26,North,349,0.0,10.0,66,0.00,,OVC021,0.00,VWS V14.01,2013-03-06 18:25:00,
2013-03-06 12:26:00,25.7,15.9,30.26,NNW,345,2.0,10.0,66,0.00,,OVC021,0.00,VWS V14.01,2013-03-06 18:26:00,
2013-03-06 12:27:00,25.7,15.9,30.26,NNW,339,3.0,10.0,66,0.00,,OVC021,0.00,VWS V14.01,2013-03-06 18:27:00,
2013-03-06 12:28:00,25.6,15.8,30.26,NNW,339,3.0,10.0,66,0.00,,OVC021,0.00,VWS V14.01,2013-03-06 18:28:00,
2013-03-06 12:29:00,25.6,16.2,30.26,NNW,339,3.0,10.0,67,0.00,,OVC021,0.00,VWS V14.01,2013-03-06 18:29:00,
2013-03-06 12:30:00,25.6,16.2,30.25,WNW,300,1.0,10.0,67,0.00,,OVC021,0.00,VWS V14.01,2013-03-06 18:30:00,
2013-03-06 12:31:00,25.4,15.6,30.25,WNW,300,1.0,4.0,66,0.00,,OVC021,0.00,VWS V14.01,2013-03-06 18:31:00,
2013-03-06 12:32:00,25.3,15.6,30.25,WNW,300,2.0,4.0,66,0.00,,OVC021,0.00,VWS V14.01,2013-03-06 18:32:00,
2013-03-06 12:33:00,25.1,15.7,30.25,WNW,300,1.0,4.0,67,0.00,,OVC021,0.00,VWS V14.01,2013-03-06 18:33:00,
2013-03-06 12:34:00,25.1,15.7,30.25,WNW,300,2.0,4.0,67,0.00,,OVC021,0.00,VWS V14.01,2013-03-06 18:34:00,
2013-03-06 12:35:00,25.1,16.0,30.25,WNW,300,2.0,4.0,68,0.00,,OVC021,0.00,VWS V14.01,2013-03-06 18:35:00,
2013-03-06 12:36:00,25.1,16.0,30.25,WNW,295,0.0,4.0,68,0.00,,OVC021,0.00,VWS V14.01,2013-03-06 18:36:00,
2013-03-06 12:37:00,25.0,15.9,30.25,WNW,295,2.0,4.0,68,0.00,,OVC021,0.00,VWS V14.01,2013-03-06 18:37:00,
2013-03-06 12:38:00,25.1,16.0,30.25,NW,312,2.0,6.0,68,0.00,,OVC021,0.00,VWS V14.01,2013-03-06 18:38:00,
2013-03-06 12:39:00,25.3,16.2,30.25,NW,312,0.0,6.0,68,0.00,,OVC021,0.00,VWS V14.01,2013-03-06 18:39:00,
2013-03-06 12:40:00,25.4,16.7,30.25,NW,312,0.0,6.0,69,0.00,,OVC021,0.00,VWS V14.01,2013-03-06 18:40:00,
2013-03-06 12:41:00,25.6,16.5,30.25,West,280,2.0,6.0,68,0.00,,OVC021,0.00,VWS V14.01,2013-03-06 18:41:00,
2013-03-06 12:42:00,25.6,16.2,30.25,WNW,284,4.0,6.0,67,0.00,,OVC021,0.00,VWS V14.01,2013-03-06 18:42:00,
2013-03-06 12:43:00,25.6,16.2,30.25,WNW,284,0.0,6.0,67,0.00,,OVC021,0.00,VWS V14.01,2013-03-06 18:43:00,
2013-03-06 12:44:00,25.6,16.2,30.25,West,270,1.0,6.0,67,0.00,,OVC021,0.00,VWS V14.01,2013-03-06 18:44:00,
2013-03-06 12:45:00,25.4,16.0,30.24,West,271,0.0,6.0,67,0.00,,OVC021,0.00,VWS V14.01,2013-03-06 18:45:00,
2013-03-06 12:46:00,25.3,15.9,30.24,West,270,1.0,6.0,67,0.00,,OVC021,0.00,VWS V14.01,2013-03-06 18:46:00,
2013-03-06 12:47:00,25.1,15.7,30.24,West,270,0.0,6.0,67,0.00,,OVC021,0.00,VWS V14.01,2013-03-06 18:47:00,
2013-03-06 12:48:00,25.1,15.7,30.24,West,270,0.0,6.0,67,0.00,,OVC021,0.00,VWS V14.01,2013-03-06 18:48:00,
2013-03-06 12:49:00,25.1,16.0,30.24,West,270,1.0,6.0,68,0.00,,OVC021,0.00,VWS V14.01,2013-03-06 18:49:00,
2013-03-06 12:50:00,25.1,16.0,30.24,West,271,0.0,6.0,68,0.00,,OVC021,0.00,VWS V14.01,2013-03-06 18:50:00,
2013-03-06 12:51:00,25.3,16.2,30.24,West,276,1.0,6.0,68,0.00,,OVC021,0.00,VWS V14.01,2013-03-06 18:51:00,
2013-03-06 12:52:00,25.3,15.9,30.24,WNW,295,5.0,7.0,67,0.00,,OVC021,0.00,VWS V14.01,2013-03-06 18:52:00,
2013-03-06 12:53:00,25.4,16.0,30.24,WNW,295,1.0,7.0,67,0.00,,OVC021,0.00,VWS V14.01,2013-03-06 18:53:00,
2013-03-06 12:54:00,25.4,16.0,30.24,WNW,295,2.0,7.0,67,0.00,,OVC021,0.00,VWS V14.01,2013-03-06 18:54:00,
2013-03-06 12:55:00,25.3,15.9,30.24,WNW,297,3.0,7.0,67,0.00,,OVC021,0.00,VWS V14.01,2013-03-06 18:55:00,
2013-03-06 12:56:00,25.3,16.2,30.24,WNW,295,0.0,7.0,68,0.00,,OVC021,0.00,VWS V14.01,2013-03-06 18:56:00,
2013-03-06 12:57:00,25.3,15.9,30.24,WNW,291,1.0,7.0,67,0.00,,OVC021,0.00,VWS V14.01,2013-03-06 18:57:00,
2013-03-06 12:58:00,25.3,15.6,30.24,WNW,291,0.0,7.0,66,0.00,,OVC021,0.00,VWS V14.01,2013-03-06 18:58:00,
2013-03-06 12:59:00,25.3,15.6,30.24,WNW,291,2.0,7.0,66,0.00,,OVC021,0.00,VWS V14.01,2013-03-06 18:59:00,
2013-03-06 13:00:00,25.3,15.9,30.24,WNW,288,3.0,7.0,67,0.00,,OVC021,0.00,VWS V14.01,2013-03-06 19:00:00,
2013-03-06 13:01:00,25.3,15.9,30.24,West,278,2.0,5.0,67,0.00,,OVC021,0.00,VWS V14.01,2013-03-06 19:01:00,
2013-03-06 13:02:00,25.3,16.2,30.24,WNW,298,7.0,7.0,68,0.00,,OVC021,0.00,VWS V14.01,2013-03-06 19:02:00,
2013-03-06 13:03:00,25.4,16.3,30.24,NW,310,6.0,8.0,68,0.00,,OVC021,0.00,VWS V14.01,2013-03-06 19:03:00,
2013-03-06 13:04:00,25.4,16.0,30.24,NW,307,3.0,8.0,67,0.00,,OVC021,0.00,VWS V14.01,2013-03-06 19:04:00,
2013-03-06 13:05:00,25.4,16.0,30.24,WNW,301,3.0,8.0,67,0.00,,OVC021,0.00,VWS V14.01,2013-03-06 19:05:00,
2013-03-06 13:06:00,25.4,16.0,30.24,WNW,294,3.0,8.0,67,0.00,,OVC021,0.00,VWS V14.01,2013-03-06 19:06:00,
2013-03-06 13:07:00,25.3,15.9,30.24,WNW,288,1.0,8.0,67,0.00,,OVC021,0.00,VWS V14.01,2013-03-06 19:07:00,
2013-03-06 13:08:00,25.4,16.0,30.24,WNW,294,6.0,8.0,67,0.00,,OVC021,0.00,VWS V14.01,2013-03-06 19:08:00,
2013-03-06 13:09:00,25.4,16.3,30.24,NNW,335,3.0,8.0,68,0.00,,OVC021,0.00,VWS V14.01,2013-03-06 19:09:00,
2013-03-06 13:10:00,25.6,16.5,30.24,NW,322,2.0,8.0,68,0.00,,OVC021,0.00,VWS V14.01,2013-03-06 19:10:00,
2013-03-06 13:11:00,25.6,16.5,30.24,NW,322,1.0,8.0,68,0.00,,OVC021,0.00,VWS V14.01,2013-03-06 19:11:00,
2013-03-06 13:12:00,25.7,16.3,30.24,NW,324,6.0,8.0,67,0.00,,OVC021,0.00,VWS V14.01,2013-03-06 19:12:00,
2013-03-06 13:13:00,25.8,16.4,30.24,NW,324,0.0,8.0,67,0.00,,OVC021,0.00,VWS V14.01,2013-03-06 19:13:00,
2013-03-06 13:14:00,26.0,16.9,30.24,NW,324,0.0,8.0,68,0.00,,OVC021,0.00,VWS V14.01,2013-03-06 19:14:00,
2013-03-06 13:15:00,26.0,16.6,30.23,NW,321,0.0,8.0,67,0.00,,OVC021,0.00,VWS V14.01,2013-03-06 19:15:00,
2013-03-06 13:16:00,26.1,16.3,30.23,NW,318,1.0,8.0,66,0.00,,OVC021,0.00,VWS V14.01,2013-03-06 19:16:00,
2013-03-06 13:17:00,26.0,16.2,30.23,NW,318,0.0,8.0,66,0.00,,OVC021,0.00,VWS V14.01,2013-03-06 19:17:00,
2013-03-06 13:18:00,26.0,16.6,30.23,NW,319,0.0,8.0,67,0.00,,OVC021,0.00,VWS V14.01,2013-03-06 19:18:00,
2013-03-06 13:19:00,26.0,16.6,30.23,NW,319,3.0,8.0,67,0.00,,OVC021,0.00,VWS V14.01,2013-03-06 19:19:00,
2013-03-06 13:20:00,26.1,16.7,30.23,NW,319,0.0,8.0,67,0.00,,OVC021,0.00,VWS V14.01,2013-03-06 19:20:00,
2013-03-06 13:21:00,26.1,16.3,30.23,NW,319,3.0,8.0,66,0.00,,OVC021,0.00,VWS V14.01,2013-03-06 19:21:00,
2013-03-06 13:22:00,26.3,16.5,30.23,NW,322,2.0,8.0,66,0.00,,OVC021,0.00,VWS V14.01,2013-03-06 19:22:00,
2013-03-06 13:23:00,26.4,16.6,30.23,NW,322,0.0,8.0,66,0.00,,OVC021,0.00,VWS V14.01,2013-03-06 19:23:00,
2013-03-06 13:24:00,26.6,16.8,30.23,NW,322,1.0,8.0,66,0.00,,OVC021,0.00,VWS V14.01,2013-03-06 19:24:00,
2013-03-06 13:25:00,26.6,16.4,30.23,NW,308,1.0,8.0,65,0.00,,OVC021,0.00,VWS V14.01,2013-03-06 19:25:00,
2013-03-06 13:26:00,26.6,16.4,30.23,NW,308,0.0,8.0,65,0.00,,OVC021,0.00,VWS V14.01,2013-03-06 19:26:00,
2013-03-06 13:27:00,26.6,16.4,30.23,West,281,0.0,8.0,65,0.00,,OVC021,0.00,VWS V14.01,2013-03-06 19:27:00,
2013-03-06 13:28:00,26.4,16.2,30.23,WNW,283,1.0,8.0,65,0.00,,OVC021,0.00,VWS V14.01,2013-03-06 19:28:00,
2013-03-06 13:29:00,26.4,16.2,30.23,WNW,284,3.0,8.0,65,0.00,,OVC021,0.00,VWS V14.01,2013-03-06 19:29:00,
2013-03-06 13:30:00,26.3,16.1,30.23,WNW,284,0.0,8.0,65,0.00,,OVC021,0.00,VWS V14.01,2013-03-06 19:30:00,
2013-03-06 13:31:00,26.3,16.1,30.23,WNW,286,6.0,6.0,65,0.00,,OVC021,0.00,VWS V14.01,2013-03-06 19:31:00,
2013-03-06 13:32:00,26.3,16.5,30.23,NNW,334,4.0,11.0,66,0.00,,OVC021,0.00,VWS V14.01,2013-03-06 19:32:00,
2013-03-06 13:33:00,26.4,16.6,30.23,WNW,286,3.0,11.0,66,0.00,,OVC021,0.00,VWS V14.01,2013-03-06 19:33:00,
2013-03-06 13:34:00,26.4,16.2,30.23,WNW,284,1.0,11.0,65,0.00,,OVC021,0.00,VWS V14.01,2013-03-06 19:34:00,
2013-03-06 13:35:00,26.4,15.9,30.23,WNW,286,0.0,11.0,64,0.00,,OVC021,0.00,VWS V14.01,2013-03-06 19:35:00,
2013-03-06 13:36:00,26.3,16.1,30.23,West,280,0.0,11.0,65,0.00,,OVC021,0.00,VWS V14.01,2013-03-06 19:36:00,
2013-03-06 13:37:00,26.3,15.8,30.23,West,280,1.0,11.0,64,0.00,,OVC021,0.00,VWS V14.01,2013-03-06 19:37:00,
2013-03-06 13:38:00,26.1,16.0,30.23,West,276,0.0,11.0,65,0.00,,OVC021,0.00,VWS V14.01,2013-03-06 19:38:00,
2013-03-06 13:39:00,26.0,15.9,30.23,WNW,293,6.0,11.0,65,0.00,,OVC021,0.00,VWS V14.01,2013-03-06 19:39:00,
2013-03-06 13:40:00,26.1,16.3,30.23,WNW,295,0.0,11.0,66,0.00,,OVC021,0.00,VWS V14.01,2013-03-06 19:40:00,
2013-03-06 13:41:00,26.1,16.3,30.23,WNW,301,2.0,11.0,66,0.00,,OVC021,0.00,VWS V14.01,2013-03-06 19:41:00,
2013-03-06 13:42:00,26.3,16.5,30.23,NNW,341,7.0,11.0,66,0.00,,OVC021,0.00,VWS V14.01,2013-03-06 19:42:00,
2013-03-06 13:43:00,26.6,16.8,30.23,NNW,341,2.0,11.0,66,0.00,,OVC023,0.00,VWS V14.01,2013-03-06 19:43:00,
2013-03-06 13:44:00,26.9,17.1,30.23,WNW,283,1.0,11.0,66,0.00,,OVC023,0.00,VWS V14.01,2013-03-06 19:44:00,
2013-03-06 13:45:00,27.0,16.8,30.22,West,274,2.0,11.0,65,0.00,,OVC023,0.00,VWS V14.01,2013-03-06 19:45:00,
2013-03-06 13:46:00,27.2,16.3,30.22,West,274,2.0,11.0,63,0.00,,OVC023,0.00,VWS V14.01,2013-03-06 19:46:00,
2013-03-06 13:47:00,27.0,16.1,30.22,West,274,0.0,11.0,63,0.00,,OVC023,0.00,VWS V14.01,2013-03-06 19:47:00,
2013-03-06 13:48:00,27.0,16.5,30.22,West,276,5.0,11.0,64,0.00,,OVC023,0.00,VWS V14.01,2013-03-06 19:48:00,
2013-03-06 13:49:00,26.7,16.2,30.22,West,276,2.0,11.0,64,0.00,,OVC023,0.00,VWS V14.01,2013-03-06 19:49:00,
2013-03-06 13:50:00,26.4,15.9,30.22,West,276,0.0,11.0,64,0.00,,OVC023,0.00,VWS V14.01,2013-03-06 19:50:00,
2013-03-06 13:51:00,26.3,16.1,30.22,West,276,2.0,11.0,65,0.00,,OVC023,0.00,VWS V14.01,2013-03-06 19:51:00,
2013-03-06 13:52:00,26.1,16.0,30.22,West,273,2.0,11.0,65,0.00,,OVC023,0.00,VWS V14.01,2013-03-06 19:52:00,
2013-03-06 13:53:00,26.1,16.3,30.22,WNW,290,0.0,11.0,66,0.00,,OVC023,0.00,VWS V14.01,2013-03-06 19:53:00,
2013-03-06 13:54:00,26.1,16.3,30.22,WNW,290,6.0,11.0,66,0.00,,OVC023,0.00,VWS V14.01,2013-03-06 19:54:00,
2013-03-06 13:55:00,26.1,16.3,30.22,WNW,291,2.0,11.0,66,0.00,,OVC023,0.00,VWS V14.01,2013-03-06 19:55:00,
2013-03-06 13:56:00,26.3,16.5,30.22,NW,317,0.0,11.0,66,0.00,,OVC023,0.00,VWS V14.01,2013-03-06 19:56:00,
2013-03-06 13:57:00,26.3,16.1,30.22,NW,315,0.0,11.0,65,0.00,,OVC023,0.00,VWS V14.01,2013-03-06 19:57:00,
2013-03-06 13:58:00,26.3,16.1,30.22,NW,314,0.0,11.0,65,0.00,,OVC023,0.00,VWS V14.01,2013-03-06 19:58:00,
2013-03-06 13:59:00,26.3,16.1,30.22,NW,315,0.0,11.0,65,0.00,,OVC023,0.00,VWS V14.01,2013-03-06 19:59:00,
2013-03-06 14:00:00,26.3,16.1,30.22,NW,315,0.0,11.0,65,0.00,,OVC023,0.00,VWS V14.01,2013-03-06 20:00:00,
2013-03-06 14:01:00,26.3,16.5,30.22,NW,315,0.0,0.0,66,0.00,,OVC023,0.00,VWS V14.01,2013-03-06 20:01:00,
2013-03-06 14:02:00,26.4,16.6,30.22,NW,315,0.0,0.0,66,0.00,,OVC023,0.00,VWS V14.01,2013-03-06 20:02:00,
2013-03-06 14:03:00,26.6,16.4,30.22,NW,315,0.0,0.0,65,0.00,,OVC023,0.00,VWS V14.01,2013-03-06 20:03:00,
2013-03-06 14:04:00,26.7,16.5,30.22,NW,308,2.0,2.0,65,0.00,,OVC023,0.00,VWS V14.01,2013-03-06 20:04:00,
2013-03-06 14:05:00,26.7,16.2,30.22,WNW,284,2.0,6.0,64,0.00,,OVC023,0.00,VWS V14.01,2013-03-06 20:05:00,
2013-03-06 14:06:00,26.6,16.1,30.22,West,281,4.0,6.0,64,0.00,,OVC023,0.00,VWS V14.01,2013-03-06 20:06:00,
2013-03-06 14:07:00,26.6,16.8,30.22,NW,317,6.0,7.0,66,0.00,,OVC023,0.00,VWS V14.01,2013-03-06 20:07:00,
2013-03-06 14:08:00,26.7,16.9,30.22,North,9,7.0,8.0,66,0.00,,OVC023,0.00,VWS V14.01,2013-03-06 20:08:00,
2013-03-06 14:09:00,26.9,17.1,30.22,North,5,1.0,10.0,66,0.00,,OVC023,0.00,VWS V14.01,2013-03-06 20:09:00,
2013-03-06 14:10:00,27.0,17.2,30.22,WNW,283,3.0,10.0,66,0.00,,OVC023,0.00,VWS V14.01,2013-03-06 20:10:00,
2013-03-06 14:11:00,26.9,16.4,30.22,WNW,283,1.0,10.0,64,0.00,,OVC023,0.00,VWS V14.01,2013-03-06 20:11:00,
2013-03-06 14:12:00,26.7,16.5,30.22,WNW,284,3.0,10.0,65,0.00,,OVC023,0.00,VWS V14.01,2013-03-06 20:12:00,
2013-03-06 14:13:00,26.7,16.5,30.22,WNW,284,0.0,10.0,65,0.00,,OVC023,0.00,VWS V14.01,2013-03-06 20:13:00,
2013-03-06 14:14:00,26.7,16.9,30.22,WNW,283,1.0,10.0,66,0.00,,OVC023,0.00,VWS V14.01,2013-03-06 20:14:00,
2013-03-06 14:15:00,26.7,16.5,30.21,West,281,2.0,10.0,65,0.00,,OVC023,0.00,VWS V14.01,2013-03-06 20:15:00,
2013-03-06 14:16:00,26.7,16.5,30.21,WNW,286,1.0,10.0,65,0.00,,OVC023,0.00,VWS V14.01,2013-03-06 20:16:00,
2013-03-06 14:17:00,26.7,16.5,30.21,WNW,288,2.0,10.0,65,0.00,,OVC023,0.00,VWS V14.01,2013-03-06 20:17:00,
2013-03-06 14:18:00,26.7,16.5,30.21,WNW,288,1.0,10.0,65,0.00,,OVC023,0.00,VWS V14.01,2013-03-06 20:18:00,
2013-03-06 14:19:00,26.6,16.4,30.21,WNW,290,2.0,10.0,65,0.00,,OVC023,0.00,VWS V14.01,2013-03-06 20:19:00,
2013-03-06 14:20:00,26.6,16.4,30.21,WNW,288,2.0,10.0,65,0.00,,OVC023,0.00,VWS V14.01,2013-03-06 20:20:00,
2013-03-06 14:21:00,26.6,16.8,30.21,WNW,293,0.0,10.0,66,0.00,,OVC023,0.00,VWS V14.01,2013-03-06 20:21:00,
2013-03-06 14:22:00,26.6,16.8,30.21,WNW,302,4.0,10.0,66,0.00,,OVC023,0.00,VWS V14.01,2013-03-06 20:22:00,
2013-03-06 14:23:00,26.9,17.1,30.21,WNW,302,0.0,10.0,66,0.00,,OVC023,0.00,VWS V14.01,2013-03-06 20:23:00,
2013-03-06 14:24:00,27.3,17.8,30.21,WNW,302,0.0,10.0,67,0.00,,OVC023,0.00,VWS V14.01,2013-03-06 20:24:00,
2013-03-06 14:25:00,27.5,17.6,30.21,WNW,302,3.0,10.0,66,0.00,,OVC023,0.00,VWS V14.01,2013-03-06 20:25:00,
2013-03-06 14:26:00,27.8,17.2,30.21,NW,304,6.0,10.0,64,0.00,,OVC023,0.00,VWS V14.01,2013-03-06 20:26:00,
2013-03-06 14:27:00,28.1,17.5,30.21,NW,304,0.0,10.0,64,0.00,,OVC023,0.00,VWS V14.01,2013-03-06 20:27:00,
2013-03-06 14:28:00,28.2,16.9,30.21,NW,304,0.0,10.0,62,0.00,,OVC023,0.00,VWS V14.01,2013-03-06 20:28:00,
2013-03-06 14:29:00,28.2,16.9,30.21,NW,304,0.0,10.0,62,0.00,,SCT023,0.00,VWS V14.01,2013-03-06 20:29:00,
2013-03-06 14:30:00,28.4,17.4,30.22,WNW,302,1.0,10.0,63,0.00,,SCT023,0.00,VWS V14.01,2013-03-06 20:30:00,
2013-03-06 14:31:00,28.4,17.1,30.22,WNW,295,1.0,2.0,62,0.00,,SCT023,0.00,VWS V14.01,2013-03-06 20:31:00,
2013-03-06 14:32:00,28.2,16.9,30.22,WNW,295,2.0,3.0,62,0.00,,SCT023,0.00,VWS V14.01,2013-03-06 20:32:00,
2013-03-06 14:33:00,28.2,17.2,30.22,WNW,297,1.0,3.0,63,0.00,,SCT023,0.00,VWS V14.01,2013-03-06 20:33:00,
2013-03-06 14:34:00,28.1,16.8,30.22,West,273,2.0,3.0,62,0.00,,SCT023,0.00,VWS V14.01,2013-03-06 20:34:00,
2013-03-06 14:35:00,27.8,16.5,30.22,West,269,0.0,6.0,62,0.00,,SCT023,0.00,VWS V14.01,2013-03-06 20:35:00,
2013-03-06 14:36:00,27.6,16.3,30.22,West,269,0.0,6.0,62,0.00,,SCT023,0.00,VWS V14.01,2013-03-06 20:36:00,
2013-03-06 14:37:00,27.3,16.4,30.22,West,269,0.0,6.0,63,0.00,,SCT023,0.00,VWS V14.01,2013-03-06 20:37:00,
2013-03-06 14:38:00,27.2,16.3,30.22,West,269,0.0,6.0,63,0.00,,SCT023,0.00,VWS V14.01,2013-03-06 20:38:00,
2013-03-06 14:39:00,27.3,16.8,30.22,West,269,0.0,6.0,64,0.00,,SCT023,0.00,VWS V14.01,2013-03-06 20:39:00,
2013-03-06 14:40:00,27.3,16.8,30.22,West,269,0.0,6.0,64,0.00,,SCT023,0.00,VWS V14.01,2013-03-06 20:40:00,
2013-03-06 14:41:00,27.5,16.9,30.22,West,269,0.0,6.0,64,0.00,,SCT023,0.00,VWS V14.01,2013-03-06 20:41:00,
2013-03-06 14:42:00,27.8,17.6,30.22,West,270,0.0,6.0,65,0.01,,SCT023,0.01,VWS V14.01,2013-03-06 20:42:00,
2013-03-06 14:43:00,27.9,17.3,30.22,West,269,0.0,6.0,64,0.01,,FEW023,0.01,VWS V14.01,2013-03-06 20:43:00,
2013-03-06 14:44:00,28.1,17.5,30.22,West,270,1.0,6.0,64,0.01,,FEW023,0.01,VWS V14.01,2013-03-06 20:44:00,
2013-03-06 14:45:00,28.4,17.4,30.21,West,270,3.0,6.0,63,0.01,,FEW023,0.01,VWS V14.01,2013-03-06 20:45:00,
2013-03-06 14:46:00,28.4,17.1,30.21,West,270,6.0,6.0,62,0.01,,FEW023,0.01,VWS V14.01,2013-03-06 20:46:00,
2013-03-06 14:47:00,28.4,16.7,30.21,West,270,0.0,6.0,61,0.01,,FEW023,0.01,VWS V14.01,2013-03-06 20:47:00,
2013-03-06 14:48:00,28.4,17.1,30.21,West,270,1.0,6.0,62,0.01,,FEW023,0.01,VWS V14.01,2013-03-06 20:48:00,
2013-03-06 14:49:00,28.4,17.1,30.21,WNW,283,6.0,6.0,62,0.01,,FEW023,0.01,VWS V14.01,2013-03-06 20:49:00,
2013-03-06 14:50:00,28.4,17.1,30.21,WNW,286,2.0,6.0,62,0.01,,FEW023,0.01,VWS V14.01,2013-03-06 20:50:00,
2013-03-06 14:51:00,28.2,16.9,30.21,WNW,286,1.0,6.0,62,0.01,,FEW023,0.01,VWS V14.01,2013-03-06 20:51:00,
2013-03-06 14:52:00,27.9,16.6,30.21,WNW,286,1.0,6.0,62,0.01,,FEW023,0.01,VWS V14.01,2013-03-06 20:52:00,
2013-03-06 14:53:00,27.8,16.5,30.21,WNW,286,0.0,6.0,62,0.01,,FEW023,0.01,VWS V14.01,2013-03-06 20:53:00,
2013-03-06 14:54:00,27.6,16.3,30.21,WNW,286,2.0,6.0,62,0.01,,FEW023,0.01,VWS V14.01,2013-03-06 20:54:00,
2013-03-06 14:55:00,27.5,16.6,30.21,WNW,286,1.0,6.0,63,0.01,,FEW023,0.01,VWS V14.01,2013-03-06 20:55:00,
2013-03-06 14:56:00,27.3,16.4,30.21,WNW,286,0.0,6.0,63,0.01,,FEW023,0.01,VWS V14.01,2013-03-06 20:56:00,
2013-03-06 14:57:00,27.2,16.3,30.21,WNW,286,2.0,6.0,63,0.01,,FEW023,0.01,VWS V14.01,2013-03-06 20:57:00,
2013-03-06 14:58:00,27.2,16.3,30.21,WNW,286,0.0,6.0,63,0.01,,FEW023,0.01,VWS V14.01,2013-03-06 20:58:00,
2013-03-06 14:59:00,27.5,17.3,30.21,WNW,286,0.0,6.0,65,0.01,,FEW023,0.01,VWS V14.01,2013-03-06 20:59:00,
2013-03-06 15:00:00,27.8,17.6,30.21,WNW,286,0.0,6.0,65,0.01,,FEW023,0.01,VWS V14.01,2013-03-06 21:00:00,
2013-03-06 15:01:00,27.9,16.6,30.21,WNW,286,0.0,1.0,62,0.01,,FEW023,0.01,VWS V14.01,2013-03-06 21:01:00,
2013-03-06 15:02:00,27.9,16.6,30.21,WNW,286,0.0,5.0,62,0.01,,FEW023,0.01,VWS V14.01,2013-03-06 21:02:00,
2013-03-06 15:03:00,27.8,16.1,30.21,WNW,284,2.0,5.0,61,0.01,,FEW023,0.01,VWS V14.01,2013-03-06 21:03:00,
2013-03-06 15:04:00,27.8,16.1,30.21,WNW,284,0.0,5.0,61,0.01,,FEW023,0.01,VWS V14.01,2013-03-06 21:04:00,
2013-03-06 15:05:00,27.6,16.3,30.21,WNW,284,1.0,5.0,62,0.01,,FEW023,0.01,VWS V14.01,2013-03-06 21:05:00,
2013-03-06 15:06:00,27.5,16.6,30.21,WNW,284,2.0,5.0,63,0.01,,FEW023,0.01,VWS V14.01,2013-03-06 21:06:00,
2013-03-06 15:07:00,27.3,16.4,30.21,WNW,284,0.0,5.0,63,0.01,,FEW023,0.01,VWS V14.01,2013-03-06 21:07:00,
2013-03-06 15:08:00,27.3,16.4,30.21,WNW,284,0.0,5.0,63,0.01,,FEW023,0.01,VWS V14.01,2013-03-06 21:08:00,
2013-03-06 15:09:00,27.5,16.9,30.21,WNW,283,2.0,5.0,64,0.01,,FEW023,0.01,VWS V14.01,2013-03-06 21:09:00,
2013-03-06 15:10:00,27.5,16.9,30.21,West,280,2.0,5.0,64,0.01,,FEW023,0.01,VWS V14.01,2013-03-06 21:10:00,
2013-03-06 15:11:00,27.5,16.2,30.21,West,280,2.0,5.0,62,0.01,,FEW023,0.01,VWS V14.01,2013-03-06 21:11:00,
2013-03-06 15:12:00,27.3,16.0,30.21,West,280,2.0,5.0,62,0.01,,FEW023,0.01,VWS V14.01,2013-03-06 21:12:00,
2013-03-06 15:13:00,27.3,16.4,30.21,West,270,1.0,5.0,63,0.01,,FEW023,0.01,VWS V14.01,2013-03-06 21:13:00,
2013-03-06 15:14:00,27.2,16.3,30.21,West,270,0.0,5.0,63,0.01,,FEW023,0.01,VWS V14.01,2013-03-06 21:14:00,
2013-03-06 15:15:00,27.2,16.3,30.22,West,267,2.0,5.0,63,0.01,,FEW023,0.01,VWS V14.01,2013-03-06 21:15:00,
2013-03-06 15:16:00,27.2,16.3,30.22,West,269,2.0,5.0,63,0.01,,FEW023,0.01,VWS V14.01,2013-03-06 21:16:00,
2013-03-06 15:17:00,27.0,16.1,30.22,West,270,1.0,5.0,63,0.01,,FEW023,0.01,VWS V14.01,2013-03-06 21:17:00,
2013-03-06 15:18:00,27.0,16.1,30.22,West,270,2.0,5.0,63,0.01,,FEW023,0.01,VWS V14.01,2013-03-06 21:18:00,
2013-03-06 15:19:00,26.9,16.0,30.22,West,278,0.0,5.0,63,0.01,,FEW023,0.01,VWS V14.01,2013-03-06 21:19:00,
2013-03-06 15:20:00,26.9,16.4,30.22,West,276,2.0,5.0,64,0.01,,FEW023,0.01,VWS V14.01,2013-03-06 21:20:00,
2013-03-06 15:21:00,26.9,16.0,30.22,West,276,2.0,5.0,63,0.01,,FEW023,0.01,VWS V14.01,2013-03-06 21:21:00,
2013-03-06 15:22:00,26.9,16.4,30.22,West,277,1.0,5.0,64,0.01,,FEW023,0.01,VWS V14.01,2013-03-06 21:22:00,
2013-03-06 15:23:00,26.7,16.2,30.22,West,277,2.0,5.0,64,0.01,,FEW023,0.01,VWS V14.01,2013-03-06 21:23:00,
2013-03-06 15:24:00,26.7,16.2,30.22,West,278,0.0,5.0,64,0.01,,FEW023,0.01,VWS V14.01,2013-03-06 21:24:00,
2013-03-06 15:25:00,26.9,16.4,30.22,West,278,0.0,5.0,64,0.01,,FEW023,0.01,VWS V14.01,2013-03-06 21:25:00,
2013-03-06 15:26:00,26.9,16.4,30.22,West,278,1.0,5.0,64,0.01,,FEW023,0.01,VWS V14.01,2013-03-06 21:26:00,
2013-03-06 15:27:00,26.9,16.4,30.22,West,277,2.0,5.0,64,0.01,,FEW023,0.01,VWS V14.01,2013-03-06 21:27:00,
2013-03-06 15:28:00,26.9,16.4,30.22,West,270,2.0,5.0,64,0.01,,FEW023,0.01,VWS V14.01,2013-03-06 21:28:00,
2013-03-06 15:29:00,27.0,16.5,30.22,West,270,0.0,5.0,64,0.01,,FEW023,0.01,VWS V14.01,2013-03-06 21:29:00,
2013-03-06 15:30:00,27.0,16.5,30.21,West,273,5.0,5.0,64,0.01,,FEW023,0.01,VWS V14.01,2013-03-06 21:30:00,
2013-03-06 15:31:00,26.9,16.4,30.21,West,274,0.0,5.0,64,0.01,,FEW023,0.01,VWS V14.01,2013-03-06 21:31:00,
2013-03-06 15:32:00,26.9,16.4,30.21,West,274,2.0,5.0,64,0.01,,FEW023,0.01,VWS V14.01,2013-03-06 21:32:00,
2013-03-06 15:33:00,26.9,16.4,30.21,West,280,1.0,5.0,64,0.01,,FEW023,0.01,VWS V14.01,2013-03-06 21:33:00,
2013-03-06 15:34:00,26.7,16.2,30.21,West,280,0.0,5.0,64,0.01,,FEW023,0.01,VWS V14.01,2013-03-06 21:34:00,
2013-03-06 15:35:00,26.9,16.4,30.21,WNW,283,2.0,5.0,64,0.01,,FEW023,0.01,VWS V14.01,2013-03-06 21:35:00,
2013-03-06 15:36:00,27.2,17.0,30.21,WNW,283,0.0,5.0,65,0.01,,FEW023,0.01,VWS V14.01,2013-03-06 21:36:00,
2013-03-06 15:37:00,27.3,16.8,30.21,WNW,283,1.0,5.0,64,0.01,,FEW023,0.01,VWS V14.01,2013-03-06 21:37:00,
2013-03-06 15:38:00,27.5,16.9,30.21,WNW,283,0.0,5.0,64,0.01,,FEW023,0.01,VWS V14.01,2013-03-06 21:38:00,
2013-03-06 15:39:00,27.6,17.0,30.21,WNW,283,0.0,5.0,64,0.01,,FEW023,0.01,VWS V14.01,2013-03-06 21:39:00,
2013-03-06 15:40:00,27.6,17.0,30.21,West,274,1.0,5.0,64,0.01,,FEW023,0.01,VWS V14.01,2013-03-06 21:40:00,
2013-03-06 15:41:00,27.6,16.7,30.21,West,274,0.0,5.0,63,0.01,,FEW023,0.01,VWS V14.01,2013-03-06 21:41:00,
2013-03-06 15:42:00,27.6,17.0,30.21,West,274,3.0,5.0,64,0.01,,FEW023,0.01,VWS V14.01,2013-03-06 21:42:00,
2013-03-06 15:43:00,27.6,16.7,30.21,West,274,0.0,5.0,63,0.01,,SCT300,0.01,VWS V14.01,2013-03-06 21:43:00,
2013-03-06 15:44:00,27.6,16.7,30.21,West,274,1.0,5.0,63,0.01,,SCT300,0.01,VWS V14.01,2013-03-06 21:44:00,
2013-03-06 15:45:00,27.8,17.2,30.21,West,274,2.0,5.0,64,0.01,,SCT300,0.01,VWS V14.01,2013-03-06 21:45:00,
2013-03-06 15:46:00,27.6,16.3,30.21,West,274,1.0,5.0,62,0.01,,SCT300,0.01,VWS V14.01,2013-03-06 21:46:00,
2013-03-06 15:47:00,27.6,16.3,30.21,West,274,0.0,5.0,62,0.01,,SCT300,0.01,VWS V14.01,2013-03-06 21:47:00,
2013-03-06 15:48:00,27.6,16.7,30.21,West,277,4.0,5.0,63,0.01,,SCT300,0.01,VWS V14.01,2013-03-06 21:48:00,
2013-03-06 15:49:00,27.6,17.0,30.21,West,280,2.0,5.0,64,0.01,,SCT300,0.01,VWS V14.01,2013-03-06 21:49:00,
2013-03-06 15:50:00,27.6,17.0,30.21,West,280,0.0,5.0,64,0.01,,SCT300,0.01,VWS V14.01,2013-03-06 21:50:00,
2013-03-06 15:51:00,27.6,16.3,30.21,West,280,2.0,5.0,62,0.01,,SCT300,0.01,VWS V14.01,2013-03-06 21:51:00,
2013-03-06 15:52:00,27.6,16.7,30.21,West,280,1.0,5.0,63,0.01,,SCT300,0.01,VWS V14.01,2013-03-06 21:52:00,
2013-03-06 15:53:00,27.5,16.2,30.21,West,280,1.0,5.0,62,0.01,,SCT300,0.01,VWS V14.01,2013-03-06 21:53:00,
2013-03-06 15:54:00,27.6,16.7,30.21,West,280,2.0,5.0,63,0.01,,SCT300,0.01,VWS V14.01,2013-03-06 21:54:00,
2013-03-06 15:55:00,27.5,16.6,30.21,West,280,1.0,5.0,63,0.01,,SCT300,0.01,VWS V14.01,2013-03-06 21:55:00,
2013-03-06 15:56:00,27.5,16.6,30.21,West,280,1.0,5.0,63,0.01,,SCT300,0.01,VWS V14.01,2013-03-06 21:56:00,
2013-03-06 15:57:00,27.5,16.9,30.21,West,280,1.0,5.0,64,0.01,,SCT300,0.01,VWS V14.01,2013-03-06 21:57:00,
2013-03-06 15:58:00,27.6,16.7,30.21,West,280,0.0,5.0,63,0.01,,SCT300,0.01,VWS V14.01,2013-03-06 21:58:00,
2013-03-06 15:59:00,27.6,16.7,30.21,West,280,0.0,5.0,63,0.01,,SCT300,0.01,VWS V14.01,2013-03-06 21:59:00,
2013-03-06 16:00:00,27.6,16.7,30.21,West,280,1.0,5.0,63,0.01,,SCT300,0.01,VWS V14.01,2013-03-06 22:00:00,
2013-03-06 16:01:00,27.8,16.9,30.21,West,280,1.0,1.0,63,0.00,,SCT300,0.01,VWS V14.01,2013-03-06 22:01:00,
2013-03-06 16:02:00,27.6,16.3,30.21,West,280,0.0,1.0,62,0.00,,SCT300,0.01,VWS V14.01,2013-03-06 22:02:00,
2013-03-06 16:03:00,27.6,16.3,30.21,West,280,0.0,1.0,62,0.00,,SCT300,0.01,VWS V14.01,2013-03-06 22:03:00,
2013-03-06 16:04:00,27.6,16.7,30.21,West,280,0.0,1.0,63,0.00,,SCT300,0.01,VWS V14.01,2013-03-06 22:04:00,
2013-03-06 16:05:00,27.5,16.2,30.21,West,280,0.0,1.0,62,0.00,,SCT300,0.01,VWS V14.01,2013-03-06 22:05:00,
2013-03-06 16:06:00,27.2,16.3,30.21,West,280,0.0,1.0,63,0.00,,SCT300,0.01,VWS V14.01,2013-03-06 22:06:00,
2013-03-06 16:07:00,27.0,16.5,30.21,West,280,0.0,1.0,64,0.00,,SCT300,0.01,VWS V14.01,2013-03-06 22:07:00,
2013-03-06 16:08:00,26.9,16.4,30.21,West,280,0.0,1.0,64,0.00,,SCT300,0.01,VWS V14.01,2013-03-06 22:08:00,
2013-03-06 16:09:00,26.7,16.2,30.21,West,280,0.0,1.0,64,0.00,,SCT300,0.01,VWS V14.01,2013-03-06 22:09:00,
2013-03-06 16:10:00,26.6,16.1,30.21,West,280,0.0,1.0,64,0.00,,SCT300,0.01,VWS V14.01,2013-03-06 22:10:00,
2013-03-06 16:11:00,26.4,15.9,30.21,West,280,1.0,1.0,64,0.00,,SCT300,0.01,VWS V14.01,2013-03-06 22:11:00,
2013-03-06 16:12:00,26.4,16.2,30.21,West,280,0.0,2.0,65,0.00,,SCT300,0.01,VWS V14.01,2013-03-06 22:12:00,
2013-03-06 16:13:00,26.3,16.1,30.21,West,280,1.0,2.0,65,0.00,,SCT300,0.01,VWS V14.01,2013-03-06 22:13:00,
2013-03-06 16:14:00,26.1,16.0,30.21,West,280,1.0,2.0,65,0.00,,SCT300,0.01,VWS V14.01,2013-03-06 22:14:00,
2013-03-06 16:15:00,26.0,15.9,30.22,West,280,1.0,2.0,65,0.00,,SCT300,0.01,VWS V14.01,2013-03-06 22:15:00,
2013-03-06 16:16:00,26.0,16.2,30.22,West,280,0.0,2.0,66,0.00,,SCT300,0.01,VWS V14.01,2013-03-06 22:16:00,
2013-03-06 16:17:00,25.8,16.0,30.22,West,280,0.0,2.0,66,0.00,,SCT300,0.01,VWS V14.01,2013-03-06 22:17:00,
2013-03-06 16:18:00,25.8,16.0,30.22,West,280,0.0,2.0,66,0.00,,SCT300,0.01,VWS V14.01,2013-03-06 22:18:00,
2013-03-06 16:19:00,25.8,16.0,30.22,West,280,0.0,2.0,66,0.00,,SCT300,0.01,VWS V14.01,2013-03-06 22:19:00,
2013-03-06 16:20:00,25.8,16.0,30.22,West,280,0.0,2.0,66,0.00,,SCT300,0.01,VWS V14.01,2013-03-06 22:20:00,
2013-03-06 16:21:00,25.7,15.9,30.22,West,280,2.0,2.0,66,0.00,,SCT300,0.01,VWS V14.01,2013-03-06 22:21:00,
2013-03-06 16:22:00,25.7,15.9,30.22,West,280,1.0,2.0,66,0.00,,SCT300,0.01,VWS V14.01,2013-03-06 22:22:00,
2013-03-06 16:23:00,25.7,15.9,30.22,West,280,1.0,2.0,66,0.00,,SCT300,0.01,VWS V14.01,2013-03-06 22:23:00,
2013-03-06 16:24:00,25.7,15.9,30.22,West,280,0.0,2.0,66,0.00,,SCT300,0.01,VWS V14.01,2013-03-06 22:24:00,
2013-03-06 16:25:00,25.7,15.9,30.22,West,280,1.0,2.0,66,0.00,,SCT300,0.01,VWS V14.01,2013-03-06 22:25:00,
2013-03-06 16:26:00,25.7,15.9,30.22,West,280,0.0,2.0,66,0.00,,SCT300,0.01,VWS V14.01,2013-03-06 22:26:00,
2013-03-06 16:27:00,25.6,15.8,30.22,West,280,0.0,2.0,66,0.00,,SCT300,0.01,VWS V14.01,2013-03-06 22:27:00,
2013-03-06 16:28:00,25.6,15.8,30.22,West,280,0.0,2.0,66,0.00,,SCT300,0.01,VWS V14.01,2013-03-06 22:28:00,
2013-03-06 16:29:00,25.6,15.8,30.22,West,280,0.0,2.0,66,0.00,,SCT300,0.01,VWS V14.01,2013-03-06 22:29:00,
2013-03-06 16:30:00,25.6,15.8,30.22,West,280,0.0,2.0,66,0.00,,SCT300,0.01,VWS V14.01,2013-03-06 22:30:00,
2013-03-06 16:31:00,25.6,15.8,30.22,West,280,0.0,0.0,66,0.00,,SCT300,0.01,VWS V14.01,2013-03-06 22:31:00,
2013-03-06 16:32:00,25.6,15.8,30.22,West,280,1.0,2.0,66,0.00,,SCT300,0.01,VWS V14.01,2013-03-06 22:32:00,
2013-03-06 16:33:00,25.6,15.8,30.22,West,280,0.0,2.0,66,0.00,,SCT300,0.01,VWS V14.01,2013-03-06 22:33:00,
2013-03-06 16:34:00,25.6,16.2,30.22,West,277,1.0,4.0,67,0.00,,SCT300,0.01,VWS V14.01,2013-03-06 22:34:00,
2013-03-06 16:35:00,25.6,16.2,30.22,West,277,0.0,4.0,67,0.00,,SCT300,0.01,VWS V14.01,2013-03-06 22:35:00,
2013-03-06 16:36:00,25.6,15.8,30.22,West,277,0.0,4.0,66,0.00,,SCT300,0.01,VWS V14.01,2013-03-06 22:36:00,
2013-03-06 16:37:00,25.6,15.8,30.22,West,277,0.0,4.0,66,0.00,,SCT300,0.01,VWS V14.01,2013-03-06 22:37:00,
2013-03-06 16:38:00,25.6,15.8,30.22,West,277,0.0,4.0,66,0.00,,SCT300,0.01,VWS V14.01,2013-03-06 22:38:00,
2013-03-06 16:39:00,25.6,15.8,30.22,West,277,0.0,4.0,66,0.00,,SCT300,0.01,VWS V14.01,2013-03-06 22:39:00,
2013-03-06 16:40:00,25.6,15.8,30.22,West,277,0.0,4.0,66,0.00,,SCT300,0.01,VWS V14.01,2013-03-06 22:40:00,
2013-03-06 16:41:00,25.6,15.8,30.22,West,277,0.0,4.0,66,0.00,,SCT300,0.01,VWS V14.01,2013-03-06 22:41:00,
2013-03-06 16:42:00,25.6,15.8,30.22,West,277,0.0,4.0,66,0.00,,SCT300,0.01,VWS V14.01,2013-03-06 22:42:00,
2013-03-06 16:43:00,25.6,15.8,30.22,West,277,0.0,4.0,66,0.00,,SCT300,0.01,VWS V14.01,2013-03-06 22:43:00,
2013-03-06 16:44:00,25.4,15.6,30.22,West,278,1.0,4.0,66,0.00,,SCT300,0.01,VWS V14.01,2013-03-06 22:44:00,
2013-03-06 16:45:00,25.4,16.0,30.22,West,278,1.0,4.0,67,0.00,,SCT300,0.01,VWS V14.01,2013-03-06 22:45:00,
2013-03-06 16:46:00,25.4,16.0,30.22,West,277,0.0,4.0,67,0.00,,SCT300,0.01,VWS V14.01,2013-03-06 22:46:00,
2013-03-06 16:47:00,25.4,16.0,30.22,West,277,0.0,4.0,67,0.00,,SCT300,0.01,VWS V14.01,2013-03-06 22:47:00,
2013-03-06 16:48:00,25.3,15.9,30.22,West,277,0.0,4.0,67,0.00,,SCT300,0.01,VWS V14.01,2013-03-06 22:48:00,
2013-03-06 16:49:00,25.3,15.9,30.22,West,277,0.0,4.0,67,0.00,,SCT300,0.01,VWS V14.01,2013-03-06 22:49:00,
2013-03-06 16:50:00,25.3,15.9,30.22,West,277,0.0,4.0,67,0.00,,SCT300,0.01,VWS V14.01,2013-03-06 22:50:00,
2013-03-06 16:51:00,25.3,16.2,30.22,West,277,1.0,4.0,68,0.00,,SCT300,0.01,VWS V14.01,2013-03-06 22:51:00,
2013-03-06 16:52:00,25.1,16.0,30.22,West,277,1.0,4.0,68,0.00,,SCT300,0.01,VWS V14.01,2013-03-06 22:52:00,
2013-03-06 16:53:00,25.1,16.0,30.22,West,277,0.0,4.0,68,0.00,,SCT300,0.01,VWS V14.01,2013-03-06 22:53:00,
2013-03-06 16:54:00,25.1,16.0,30.22,West,277,0.0,4.0,68,0.00,,SCT300,0.01,VWS V14.01,2013-03-06 22:54:00,
2013-03-06 16:55:00,25.1,16.0,30.22,West,277,0.0,4.0,68,0.00,,SCT300,0.01,VWS V14.01,2013-03-06 22:55:00,
2013-03-06 16:56:00,25.0,15.9,30.22,West,277,0.0,4.0,68,0.00,,SCT300,0.01,VWS V14.01,2013-03-06 22:56:00,
2013-03-06 16:57:00,25.0,15.9,30.22,West,278,1.0,4.0,68,0.00,,SCT300,0.01,VWS V14.01,2013-03-06 22:57:00,
2013-03-06 16:58:00,25.0,15.9,30.22,West,278,0.0,4.0,68,0.00,,SCT300,0.01,VWS V14.01,2013-03-06 22:58:00,
2013-03-06 16:59:00,25.0,15.9,30.22,West,277,2.0,4.0,68,0.00,,SCT300,0.01,VWS V14.01,2013-03-06 22:59:00,
2013-03-06 17:00:00,25.0,15.9,30.22,West,277,2.0,4.0,68,0.00,,SCT300,0.01,VWS V14.01,2013-03-06 23:00:00,
2013-03-06 17:01:00,25.0,15.9,30.22,West,277,1.0,3.0,68,0.00,,SCT300,0.01,VWS V14.01,2013-03-06 23:01:00,
2013-03-06 17:02:00,24.8,16.1,30.22,West,277,0.0,3.0,69,0.00,,SCT300,0.01,VWS V14.01,2013-03-06 23:02:00,
2013-03-06 17:03:00,24.8,16.1,30.22,West,277,2.0,3.0,69,0.00,,SCT300,0.01,VWS V14.01,2013-03-06 23:03:00,
2013-03-06 17:04:00,24.8,16.1,30.22,West,277,0.0,3.0,69,0.00,,SCT300,0.01,VWS V14.01,2013-03-06 23:04:00,
2013-03-06 17:05:00,24.8,16.1,30.22,West,277,0.0,3.0,69,0.00,,SCT300,0.01,VWS V14.01,2013-03-06 23:05:00,
2013-03-06 17:06:00,24.8,16.1,30.22,West,277,0.0,3.0,69,0.00,,SCT300,0.01,VWS V14.01,2013-03-06 23:06:00,
2013-03-06 17:07:00,24.7,16.0,30.22,West,277,2.0,3.0,69,0.00,,SCT300,0.01,VWS V14.01,2013-03-06 23:07:00,
2013-03-06 17:08:00,24.7,16.0,30.22,West,277,1.0,3.0,69,0.00,,SCT300,0.01,VWS V14.01,2013-03-06 23:08:00,
2013-03-06 17:09:00,24.7,16.3,30.22,West,277,0.0,3.0,70,0.00,,SCT300,0.01,VWS V14.01,2013-03-06 23:09:00,
2013-03-06 17:10:00,24.7,16.0,30.22,West,277,0.0,3.0,69,0.00,,SCT300,0.01,VWS V14.01,2013-03-06 23:10:00,
2013-03-06 17:11:00,24.5,16.1,30.22,West,277,0.0,3.0,70,0.00,,SCT300,0.01,VWS V14.01,2013-03-06 23:11:00,
2013-03-06 17:12:00,24.5,16.1,30.22,West,277,0.0,3.0,70,0.00,,SCT300,0.01,VWS V14.01,2013-03-06 23:12:00,
2013-03-06 17:13:00,24.5,16.1,30.22,West,277,0.0,3.0,70,0.00,,SCT300,0.01,VWS V14.01,2013-03-06 23:13:00,
2013-03-06 17:14:00,24.5,16.1,30.22,West,277,0.0,3.0,70,0.00,,SCT300,0.01,VWS V14.01,2013-03-06 23:14:00,
2013-03-06 17:15:00,24.4,16.0,30.21,West,277,2.0,3.0,70,0.00,,SCT300,0.01,VWS V14.01,2013-03-06 23:15:00,
2013-03-06 17:16:00,24.4,16.0,30.21,West,277,1.0,3.0,70,0.00,,SCT300,0.01,VWS V14.01,2013-03-06 23:16:00,
2013-03-06 17:17:00,24.4,16.0,30.21,West,277,2.0,3.0,70,0.00,,SCT300,0.01,VWS V14.01,2013-03-06 23:17:00,
2013-03-06 17:18:00,24.4,16.0,30.21,West,277,0.0,3.0,70,0.00,,SCT300,0.01,VWS V14.01,2013-03-06 23:18:00,
2013-03-06 17:19:00,24.4,16.0,30.21,West,277,0.0,3.0,70,0.00,,SCT300,0.01,VWS V14.01,2013-03-06 23:19:00,
2013-03-06 17:20:00,24.4,16.0,30.21,West,277,1.0,3.0,70,0.00,,SCT300,0.01,VWS V14.01,2013-03-06 23:20:00,
2013-03-06 17:21:00,24.2,15.8,30.21,West,277,0.0,3.0,70,0.00,,SCT300,0.01,VWS V14.01,2013-03-06 23:21:00,
2013-03-06 17:22:00,24.2,15.8,30.21,West,277,1.0,3.0,70,0.00,,SCT300,0.01,VWS V14.01,2013-03-06 23:22:00,
2013-03-06 17:23:00,24.2,15.8,30.21,West,277,0.0,3.0,70,0.00,,SCT300,0.01,VWS V14.01,2013-03-06 23:23:00,
2013-03-06 17:24:00,24.2,15.8,30.21,West,277,0.0,3.0,70,0.00,,SCT300,0.01,VWS V14.01,2013-03-06 23:24:00,
2013-03-06 17:25:00,24.1,15.8,30.21,West,277,0.0,3.0,70,0.00,,SCT300,0.01,VWS V14.01,2013-03-06 23:25:00,
2013-03-06 17:26:00,24.1,15.8,30.21,West,277,2.0,3.0,70,0.00,,SCT300,0.01,VWS V14.01,2013-03-06 23:26:00,
2013-03-06 17:27:00,24.1,15.8,30.21,West,277,0.0,3.0,70,0.00,,SCT300,0.01,VWS V14.01,2013-03-06 23:27:00,
2013-03-06 17:28:00,24.1,15.8,30.21,West,277,0.0,3.0,70,0.00,,SCT300,0.01,VWS V14.01,2013-03-06 23:28:00,
2013-03-06 17:29:00,23.9,15.9,30.21,West,276,0.0,3.0,71,0.00,,SCT300,0.01,VWS V14.01,2013-03-06 23:29:00,
2013-03-06 17:30:00,23.9,15.9,30.22,West,276,0.0,3.0,71,0.00,,SCT300,0.01,VWS V14.01,2013-03-06 23:30:00,
2013-03-06 17:31:00,23.9,15.9,30.22,West,276,0.0,2.0,71,0.00,,SCT300,0.01,VWS V14.01,2013-03-06 23:31:00,
2013-03-06 17:32:00,23.8,15.8,30.22,West,276,0.0,2.0,71,0.00,,SCT300,0.01,VWS V14.01,2013-03-06 23:32:00,
2013-03-06 17:33:00,23.8,15.8,30.22,West,276,1.0,2.0,71,0.00,,SCT300,0.01,VWS V14.01,2013-03-06 23:33:00,
2013-03-06 17:34:00,23.8,15.8,30.22,West,276,0.0,2.0,71,0.00,,SCT300,0.01,VWS V14.01,2013-03-06 23:34:00,
2013-03-06 17:35:00,23.8,15.8,30.22,West,276,1.0,3.0,71,0.00,,SCT300,0.01,VWS V14.01,2013-03-06 23:35:00,
2013-03-06 17:36:00,23.6,15.6,30.22,West,276,0.0,3.0,71,0.00,,SCT300,0.01,VWS V14.01,2013-03-06 23:36:00,
2013-03-06 17:37:00,23.6,15.9,30.22,West,276,0.0,4.0,72,0.00,,SCT300,0.01,VWS V14.01,2013-03-06 23:37:00,
2013-03-06 17:38:00,23.6,15.9,30.22,West,276,2.0,4.0,72,0.00,,SCT300,0.01,VWS V14.01,2013-03-06 23:38:00,
2013-03-06 17:39:00,23.6,15.9,30.22,West,276,1.0,5.0,72,0.00,,SCT300,0.01,VWS V14.01,2013-03-06 23:39:00,
2013-03-06 17:40:00,23.6,15.9,30.22,West,276,0.0,5.0,72,0.00,,SCT300,0.01,VWS V14.01,2013-03-06 23:40:00,
2013-03-06 17:41:00,23.5,15.8,30.22,West,276,1.0,5.0,72,0.00,,SCT300,0.01,VWS V14.01,2013-03-06 23:41:00,
2013-03-06 17:42:00,23.5,15.8,30.22,West,276,0.0,5.0,72,0.00,,SCT300,0.01,VWS V14.01,2013-03-06 23:42:00,
2013-03-06 17:43:00,23.5,15.8,30.22,West,276,2.0,5.0,72,0.00,,SCT300,0.01,VWS V14.01,2013-03-06 23:43:00,
2013-03-06 17:44:00,23.5,15.8,30.22,West,276,0.0,5.0,72,0.00,,SCT300,0.01,VWS V14.01,2013-03-06 23:44:00,
2013-03-06 17:45:00,23.5,15.8,30.22,West,276,0.0,5.0,72,0.00,,SCT300,0.01,VWS V14.01,2013-03-06 23:45:00,
2013-03-06 17:46:00,23.3,15.6,30.22,West,276,1.0,5.0,72,0.00,,SCT300,0.01,VWS V14.01,2013-03-06 23:46:00,
2013-03-06 17:47:00,23.3,15.6,30.22,West,276,0.0,5.0,72,0.00,,SCT300,0.01,VWS V14.01,2013-03-06 23:47:00,
2013-03-06 17:48:00,23.3,15.6,30.22,West,276,0.0,5.0,72,0.00,,SCT300,0.01,VWS V14.01,2013-03-06 23:48:00,
2013-03-06 17:49:00,23.3,15.6,30.22,West,276,0.0,5.0,72,0.00,,SCT300,0.01,VWS V14.01,2013-03-06 23:49:00,
2013-03-06 17:50:00,23.2,15.5,30.22,West,276,0.0,5.0,72,0.00,,SCT300,0.01,VWS V14.01,2013-03-06 23:50:00,
2013-03-06 17:51:00,23.2,15.5,30.22,West,276,0.0,5.0,72,0.00,,SCT300,0.01,VWS V14.01,2013-03-06 23:51:00,
2013-03-06 17:52:00,23.2,15.5,30.22,West,276,0.0,5.0,72,0.00,,SCT300,0.01,VWS V14.01,2013-03-06 23:52:00,
2013-03-06 17:53:00,23.2,15.5,30.22,West,276,1.0,5.0,72,0.00,,SCT300,0.01,VWS V14.01,2013-03-06 23:53:00,
2013-03-06 17:54:00,23.2,15.5,30.22,West,276,0.0,5.0,72,0.00,,SCT300,0.01,VWS V14.01,2013-03-06 23:54:00,
2013-03-06 17:55:00,23.0,15.6,30.22,West,276,0.0,5.0,73,0.00,,SCT300,0.01,VWS V14.01,2013-03-06 23:55:00,
2013-03-06 17:56:00,23.0,15.6,30.22,West,276,0.0,5.0,73,0.00,,SCT300,0.01,VWS V14.01,2013-03-06 23:56:00,
2013-03-06 17:57:00,23.0,15.6,30.22,West,276,0.0,5.0,73,0.00,,SCT300,0.01,VWS V14.01,2013-03-06 23:57:00,
2013-03-06 17:58:00,23.0,15.6,30.22,West,276,0.0,5.0,73,0.00,,SCT300,0.01,VWS V14.01,2013-03-06 23:58:00,
2013-03-06 17:59:00,23.0,15.6,30.22,West,276,0.0,5.0,73,0.00,,SCT300,0.01,VWS V14.01,2013-03-06 23:59:00,
2013-03-06 18:00:00,23.0,15.6,30.22,West,276,2.0,5.0,73,0.00,,SCT300,0.01,VWS V14.01,2013-03-07 00:00:00,
2013-03-06 18:01:00,22.9,15.6,30.22,West,276,1.0,2.0,73,0.00,,SCT300,0.01,VWS V14.01,2013-03-07 00:01:00,
2013-03-06 18:02:00,22.9,15.6,30.22,West,276,0.0,2.0,73,0.00,,SCT300,0.01,VWS V14.01,2013-03-07 00:02:00,
2013-03-06 18:03:00,22.9,15.6,30.22,West,276,0.0,2.0,73,0.00,,SCT300,0.01,VWS V14.01,2013-03-07 00:03:00,
2013-03-06 18:04:00,22.9,15.6,30.22,West,276,0.0,2.0,73,0.00,,SCT300,0.01,VWS V14.01,2013-03-07 00:04:00,
2013-03-06 18:05:00,22.9,15.6,30.22,West,276,0.0,2.0,73,0.00,,SCT300,0.01,VWS V14.01,2013-03-07 00:05:00,
2013-03-06 18:06:00,22.9,15.6,30.22,West,276,0.0,2.0,73,0.00,,SCT300,0.01,VWS V14.01,2013-03-07 00:06:00,
2013-03-06 18:07:00,22.9,15.6,30.22,West,276,1.0,2.0,73,0.00,,SCT300,0.01,VWS V14.01,2013-03-07 00:07:00,
2013-03-06 18:08:00,22.9,15.6,30.22,West,276,0.0,2.0,73,0.00,,SCT300,0.01,VWS V14.01,2013-03-07 00:08:00,
2013-03-06 18:09:00,22.9,15.6,30.22,West,276,0.0,2.0,73,0.00,,SCT300,0.01,VWS V14.01,2013-03-07 00:09:00,
2013-03-06 18:10:00,22.7,15.4,30.22,West,276,0.0,2.0,73,0.00,,SCT300,0.01,VWS V14.01,2013-03-07 00:10:00,
2013-03-06 18:11:00,22.7,15.4,30.22,West,276,2.0,2.0,73,0.00,,SCT300,0.01,VWS V14.01,2013-03-07 00:11:00,
2013-03-06 18:12:00,22.7,15.7,30.22,West,276,1.0,2.0,74,0.00,,SCT300,0.01,VWS V14.01,2013-03-07 00:12:00,
2013-03-06 18:13:00,22.7,15.7,30.22,West,276,1.0,2.0,74,0.00,,SCT300,0.01,VWS V14.01,2013-03-07 00:13:00,
2013-03-06 18:14:00,22.7,15.7,30.22,West,276,2.0,2.0,74,0.00,,SCT300,0.01,VWS V14.01,2013-03-07 00:14:00,
2013-03-06 18:15:00,22.7,15.7,30.22,West,276,1.0,2.0,74,0.00,,SCT300,0.01,VWS V14.01,2013-03-07 00:15:00,
2013-03-06 18:16:00,22.7,15.7,30.22,West,276,0.0,2.0,74,0.00,,SCT300,0.01,VWS V14.01,2013-03-07 00:16:00,
2013-03-06 18:17:00,22.7,15.7,30.22,West,276,2.0,2.0,74,0.00,,SCT300,0.01,VWS V14.01,2013-03-07 00:17:00,
2013-03-06 18:18:00,22.5,15.5,30.22,West,276,2.0,2.0,74,0.00,,SCT300,0.01,VWS V14.01,2013-03-07 00:18:00,
2013-03-06 18:19:00,22.5,15.5,30.22,West,276,0.0,2.0,74,0.00,,SCT300,0.01,VWS V14.01,2013-03-07 00:19:00,
2013-03-06 18:20:00,22.5,15.5,30.22,West,276,0.0,2.0,74,0.00,,SCT300,0.01,VWS V14.01,2013-03-07 00:20:00,
2013-03-06 18:21:00,22.5,15.5,30.22,West,276,0.0,2.0,74,0.00,,SCT300,0.01,VWS V14.01,2013-03-07 00:21:00,
2013-03-06 18:22:00,22.5,15.5,30.22,West,276,0.0,2.0,74,0.00,,SCT300,0.01,VWS V14.01,2013-03-07 00:22:00,
2013-03-06 18:23:00,22.4,15.4,30.22,West,276,0.0,2.0,74,0.00,,SCT300,0.01,VWS V14.01,2013-03-07 00:23:00,
2013-03-06 18:24:00,22.4,15.4,30.22,West,276,0.0,2.0,74,0.00,,SCT300,0.01,VWS V14.01,2013-03-07 00:24:00,
2013-03-06 18:25:00,22.4,15.4,30.22,West,276,0.0,2.0,74,0.00,,SCT300,0.01,VWS V14.01,2013-03-07 00:25:00,
2013-03-06 18:26:00,22.4,15.4,30.22,West,276,0.0,2.0,74,0.00,,SCT300,0.01,VWS V14.01,2013-03-07 00:26:00,
2013-03-06 18:27:00,22.4,15.4,30.22,West,276,0.0,2.0,74,0.00,,SCT300,0.01,VWS V14.01,2013-03-07 00:27:00,
2013-03-06 18:28:00,22.2,15.2,30.22,West,276,0.0,2.0,74,0.00,,SCT300,0.01,VWS V14.01,2013-03-07 00:28:00,
2013-03-06 18:29:00,22.2,15.2,30.22,West,276,0.0,2.0,74,0.00,,SCT300,0.01,VWS V14.01,2013-03-07 00:29:00,
2013-03-06 18:30:00,22.2,15.2,30.22,West,276,0.0,2.0,74,0.00,,SCT300,0.01,VWS V14.01,2013-03-07 00:30:00,
2013-03-06 18:31:00,22.2,15.5,30.22,West,276,0.0,1.0,75,0.00,,SCT300,0.01,VWS V14.01,2013-03-07 00:31:00,
2013-03-06 18:32:00,22.1,15.4,30.22,West,276,0.0,1.0,75,0.00,,SCT300,0.01,VWS V14.01,2013-03-07 00:32:00,
2013-03-06 18:33:00,22.1,15.4,30.22,West,276,0.0,1.0,75,0.00,,SCT300,0.01,VWS V14.01,2013-03-07 00:33:00,
2013-03-06 18:34:00,22.1,15.4,30.22,West,276,0.0,1.0,75,0.00,,SCT300,0.01,VWS V14.01,2013-03-07 00:34:00,
2013-03-06 18:35:00,22.1,15.4,30.22,West,276,0.0,1.0,75,0.00,,SCT300,0.01,VWS V14.01,2013-03-07 00:35:00,
2013-03-06 18:36:00,22.1,15.4,30.22,West,276,0.0,1.0,75,0.00,,SCT300,0.01,VWS V14.01,2013-03-07 00:36:00,
2013-03-06 18:37:00,21.9,15.2,30.22,West,276,0.0,1.0,75,0.00,,SCT300,0.01,VWS V14.01,2013-03-07 00:37:00,
2013-03-06 18:38:00,21.9,15.2,30.22,West,276,0.0,1.0,75,0.00,,SCT300,0.01,VWS V14.01,2013-03-07 00:38:00,
2013-03-06 18:39:00,21.9,15.2,30.22,West,276,0.0,1.0,75,0.00,,SCT300,0.01,VWS V14.01,2013-03-07 00:39:00,
2013-03-06 18:40:00,21.9,15.2,30.22,West,276,0.0,1.0,75,0.00,,SCT300,0.01,VWS V14.01,2013-03-07 00:40:00,
2013-03-06 18:41:00,21.9,15.2,30.22,West,276,1.0,1.0,75,0.00,,SCT300,0.01,VWS V14.01,2013-03-07 00:41:00,
2013-03-06 18:42:00,21.8,15.1,30.22,West,276,0.0,1.0,75,0.00,,SCT300,0.01,VWS V14.01,2013-03-07 00:42:00,
2013-03-06 18:43:00,21.8,15.1,30.22,West,276,0.0,1.0,75,0.00,,FEW027,0.01,VWS V14.01,2013-03-07 00:43:00,
2013-03-06 18:44:00,21.8,15.1,30.22,West,276,0.0,1.0,75,0.00,,FEW027,0.01,VWS V14.01,2013-03-07 00:44:00,
2013-03-06 18:45:00,21.6,14.9,30.22,West,276,0.0,1.0,75,0.00,,FEW027,0.01,VWS V14.01,2013-03-07 00:45:00,
2013-03-06 18:46:00,21.6,14.9,30.22,West,276,0.0,1.0,75,0.00,,FEW027,0.01,VWS V14.01,2013-03-07 00:46:00,
2013-03-06 18:47:00,21.6,15.2,30.22,West,276,0.0,1.0,76,0.00,,FEW027,0.01,VWS V14.01,2013-03-07 00:47:00,
2013-03-06 18:48:00,21.6,15.2,30.22,West,276,0.0,1.0,76,0.00,,FEW027,0.01,VWS V14.01,2013-03-07 00:48:00,
2013-03-06 18:49:00,21.4,15.0,30.22,West,276,0.0,1.0,76,0.00,,FEW027,0.01,VWS V14.01,2013-03-07 00:49:00,
2013-03-06 18:50:00,21.4,15.0,30.22,West,276,0.0,1.0,76,0.00,,FEW027,0.01,VWS V14.01,2013-03-07 00:50:00,
2013-03-06 18:51:00,21.4,15.0,30.22,West,276,0.0,1.0,76,0.00,,FEW027,0.01,VWS V14.01,2013-03-07 00:51:00,
2013-03-06 18:52:00,21.3,14.9,30.22,West,276,0.0,1.0,76,0.00,,FEW027,0.01,VWS V14.01,2013-03-07 00:52:00,
2013-03-06 18:53:00,21.3,14.9,30.22,West,276,0.0,1.0,76,0.00,,FEW027,0.01,VWS V14.01,2013-03-07 00:53:00,
2013-03-06 18:54:00,21.3,14.9,30.22,West,276,0.0,1.0,76,0.00,,FEW027,0.01,VWS V14.01,2013-03-07 00:54:00,
2013-03-06 18:55:00,21.1,14.7,30.22,West,276,0.0,1.0,76,0.00,,FEW027,0.01,VWS V14.01,2013-03-07 00:55:00,
2013-03-06 18:56:00,21.1,14.7,30.22,West,276,0.0,1.0,76,0.00,,FEW027,0.01,VWS V14.01,2013-03-07 00:56:00,
2013-03-06 18:57:00,21.1,14.7,30.22,West,276,0.0,1.0,76,0.00,,FEW027,0.01,VWS V14.01,2013-03-07 00:57:00,
2013-03-06 18:58:00,21.1,15.0,30.22,West,276,0.0,1.0,77,0.00,,FEW027,0.01,VWS V14.01,2013-03-07 00:58:00,
2013-03-06 18:59:00,21.1,14.7,30.22,West,276,0.0,1.0,76,0.00,,FEW027,0.01,VWS V14.01,2013-03-07 00:59:00,
2013-03-06 19:00:00,21.1,15.0,30.22,West,276,0.0,1.0,77,0.00,,FEW027,0.01,VWS V14.01,2013-03-07 01:00:00,
2013-03-06 19:01:00,21.1,14.7,30.22,West,276,0.0,0.0,76,0.00,,FEW027,0.01,VWS V14.01,2013-03-07 01:01:00,
2013-03-06 19:02:00,21.1,15.0,30.22,West,276,0.0,0.0,77,0.00,,FEW027,0.01,VWS V14.01,2013-03-07 01:02:00,
2013-03-06 19:03:00,21.0,14.9,30.22,West,276,0.0,0.0,77,0.00,,FEW027,0.01,VWS V14.01,2013-03-07 01:03:00,
2013-03-06 19:04:00,21.0,14.6,30.22,West,276,0.0,0.0,76,0.00,,FEW027,0.01,VWS V14.01,2013-03-07 01:04:00,
2013-03-06 19:05:00,21.0,14.9,30.22,West,276,0.0,0.0,77,0.00,,FEW027,0.01,VWS V14.01,2013-03-07 01:05:00,
2013-03-06 19:06:00,21.0,14.9,30.22,West,276,0.0,0.0,77,0.00,,FEW027,0.01,VWS V14.01,2013-03-07 01:06:00,
2013-03-06 19:07:00,20.8,14.7,30.22,West,276,0.0,0.0,77,0.00,,FEW027,0.01,VWS V14.01,2013-03-07 01:07:00,
2013-03-06 19:08:00,20.8,14.7,30.22,West,276,0.0,0.0,77,0.00,,FEW027,0.01,VWS V14.01,2013-03-07 01:08:00,
2013-03-06 19:09:00,20.8,14.7,30.22,West,276,0.0,0.0,77,0.00,,FEW027,0.01,VWS V14.01,2013-03-07 01:09:00,
2013-03-06 19:10:00,20.8,14.7,30.22,West,276,0.0,0.0,77,0.00,,FEW027,0.01,VWS V14.01,2013-03-07 01:10:00,
2013-03-06 19:11:00,20.6,14.6,30.22,West,276,0.0,0.0,77,0.00,,FEW027,0.01,VWS V14.01,2013-03-07 01:11:00,
2013-03-06 19:12:00,20.6,14.6,30.22,West,276,0.0,0.0,77,0.00,,FEW027,0.01,VWS V14.01,2013-03-07 01:12:00,
2013-03-06 19:13:00,20.6,14.6,30.22,West,276,0.0,0.0,77,0.00,,FEW027,0.01,VWS V14.01,2013-03-07 01:13:00,
2013-03-06 19:14:00,20.6,14.6,30.22,West,276,0.0,0.0,77,0.00,,FEW027,0.01,VWS V14.01,2013-03-07 01:14:00,
2013-03-06 19:15:00,20.5,14.4,30.22,West,276,0.0,0.0,77,0.00,,FEW027,0.01,VWS V14.01,2013-03-07 01:15:00,
2013-03-06 19:16:00,20.5,14.7,30.22,West,276,0.0,0.0,78,0.00,,FEW027,0.01,VWS V14.01,2013-03-07 01:16:00,
2013-03-06 19:17:00,20.5,14.7,30.22,West,276,0.0,0.0,78,0.00,,FEW027,0.01,VWS V14.01,2013-03-07 01:17:00,
2013-03-06 19:18:00,20.5,14.7,30.22,West,276,0.0,0.0,78,0.00,,FEW027,0.01,VWS V14.01,2013-03-07 01:18:00,
2013-03-06 19:19:00,20.5,14.7,30.22,West,276,0.0,0.0,78,0.00,,FEW027,0.01,VWS V14.01,2013-03-07 01:19:00,
2013-03-06 19:20:00,20.5,14.4,30.22,West,276,0.0,1.0,77,0.00,,FEW027,0.01,VWS V14.01,2013-03-07 01:20:00,
2013-03-06 19:21:00,20.5,14.7,30.22,West,276,0.0,1.0,78,0.00,,FEW027,0.01,VWS V14.01,2013-03-07 01:21:00,
2013-03-06 19:22:00,20.5,14.7,30.22,West,276,0.0,1.0,78,0.00,,FEW027,0.01,VWS V14.01,2013-03-07 01:22:00,
2013-03-06 19:23:00,20.5,14.4,30.22,West,276,0.0,1.0,77,0.00,,FEW027,0.01,VWS V14.01,2013-03-07 01:23:00,
2013-03-06 19:24:00,20.5,14.7,30.22,West,276,0.0,1.0,78,0.00,,FEW027,0.01,VWS V14.01,2013-03-07 01:24:00,
2013-03-06 19:25:00,20.5,14.4,30.22,West,276,0.0,1.0,77,0.00,,FEW027,0.01,VWS V14.01,2013-03-07 01:25:00,
2013-03-06 19:26:00,20.3,14.3,30.22,West,276,0.0,1.0,77,0.00,,FEW027,0.01,VWS V14.01,2013-03-07 01:26:00,
2013-03-06 19:27:00,20.3,14.3,30.22,West,276,0.0,1.0,77,0.00,,FEW027,0.01,VWS V14.01,2013-03-07 01:27:00,
2013-03-06 19:28:00,20.2,14.2,30.22,West,276,0.0,1.0,77,0.00,,FEW027,0.01,VWS V14.01,2013-03-07 01:28:00,
2013-03-06 19:29:00,20.2,14.4,30.22,West,276,0.0,1.0,78,0.00,,FEW027,0.01,VWS V14.01,2013-03-07 01:29:00,
2013-03-06 19:30:00,20.2,14.4,30.22,West,276,0.0,1.0,78,0.00,,FEW027,0.01,VWS V14.01,2013-03-07 01:30:00,
2013-03-06 19:31:00,20.0,14.3,30.22,West,276,0.0,0.0,78,0.00,,FEW027,0.01,VWS V14.01,2013-03-07 01:31:00,
2013-03-06 19:32:00,20.0,14.3,30.22,West,276,0.0,0.0,78,0.00,,FEW027,0.01,VWS V14.01,2013-03-07 01:32:00,
2013-03-06 19:33:00,20.0,14.3,30.22,West,276,0.0,0.0,78,0.00,,FEW027,0.01,VWS V14.01,2013-03-07 01:33:00,
2013-03-06 19:34:00,20.0,14.3,30.22,West,276,0.0,0.0,78,0.00,,FEW027,0.01,VWS V14.01,2013-03-07 01:34:00,
2013-03-06 19:35:00,20.0,14.3,30.22,West,276,0.0,0.0,78,0.00,,FEW027,0.01,VWS V14.01,2013-03-07 01:35:00,
2013-03-06 19:36:00,19.9,14.2,30.22,West,276,0.0,0.0,78,0.00,,FEW027,0.01,VWS V14.01,2013-03-07 01:36:00,
2013-03-06 19:37:00,19.9,14.2,30.22,West,276,0.0,0.0,78,0.00,,FEW027,0.01,VWS V14.01,2013-03-07 01:37:00,
2013-03-06 19:38:00,19.9,14.2,30.22,West,276,0.0,0.0,78,0.00,,FEW027,0.01,VWS V14.01,2013-03-07 01:38:00,
2013-03-06 19:39:00,19.9,14.2,30.22,West,276,0.0,0.0,78,0.00,,FEW027,0.01,VWS V14.01,2013-03-07 01:39:00,
2013-03-06 19:40:00,19.7,14.0,30.22,West,276,0.0,0.0,78,0.00,,FEW027,0.01,VWS V14.01,2013-03-07 01:40:00,
2013-03-06 19:41:00,19.7,14.0,30.22,West,276,0.0,0.0,78,0.00,,FEW027,0.01,VWS V14.01,2013-03-07 01:41:00,
2013-03-06 19:42:00,19.7,14.3,30.22,West,276,0.0,0.0,79,0.00,,FEW027,0.01,VWS V14.01,2013-03-07 01:42:00,
2013-03-06 19:43:00,19.5,14.1,30.22,West,276,0.0,0.0,79,0.00,,FEW025,0.01,VWS V14.01,2013-03-07 01:43:00,
2013-03-06 19:44:00,19.5,14.1,30.22,West,276,0.0,0.0,79,0.00,,FEW025,0.01,VWS V14.01,2013-03-07 01:44:00,
2013-03-06 19:45:00,19.5,14.1,30.22,West,276,0.0,0.0,79,0.00,,FEW025,0.01,VWS V14.01,2013-03-07 01:45:00,
2013-03-06 19:46:00,19.4,14.0,30.22,West,276,0.0,0.0,79,0.00,,FEW025,0.01,VWS V14.01,2013-03-07 01:46:00,
2013-03-06 19:47:00,19.4,14.0,30.22,West,276,0.0,0.0,79,0.00,,FEW025,0.01,VWS V14.01,2013-03-07 01:47:00,
2013-03-06 19:48:00,19.4,14.0,30.22,West,276,0.0,0.0,79,0.00,,FEW025,0.01,VWS V14.01,2013-03-07 01:48:00,
2013-03-06 19:49:00,19.2,13.8,30.22,West,276,0.0,0.0,79,0.00,,FEW025,0.01,VWS V14.01,2013-03-07 01:49:00,
2013-03-06 19:50:00,19.2,13.8,30.22,West,276,0.0,0.0,79,0.00,,FEW025,0.01,VWS V14.01,2013-03-07 01:50:00,
2013-03-06 19:51:00,19.2,13.8,30.22,West,276,0.0,0.0,79,0.00,,FEW025,0.01,VWS V14.01,2013-03-07 01:51:00,
2013-03-06 19:52:00,19.2,13.8,30.22,West,276,0.0,0.0,79,0.00,,FEW025,0.01,VWS V14.01,2013-03-07 01:52:00,
2013-03-06 19:53:00,19.1,13.7,30.22,West,276,0.0,0.0,79,0.00,,FEW025,0.01,VWS V14.01,2013-03-07 01:53:00,
2013-03-06 19:54:00,19.1,13.7,30.22,West,276,0.0,0.0,79,0.00,,FEW025,0.01,VWS V14.01,2013-03-07 01:54:00,
2013-03-06 19:55:00,19.1,13.7,30.22,West,276,0.0,0.0,79,0.00,,FEW025,0.01,VWS V14.01,2013-03-07 01:55:00,
2013-03-06 19:56:00,19.1,13.7,30.22,West,276,0.0,0.0,79,0.00,,FEW025,0.01,VWS V14.01,2013-03-07 01:56:00,
2013-03-06 19:57:00,19.1,14.0,30.22,West,276,0.0,0.0,80,0.00,,FEW025,0.01,VWS V14.01,2013-03-07 01:57:00,
2013-03-06 19:58:00,18.9,13.8,30.22,West,276,0.0,0.0,80,0.00,,FEW025,0.01,VWS V14.01,2013-03-07 01:58:00,
2013-03-06 19:59:00,18.9,13.8,30.22,West,276,0.0,0.0,80,0.00,,FEW025,0.01,VWS V14.01,2013-03-07 01:59:00,
2013-03-06 20:00:00,18.9,13.8,30.22,West,276,0.0,0.0,80,0.00,,FEW025,0.01,VWS V14.01,2013-03-07 02:00:00,
2013-03-06 20:01:00,18.9,13.8,30.22,West,276,0.0,0.0,80,0.00,,FEW025,0.01,VWS V14.01,2013-03-07 02:01:00,
2013-03-06 20:02:00,18.9,13.8,30.22,West,276,0.0,0.0,80,0.00,,FEW025,0.01,VWS V14.01,2013-03-07 02:02:00,
2013-03-06 20:03:00,18.9,13.8,30.22,West,276,0.0,0.0,80,0.00,,FEW025,0.01,VWS V14.01,2013-03-07 02:03:00,
2013-03-06 20:04:00,18.9,13.8,30.22,West,276,0.0,0.0,80,0.00,,FEW025,0.01,VWS V14.01,2013-03-07 02:04:00,
2013-03-06 20:05:00,18.9,13.8,30.22,West,276,0.0,0.0,80,0.00,,FEW025,0.01,VWS V14.01,2013-03-07 02:05:00,
2013-03-06 20:06:00,18.8,13.7,30.22,West,276,0.0,0.0,80,0.00,,FEW025,0.01,VWS V14.01,2013-03-07 02:06:00,
2013-03-06 20:07:00,18.8,13.7,30.22,West,276,0.0,0.0,80,0.00,,FEW025,0.01,VWS V14.01,2013-03-07 02:07:00,
2013-03-06 20:08:00,18.8,13.7,30.22,West,276,0.0,0.0,80,0.00,,FEW025,0.01,VWS V14.01,2013-03-07 02:08:00,
2013-03-06 20:09:00,18.6,13.5,30.22,West,276,0.0,0.0,80,0.00,,FEW025,0.01,VWS V14.01,2013-03-07 02:09:00,
2013-03-06 20:10:00,18.6,13.5,30.22,West,276,0.0,0.0,80,0.00,,FEW025,0.01,VWS V14.01,2013-03-07 02:10:00,
2013-03-06 20:11:00,18.6,13.5,30.22,West,276,0.0,0.0,80,0.00,,FEW025,0.01,VWS V14.01,2013-03-07 02:11:00,
2013-03-06 20:12:00,18.4,13.3,30.22,West,276,0.0,0.0,80,0.00,,FEW025,0.01,VWS V14.01,2013-03-07 02:12:00,
2013-03-06 20:13:00,18.4,13.3,30.22,West,276,0.0,0.0,80,0.00,,FEW025,0.01,VWS V14.01,2013-03-07 02:13:00,
2013-03-06 20:14:00,18.3,13.2,30.22,West,276,0.0,0.0,80,0.00,,FEW025,0.01,VWS V14.01,2013-03-07 02:14:00,
2013-03-06 20:15:00,18.3,13.2,30.21,West,276,0.0,0.0,80,0.00,,FEW025,0.01,VWS V14.01,2013-03-07 02:15:00,
2013-03-06 20:16:00,18.3,13.2,30.21,West,276,0.0,0.0,80,0.00,,FEW025,0.01,VWS V14.01,2013-03-07 02:16:00,
2013-03-06 20:17:00,18.1,13.0,30.21,West,276,0.0,0.0,80,0.00,,FEW025,0.01,VWS V14.01,2013-03-07 02:17:00,
2013-03-06 20:18:00,18.1,13.3,30.21,West,276,0.0,0.0,81,0.00,,FEW025,0.01,VWS V14.01,2013-03-07 02:18:00,
2013-03-06 20:19:00,18.1,13.3,30.21,West,276,0.0,0.0,81,0.00,,FEW025,0.01,VWS V14.01,2013-03-07 02:19:00,
2013-03-06 20:20:00,18.1,13.3,30.21,West,276,0.0,0.0,81,0.00,,FEW025,0.01,VWS V14.01,2013-03-07 02:20:00,
2013-03-06 20:21:00,18.0,13.2,30.21,West,276,0.0,0.0,81,0.00,,FEW025,0.01,VWS V14.01,2013-03-07 02:21:00,
2013-03-06 20:22:00,18.0,13.2,30.21,West,276,0.0,0.0,81,0.00,,FEW025,0.01,VWS V14.01,2013-03-07 02:22:00,
2013-03-06 20:23:00,17.8,13.0,30.21,West,276,0.0,0.0,81,0.00,,FEW025,0.01,VWS V14.01,2013-03-07 02:23:00,
2013-03-06 20:24:00,17.8,13.0,30.21,West,276,0.0,0.0,81,0.00,,FEW025,0.01,VWS V14.01,2013-03-07 02:24:00,
2013-03-06 20:25:00,17.8,13.0,30.21,West,276,0.0,0.0,81,0.00,,FEW025,0.01,VWS V14.01,2013-03-07 02:25:00,
2013-03-06 20:26:00,17.7,12.9,30.21,West,276,0.0,0.0,81,0.00,,FEW025,0.01,VWS V14.01,2013-03-07 02:26:00,
2013-03-06 20:27:00,17.7,12.9,30.21,West,276,0.0,0.0,81,0.00,,FEW025,0.01,VWS V14.01,2013-03-07 02:27:00,
2013-03-06 20:28:00,17.7,12.9,30.21,West,276,0.0,0.0,81,0.00,,FEW025,0.01,VWS V14.01,2013-03-07 02:28:00,
2013-03-06 20:29:00,17.5,12.7,30.21,West,276,0.0,0.0,81,0.00,,FEW025,0.01,VWS V14.01,2013-03-07 02:29:00,
2013-03-06 20:30:00,17.5,12.7,30.21,West,276,0.0,0.0,81,0.00,,FEW025,0.01,VWS V14.01,2013-03-07 02:30:00,
2013-03-06 20:31:00,17.5,12.9,30.21,West,276,0.0,0.0,82,0.00,,FEW025,0.01,VWS V14.01,2013-03-07 02:31:00,
2013-03-06 20:32:00,17.5,12.9,30.21,West,276,0.0,0.0,82,0.00,,FEW025,0.01,VWS V14.01,2013-03-07 02:32:00,
2013-03-06 20:33:00,17.3,12.5,30.21,West,276,0.0,0.0,81,0.00,,FEW025,0.01,VWS V14.01,2013-03-07 02:33:00,
2013-03-06 20:34:00,17.3,12.5,30.21,West,276,0.0,0.0,81,0.00,,FEW025,0.01,VWS V14.01,2013-03-07 02:34:00,
2013-03-06 20:35:00,17.2,12.4,30.21,West,276,0.0,0.0,81,0.00,,FEW025,0.01,VWS V14.01,2013-03-07 02:35:00,
2013-03-06 20:36:00,17.2,12.4,30.21,West,276,0.0,0.0,81,0.00,,FEW025,0.01,VWS V14.01,2013-03-07 02:36:00,
2013-03-06 20:37:00,17.0,12.2,30.21,West,276,0.0,0.0,81,0.00,,FEW025,0.01,VWS V14.01,2013-03-07 02:37:00,
2013-03-06 20:38:00,17.0,12.2,30.21,West,276,0.0,0.0,81,0.00,,FEW025,0.01,VWS V14.01,2013-03-07 02:38:00,
2013-03-06 20:39:00,17.0,12.2,30.21,West,276,0.0,0.0,81,0.00,,FEW025,0.01,VWS V14.01,2013-03-07 02:39:00,
2013-03-06 20:40:00,16.9,12.4,30.21,West,276,0.0,0.0,82,0.00,,FEW025,0.01,VWS V14.01,2013-03-07 02:40:00,
2013-03-06 20:41:00,16.9,12.4,30.21,West,276,0.0,0.0,82,0.00,,FEW025,0.01,VWS V14.01,2013-03-07 02:41:00,
2013-03-06 20:42:00,16.9,12.4,30.21,West,276,0.0,0.0,82,0.00,,FEW025,0.01,VWS V14.01,2013-03-07 02:42:00,
2013-03-06 20:43:00,16.7,12.2,30.21,West,276,0.0,0.0,82,0.00,,CLR,0.01,VWS V14.01,2013-03-07 02:43:00,
2013-03-06 20:44:00,16.7,12.2,30.21,West,276,0.0,0.0,82,0.00,,CLR,0.01,VWS V14.01,2013-03-07 02:44:00,
2013-03-06 20:45:00,16.5,12.0,30.22,West,276,0.0,0.0,82,0.00,,CLR,0.01,VWS V14.01,2013-03-07 02:45:00,
2013-03-06 20:46:00,16.5,12.0,30.22,West,276,0.0,0.0,82,0.00,,CLR,0.01,VWS V14.01,2013-03-07 02:46:00,
2013-03-06 20:47:00,16.4,11.9,30.22,West,276,0.0,0.0,82,0.00,,CLR,0.01,VWS V14.01,2013-03-07 02:47:00,
2013-03-06 20:48:00,16.4,11.9,30.22,West,276,0.0,0.0,82,0.00,,CLR,0.01,VWS V14.01,2013-03-07 02:48:00,
2013-03-06 20:49:00,16.2,11.7,30.22,West,276,0.0,0.0,82,0.00,,CLR,0.01,VWS V14.01,2013-03-07 02:49:00,
2013-03-06 20:50:00,16.2,11.7,30.22,West,276,0.0,0.0,82,0.00,,CLR,0.01,VWS V14.01,2013-03-07 02:50:00,
2013-03-06 20:51:00,16.2,11.7,30.22,West,276,0.0,0.0,82,0.00,,CLR,0.01,VWS V14.01,2013-03-07 02:51:00,
2013-03-06 20:52:00,16.1,11.6,30.22,West,276,0.0,0.0,82,0.00,,CLR,0.01,VWS V14.01,2013-03-07 02:52:00,
2013-03-06 20:53:00,16.1,11.6,30.22,West,276,0.0,0.0,82,0.00,,CLR,0.01,VWS V14.01,2013-03-07 02:53:00,
2013-03-06 20:54:00,16.1,11.6,30.22,West,276,0.0,0.0,82,0.00,,CLR,0.01,VWS V14.01,2013-03-07 02:54:00,
2013-03-06 20:55:00,15.9,11.4,30.22,West,276,0.0,0.0,82,0.00,,CLR,0.01,VWS V14.01,2013-03-07 02:55:00,
2013-03-06 20:56:00,15.9,11.4,30.22,West,276,0.0,0.0,82,0.00,,CLR,0.01,VWS V14.01,2013-03-07 02:56:00,
2013-03-06 20:57:00,15.7,11.2,30.22,West,276,0.0,0.0,82,0.00,,CLR,0.01,VWS V14.01,2013-03-07 02:57:00,
2013-03-06 20:58:00,15.7,11.2,30.22,West,276,0.0,0.0,82,0.00,,CLR,0.01,VWS V14.01,2013-03-07 02:58:00,
2013-03-06 20:59:00,15.6,11.1,30.22,West,276,0.0,0.0,82,0.00,,CLR,0.01,VWS V14.01,2013-03-07 02:59:00,
2013-03-06 21:00:00,15.6,11.4,30.22,West,276,0.0,0.0,83,0.00,,CLR,0.01,VWS V14.01,2013-03-07 03:00:00,
2013-03-06 21:01:00,15.6,11.4,30.22,West,276,0.0,0.0,83,0.00,,CLR,0.01,VWS V14.01,2013-03-07 03:01:00,
2013-03-06 21:02:00,15.6,11.4,30.22,West,276,0.0,0.0,83,0.00,,CLR,0.01,VWS V14.01,2013-03-07 03:02:00,
2013-03-06 21:03:00,15.4,11.2,30.22,West,276,0.0,0.0,83,0.00,,CLR,0.01,VWS V14.01,2013-03-07 03:03:00,
2013-03-06 21:04:00,15.4,11.2,30.22,West,276,0.0,0.0,83,0.00,,CLR,0.01,VWS V14.01,2013-03-07 03:04:00,
2013-03-06 21:05:00,15.4,11.2,30.22,West,276,0.0,0.0,83,0.00,,CLR,0.01,VWS V14.01,2013-03-07 03:05:00,
2013-03-06 21:06:00,15.4,11.2,30.22,West,276,0.0,0.0,83,0.00,,CLR,0.01,VWS V14.01,2013-03-07 03:06:00,
2013-03-06 21:07:00,15.4,11.2,30.22,West,276,0.0,0.0,83,0.00,,CLR,0.01,VWS V14.01,2013-03-07 03:07:00,
2013-03-06 21:08:00,15.2,10.7,30.22,West,276,0.0,0.0,82,0.00,,CLR,0.01,VWS V14.01,2013-03-07 03:08:00,
2013-03-06 21:09:00,15.1,10.6,30.22,West,276,0.0,0.0,82,0.00,,CLR,0.01,VWS V14.01,2013-03-07 03:09:00,
2013-03-06 21:10:00,15.1,10.9,30.22,West,276,0.0,0.0,83,0.00,,CLR,0.01,VWS V14.01,2013-03-07 03:10:00,
2013-03-06 21:11:00,15.1,10.9,30.22,West,276,0.0,0.0,83,0.00,,CLR,0.01,VWS V14.01,2013-03-07 03:11:00,
2013-03-06 21:12:00,14.9,10.7,30.22,West,276,0.0,0.0,83,0.00,,CLR,0.01,VWS V14.01,2013-03-07 03:12:00,
2013-03-06 21:13:00,14.9,10.7,30.22,West,276,0.0,0.0,83,0.00,,CLR,0.01,VWS V14.01,2013-03-07 03:13:00,
2013-03-06 21:14:00,14.9,10.7,30.22,West,276,0.0,0.0,83,0.00,,CLR,0.01,VWS V14.01,2013-03-07 03:14:00,
2013-03-06 21:15:00,14.9,10.7,30.22,West,276,0.0,0.0,83,0.00,,CLR,0.01,VWS V14.01,2013-03-07 03:15:00,
2013-03-06 21:16:00,14.9,10.7,30.22,West,276,0.0,0.0,83,0.00,,CLR,0.01,VWS V14.01,2013-03-07 03:16:00,
2013-03-06 21:17:00,14.8,10.6,30.22,West,276,0.0,0.0,83,0.00,,CLR,0.01,VWS V14.01,2013-03-07 03:17:00,
2013-03-06 21:18:00,14.8,10.6,30.22,West,276,0.0,0.0,83,0.00,,CLR,0.01,VWS V14.01,2013-03-07 03:18:00,
2013-03-06 21:19:00,14.8,10.6,30.22,West,276,0.0,0.0,83,0.00,,CLR,0.01,VWS V14.01,2013-03-07 03:19:00,
2013-03-06 21:20:00,14.8,10.6,30.22,West,276,0.0,0.0,83,0.00,,CLR,0.01,VWS V14.01,2013-03-07 03:20:00,
2013-03-06 21:21:00,14.6,10.4,30.22,West,276,0.0,0.0,83,0.00,,CLR,0.01,VWS V14.01,2013-03-07 03:21:00,
2013-03-06 21:22:00,14.6,10.4,30.22,West,276,0.0,0.0,83,0.00,,CLR,0.01,VWS V14.01,2013-03-07 03:22:00,
2013-03-06 21:23:00,14.6,10.4,30.22,West,276,0.0,0.0,83,0.00,,CLR,0.01,VWS V14.01,2013-03-07 03:23:00,
2013-03-06 21:24:00,14.6,10.7,30.22,West,276,0.0,0.0,84,0.00,,CLR,0.01,VWS V14.01,2013-03-07 03:24:00,
2013-03-06 21:25:00,14.4,10.2,30.22,West,276,0.0,0.0,83,0.00,,CLR,0.01,VWS V14.01,2013-03-07 03:25:00,
2013-03-06 21:26:00,14.4,10.2,30.22,West,276,0.0,0.0,83,0.00,,CLR,0.01,VWS V14.01,2013-03-07 03:26:00,
2013-03-06 21:27:00,14.4,10.2,30.22,West,276,0.0,0.0,83,0.00,,CLR,0.01,VWS V14.01,2013-03-07 03:27:00,
2013-03-06 21:28:00,14.3,10.1,30.22,West,276,0.0,0.0,83,0.00,,CLR,0.01,VWS V14.01,2013-03-07 03:28:00,
2013-03-06 21:29:00,14.3,10.1,30.22,West,276,0.0,0.0,83,0.00,,CLR,0.01,VWS V14.01,2013-03-07 03:29:00,
2013-03-06 21:30:00,14.1,9.9,30.23,West,276,0.0,0.0,83,0.00,,CLR,0.01,VWS V14.01,2013-03-07 03:30:00,
2013-03-06 21:31:00,14.1,9.9,30.23,West,276,0.0,0.0,83,0.00,,CLR,0.01,VWS V14.01,2013-03-07 03:31:00,
2013-03-06 21:32:00,14.0,9.8,30.23,West,276,0.0,0.0,83,0.00,,CLR,0.01,VWS V14.01,2013-03-07 03:32:00,
2013-03-06 21:33:00,14.0,9.8,30.23,West,276,0.0,0.0,83,0.00,,CLR,0.01,VWS V14.01,2013-03-07 03:33:00,
2013-03-06 21:34:00,14.0,10.1,30.23,West,276,0.0,0.0,84,0.00,,CLR,0.01,VWS V14.01,2013-03-07 03:34:00,
2013-03-06 21:35:00,14.0,10.1,30.23,West,276,0.0,0.0,84,0.00,,CLR,0.01,VWS V14.01,2013-03-07 03:35:00,
2013-03-06 21:36:00,14.0,10.1,30.23,West,276,0.0,0.0,84,0.00,,CLR,0.01,VWS V14.01,2013-03-07 03:36:00,
2013-03-06 21:37:00,13.8,9.9,30.23,West,276,0.0,0.0,84,0.00,,CLR,0.01,VWS V14.01,2013-03-07 03:37:00,
2013-03-06 21:38:00,13.8,9.9,30.23,West,276,0.0,0.0,84,0.00,,CLR,0.01,VWS V14.01,2013-03-07 03:38:00,
2013-03-06 21:39:00,13.8,9.9,30.23,West,276,0.0,0.0,84,0.00,,CLR,0.01,VWS V14.01,2013-03-07 03:39:00,
2013-03-06 21:40:00,13.8,9.9,30.23,West,276,0.0,0.0,84,0.00,,CLR,0.01,VWS V14.01,2013-03-07 03:40:00,
2013-03-06 21:41:00,13.8,9.9,30.23,West,276,0.0,0.0,84,0.00,,CLR,0.01,VWS V14.01,2013-03-07 03:41:00,
2013-03-06 21:42:00,13.8,9.9,30.23,West,276,0.0,0.0,84,0.00,,CLR,0.01,VWS V14.01,2013-03-07 03:42:00,
2013-03-06 21:43:00,13.8,9.9,30.23,West,276,0.0,0.0,84,0.00,,CLR,0.01,VWS V14.01,2013-03-07 03:43:00,
2013-03-06 21:44:00,13.8,9.9,30.23,West,276,0.0,0.0,84,0.00,,CLR,0.01,VWS V14.01,2013-03-07 03:44:00,
2013-03-06 21:45:00,13.6,9.7,30.23,West,276,0.0,0.0,84,0.00,,CLR,0.01,VWS V14.01,2013-03-07 03:45:00,
2013-03-06 21:46:00,13.6,9.9,30.23,West,276,0.0,0.0,85,0.00,,CLR,0.01,VWS V14.01,2013-03-07 03:46:00,
2013-03-06 21:47:00,13.6,9.9,30.23,West,276,0.0,0.0,85,0.00,,CLR,0.01,VWS V14.01,2013-03-07 03:47:00,
2013-03-06 21:48:00,13.6,9.9,30.23,West,276,0.0,0.0,85,0.00,,CLR,0.01,VWS V14.01,2013-03-07 03:48:00,
2013-03-06 21:49:00,13.6,9.9,30.23,West,276,0.0,0.0,85,0.00,,CLR,0.01,VWS V14.01,2013-03-07 03:49:00,
2013-03-06 21:50:00,13.6,9.9,30.23,West,276,0.0,0.0,85,0.00,,CLR,0.01,VWS V14.01,2013-03-07 03:50:00,
2013-03-06 21:51:00,13.5,9.8,30.23,West,276,0.0,0.0,85,0.00,,CLR,0.01,VWS V14.01,2013-03-07 03:51:00,
2013-03-06 21:52:00,13.5,9.8,30.23,West,276,0.0,0.0,85,0.00,,CLR,0.01,VWS V14.01,2013-03-07 03:52:00,
2013-03-06 21:53:00,13.5,9.6,30.23,West,276,0.0,0.0,84,0.00,,CLR,0.01,VWS V14.01,2013-03-07 03:53:00,
2013-03-06 21:54:00,13.3,9.4,30.23,West,276,0.0,0.0,84,0.00,,CLR,0.01,VWS V14.01,2013-03-07 03:54:00,
2013-03-06 21:55:00,13.1,9.2,30.23,West,276,0.0,0.0,84,0.00,,CLR,0.01,VWS V14.01,2013-03-07 03:55:00,
2013-03-06 21:56:00,13.1,9.2,30.23,West,276,0.0,0.0,84,0.00,,CLR,0.01,VWS V14.01,2013-03-07 03:56:00,
2013-03-06 21:57:00,13.1,9.2,30.23,West,276,0.0,0.0,84,0.00,,CLR,0.01,VWS V14.01,2013-03-07 03:57:00,
2013-03-06 21:58:00,13.1,9.4,30.23,West,276,0.0,0.0,85,0.00,,CLR,0.01,VWS V14.01,2013-03-07 03:58:00,
2013-03-06 21:59:00,13.1,9.4,30.23,West,276,0.0,0.0,85,0.00,,CLR,0.01,VWS V14.01,2013-03-07 03:59:00,
2013-03-06 22:00:00,13.1,9.7,30.23,West,276,0.0,0.0,86,0.00,,CLR,0.01,VWS V14.01,2013-03-07 04:00:00,
2013-03-06 22:01:00,13.3,9.9,30.23,West,276,0.0,0.0,86,0.00,,CLR,0.01,VWS V14.01,2013-03-07 04:01:00,
2013-03-06 22:02:00,13.3,9.9,30.23,West,276,0.0,0.0,86,0.00,,CLR,0.01,VWS V14.01,2013-03-07 04:02:00,
2013-03-06 22:03:00,13.3,9.9,30.23,West,276,0.0,0.0,86,0.00,,CLR,0.01,VWS V14.01,2013-03-07 04:03:00,
2013-03-06 22:04:00,13.1,9.7,30.23,West,276,0.0,0.0,86,0.00,,CLR,0.01,VWS V14.01,2013-03-07 04:04:00,
2013-03-06 22:05:00,13.1,9.7,30.23,West,276,0.0,0.0,86,0.00,,CLR,0.01,VWS V14.01,2013-03-07 04:05:00,
2013-03-06 22:06:00,13.1,9.4,30.23,West,276,0.0,0.0,85,0.00,,CLR,0.01,VWS V14.01,2013-03-07 04:06:00,
2013-03-06 22:07:00,13.1,9.4,30.23,West,276,0.0,0.0,85,0.00,,CLR,0.01,VWS V14.01,2013-03-07 04:07:00,
2013-03-06 22:08:00,12.9,9.2,30.23,West,276,0.0,0.0,85,0.00,,CLR,0.01,VWS V14.01,2013-03-07 04:08:00,
2013-03-06 22:09:00,12.9,9.2,30.23,West,276,0.0,0.0,85,0.00,,CLR,0.01,VWS V14.01,2013-03-07 04:09:00,
2013-03-06 22:10:00,12.9,9.2,30.23,West,276,0.0,0.0,85,0.00,,CLR,0.01,VWS V14.01,2013-03-07 04:10:00,
2013-03-06 22:11:00,12.8,9.1,30.23,West,276,0.0,0.0,85,0.00,,CLR,0.01,VWS V14.01,2013-03-07 04:11:00,
2013-03-06 22:12:00,12.8,8.9,30.23,West,276,0.0,0.0,84,0.00,,CLR,0.01,VWS V14.01,2013-03-07 04:12:00,
2013-03-06 22:13:00,12.6,8.7,30.23,West,276,0.0,0.0,84,0.00,,CLR,0.01,VWS V14.01,2013-03-07 04:13:00,
2013-03-06 22:14:00,12.4,8.5,30.23,West,276,0.0,0.0,84,0.00,,CLR,0.01,VWS V14.01,2013-03-07 04:14:00,
2013-03-06 22:15:00,12.4,8.5,30.23,West,276,0.0,0.0,84,0.00,,CLR,0.01,VWS V14.01,2013-03-07 04:15:00,
2013-03-06 22:16:00,12.3,8.4,30.23,West,276,0.0,0.0,84,0.00,,CLR,0.01,VWS V14.01,2013-03-07 04:16:00,
2013-03-06 22:17:00,12.1,8.2,30.23,West,276,0.0,0.0,84,0.00,,CLR,0.01,VWS V14.01,2013-03-07 04:17:00,
2013-03-06 22:18:00,12.1,8.2,30.23,West,276,0.0,0.0,84,0.00,,CLR,0.01,VWS V14.01,2013-03-07 04:18:00,
2013-03-06 22:19:00,12.1,8.2,30.23,West,276,0.0,0.0,84,0.00,,CLR,0.01,VWS V14.01,2013-03-07 04:19:00,
2013-03-06 22:20:00,11.9,8.3,30.23,West,276,0.0,0.0,85,0.00,,CLR,0.01,VWS V14.01,2013-03-07 04:20:00,
2013-03-06 22:21:00,11.9,8.3,30.23,West,276,0.0,0.0,85,0.00,,CLR,0.01,VWS V14.01,2013-03-07 04:21:00,
2013-03-06 22:22:00,11.7,7.8,30.23,West,276,0.0,0.0,84,0.00,,CLR,0.01,VWS V14.01,2013-03-07 04:22:00,
2013-03-06 22:23:00,11.7,7.8,30.23,West,276,0.0,0.0,84,0.00,,CLR,0.01,VWS V14.01,2013-03-07 04:23:00,
2013-03-06 22:24:00,11.7,7.8,30.23,West,276,0.0,0.0,84,0.00,,CLR,0.01,VWS V14.01,2013-03-07 04:24:00,
2013-03-06 22:25:00,11.6,7.7,30.23,West,276,0.0,0.0,84,0.00,,CLR,0.01,VWS V14.01,2013-03-07 04:25:00,
2013-03-06 22:26:00,11.6,8.0,30.23,West,276,0.0,0.0,85,0.00,,CLR,0.01,VWS V14.01,2013-03-07 04:26:00,
2013-03-06 22:27:00,11.6,8.0,30.23,West,276,0.0,0.0,85,0.00,,CLR,0.01,VWS V14.01,2013-03-07 04:27:00,
2013-03-06 22:28:00,11.6,8.0,30.23,West,276,0.0,0.0,85,0.00,,CLR,0.01,VWS V14.01,2013-03-07 04:28:00,
2013-03-06 22:29:00,11.6,8.0,30.23,West,276,0.0,0.0,85,0.00,,CLR,0.01,VWS V14.01,2013-03-07 04:29:00,
2013-03-06 22:30:00,11.6,8.0,30.24,West,276,0.0,0.0,85,0.00,,CLR,0.01,VWS V14.01,2013-03-07 04:30:00,
2013-03-06 22:31:00,11.6,8.0,30.24,West,276,0.0,0.0,85,0.00,,CLR,0.01,VWS V14.01,2013-03-07 04:31:00,
2013-03-06 22:32:00,11.6,8.0,30.24,West,276,0.0,0.0,85,0.00,,CLR,0.01,VWS V14.01,2013-03-07 04:32:00,
2013-03-06 22:33:00,11.6,8.0,30.24,West,276,0.0,0.0,85,0.00,,CLR,0.01,VWS V14.01,2013-03-07 04:33:00,
2013-03-06 22:34:00,11.6,8.0,30.24,West,276,0.0,0.0,85,0.00,,CLR,0.01,VWS V14.01,2013-03-07 04:34:00,
2013-03-06 22:35:00,11.6,8.0,30.24,West,276,0.0,0.0,85,0.00,,CLR,0.01,VWS V14.01,2013-03-07 04:35:00,
2013-03-06 22:36:00,11.4,7.8,30.24,West,276,0.0,0.0,85,0.00,,CLR,0.01,VWS V14.01,2013-03-07 04:36:00,
2013-03-06 22:37:00,11.4,7.8,30.24,West,276,0.0,0.0,85,0.00,,CLR,0.01,VWS V14.01,2013-03-07 04:37:00,
2013-03-06 22:38:00,11.4,7.8,30.24,West,276,0.0,0.0,85,0.00,,CLR,0.01,VWS V14.01,2013-03-07 04:38:00,
2013-03-06 22:39:00,11.4,7.8,30.24,West,276,0.0,0.0,85,0.00,,CLR,0.01,VWS V14.01,2013-03-07 04:39:00,
2013-03-06 22:40:00,11.4,7.8,30.24,West,276,0.0,0.0,85,0.00,,CLR,0.01,VWS V14.01,2013-03-07 04:40:00,
2013-03-06 22:41:00,11.4,7.8,30.24,West,276,0.0,0.0,85,0.00,,CLR,0.01,VWS V14.01,2013-03-07 04:41:00,
2013-03-06 22:42:00,11.4,7.8,30.24,West,276,0.0,0.0,85,0.00,,CLR,0.01,VWS V14.01,2013-03-07 04:42:00,
2013-03-06 22:43:00,11.4,7.8,30.24,West,276,0.0,0.0,85,0.00,,CLR,0.01,VWS V14.01,2013-03-07 04:43:00,
2013-03-06 22:44:00,11.4,7.8,30.24,West,276,0.0,0.0,85,0.00,,CLR,0.01,VWS V14.01,2013-03-07 04:44:00,
2013-03-06 22:45:00,11.4,7.8,30.24,West,276,0.0,0.0,85,0.00,,CLR,0.01,VWS V14.01,2013-03-07 04:45:00,
2013-03-06 22:46:00,11.4,7.8,30.24,West,276,0.0,0.0,85,0.00,,CLR,0.01,VWS V14.01,2013-03-07 04:46:00,
2013-03-06 22:47:00,11.4,7.8,30.24,West,276,0.0,0.0,85,0.00,,CLR,0.01,VWS V14.01,2013-03-07 04:47:00,
2013-03-06 22:48:00,11.2,7.6,30.24,West,276,0.0,0.0,85,0.00,,CLR,0.01,VWS V14.01,2013-03-07 04:48:00,
2013-03-06 22:49:00,11.2,7.6,30.24,West,276,0.0,0.0,85,0.00,,CLR,0.01,VWS V14.01,2013-03-07 04:49:00,
2013-03-06 22:50:00,11.2,7.6,30.24,West,276,0.0,0.0,85,0.00,,CLR,0.01,VWS V14.01,2013-03-07 04:50:00,
2013-03-06 22:51:00,11.2,7.6,30.24,West,276,0.0,0.0,85,0.00,,CLR,0.01,VWS V14.01,2013-03-07 04:51:00,
2013-03-06 22:52:00,11.2,7.6,30.24,West,276,0.0,0.0,85,0.00,,CLR,0.01,VWS V14.01,2013-03-07 04:52:00,
2013-03-06 22:53:00,11.2,7.6,30.24,West,276,0.0,0.0,85,0.00,,CLR,0.01,VWS V14.01,2013-03-07 04:53:00,
2013-03-06 22:54:00,11.1,7.5,30.24,West,276,0.0,0.0,85,0.00,,CLR,0.01,VWS V14.01,2013-03-07 04:54:00,
2013-03-06 22:55:00,11.1,7.5,30.24,West,276,0.0,0.0,85,0.00,,CLR,0.01,VWS V14.01,2013-03-07 04:55:00,
2013-03-06 22:56:00,11.1,7.5,30.24,West,276,0.0,0.0,85,0.00,,CLR,0.01,VWS V14.01,2013-03-07 04:56:00,
2013-03-06 22:57:00,11.1,7.5,30.24,West,276,0.0,0.0,85,0.00,,CLR,0.01,VWS V14.01,2013-03-07 04:57:00,
2013-03-06 22:58:00,11.1,7.5,30.24,West,276,0.0,0.0,85,0.00,,CLR,0.01,VWS V14.01,2013-03-07 04:58:00,
2013-03-06 22:59:00,11.1,7.5,30.24,West,276,0.0,0.0,85,0.00,,CLR,0.01,VWS V14.01,2013-03-07 04:59:00,
2013-03-06 23:00:00,11.1,7.7,30.24,West,276,0.0,0.0,86,0.00,,CLR,0.01,VWS V14.01,2013-03-07 05:00:00,
2013-03-06 23:01:00,11.1,7.7,30.24,West,276,0.0,0.0,86,0.00,,CLR,0.01,VWS V14.01,2013-03-07 05:01:00,
2013-03-06 23:02:00,11.2,7.8,30.24,West,276,0.0,0.0,86,0.00,,CLR,0.01,VWS V14.01,2013-03-07 05:02:00,
2013-03-06 23:03:00,11.2,7.8,30.24,West,276,0.0,0.0,86,0.00,,CLR,0.01,VWS V14.01,2013-03-07 05:03:00,
2013-03-06 23:04:00,11.4,8.3,30.24,West,276,0.0,0.0,87,0.00,,CLR,0.01,VWS V14.01,2013-03-07 05:04:00,
2013-03-06 23:05:00,11.4,8.3,30.24,West,276,0.0,0.0,87,0.00,,CLR,0.01,VWS V14.01,2013-03-07 05:05:00,
2013-03-06 23:06:00,11.4,8.3,30.24,West,276,0.0,0.0,87,0.00,,CLR,0.01,VWS V14.01,2013-03-07 05:06:00,
2013-03-06 23:07:00,11.6,8.5,30.24,West,276,0.0,0.0,87,0.00,,CLR,0.01,VWS V14.01,2013-03-07 05:07:00,
2013-03-06 23:08:00,11.6,8.5,30.24,West,276,0.0,0.0,87,0.00,,CLR,0.01,VWS V14.01,2013-03-07 05:08:00,
2013-03-06 23:09:00,11.7,8.6,30.24,West,276,0.0,0.0,87,0.00,,CLR,0.01,VWS V14.01,2013-03-07 05:09:00,
2013-03-06 23:10:00,11.7,8.6,30.24,West,276,0.0,0.0,87,0.00,,CLR,0.01,VWS V14.01,2013-03-07 05:10:00,
2013-03-06 23:11:00,11.7,8.6,30.24,West,276,0.0,0.0,87,0.00,,CLR,0.01,VWS V14.01,2013-03-07 05:11:00,
2013-03-06 23:12:00,11.7,8.6,30.24,West,276,0.0,0.0,87,0.00,,CLR,0.01,VWS V14.01,2013-03-07 05:12:00,
2013-03-06 23:13:00,11.9,8.8,30.24,West,276,0.0,0.0,87,0.00,,CLR,0.01,VWS V14.01,2013-03-07 05:13:00,
2013-03-06 23:14:00,11.9,8.8,30.24,West,276,0.0,0.0,87,0.00,,CLR,0.01,VWS V14.01,2013-03-07 05:14:00,
2013-03-06 23:15:00,11.7,8.6,30.24,West,276,0.0,0.0,87,0.00,,CLR,0.01,VWS V14.01,2013-03-07 05:15:00,
2013-03-06 23:16:00,11.7,8.3,30.24,West,276,0.0,0.0,86,0.00,,CLR,0.01,VWS V14.01,2013-03-07 05:16:00,
2013-03-06 23:17:00,11.6,8.2,30.24,West,276,0.0,0.0,86,0.00,,CLR,0.01,VWS V14.01,2013-03-07 05:17:00,
2013-03-06 23:18:00,11.6,8.2,30.24,West,276,0.0,0.0,86,0.00,,CLR,0.01,VWS V14.01,2013-03-07 05:18:00,
2013-03-06 23:19:00,11.4,8.0,30.24,West,276,0.0,0.0,86,0.00,,CLR,0.01,VWS V14.01,2013-03-07 05:19:00,
2013-03-06 23:20:00,11.2,7.6,30.24,West,276,0.0,0.0,85,0.00,,CLR,0.01,VWS V14.01,2013-03-07 05:20:00,
2013-03-06 23:21:00,11.2,7.6,30.24,West,276,0.0,0.0,85,0.00,,CLR,0.01,VWS V14.01,2013-03-07 05:21:00,
2013-03-06 23:22:00,11.2,7.8,30.24,West,276,0.0,0.0,86,0.00,,CLR,0.01,VWS V14.01,2013-03-07 05:22:00,
2013-03-06 23:23:00,11.1,7.7,30.24,West,276,0.0,0.0,86,0.00,,CLR,0.01,VWS V14.01,2013-03-07 05:23:00,
2013-03-06 23:24:00,11.1,7.7,30.24,West,276,0.0,0.0,86,0.00,,CLR,0.01,VWS V14.01,2013-03-07 05:24:00,
2013-03-06 23:25:00,11.1,7.7,30.24,West,276,0.0,0.0,86,0.00,,CLR,0.01,VWS V14.01,2013-03-07 05:25:00,
2013-03-06 23:26:00,11.1,7.7,30.24,West,276,0.0,0.0,86,0.00,,CLR,0.01,VWS V14.01,2013-03-07 05:26:00,
2013-03-06 23:27:00,11.1,7.7,30.24,West,276,0.0,0.0,86,0.00,,CLR,0.01,VWS V14.01,2013-03-07 05:27:00,
2013-03-06 23:28:00,11.1,7.7,30.24,West,276,0.0,0.0,86,0.00,,CLR,0.01,VWS V14.01,2013-03-07 05:28:00,
2013-03-06 23:29:00,11.1,7.7,30.24,West,276,0.0,0.0,86,0.00,,CLR,0.01,VWS V14.01,2013-03-07 05:29:00,
2013-03-06 23:30:00,11.1,7.7,30.23,West,276,0.0,0.0,86,0.00,,CLR,0.01,VWS V14.01,2013-03-07 05:30:00,
2013-03-06 23:31:00,11.1,7.7,30.23,West,276,0.0,0.0,86,0.00,,CLR,0.01,VWS V14.01,2013-03-07 05:31:00,
2013-03-06 23:32:00,10.9,7.5,30.23,West,276,0.0,0.0,86,0.00,,CLR,0.01,VWS V14.01,2013-03-07 05:32:00,
2013-03-06 23:33:00,10.9,7.5,30.23,West,276,0.0,0.0,86,0.00,,CLR,0.01,VWS V14.01,2013-03-07 05:33:00,
2013-03-06 23:34:00,10.9,7.5,30.23,West,276,0.0,0.0,86,0.00,,CLR,0.01,VWS V14.01,2013-03-07 05:34:00,
2013-03-06 23:35:00,10.9,7.5,30.23,West,276,0.0,0.0,86,0.00,,CLR,0.01,VWS V14.01,2013-03-07 05:35:00,
2013-03-06 23:36:00,10.9,7.5,30.23,West,276,0.0,0.0,86,0.00,,CLR,0.01,VWS V14.01,2013-03-07 05:36:00,
2013-03-06 23:37:00,10.7,7.1,30.23,West,276,0.0,0.0,85,0.00,,CLR,0.01,VWS V14.01,2013-03-07 05:37:00,
2013-03-06 23:38:00,10.7,7.1,30.23,West,276,0.0,0.0,85,0.00,,CLR,0.01,VWS V14.01,2013-03-07 05:38:00,
2013-03-06 23:39:00,10.7,7.1,30.23,West,276,0.0,0.0,85,0.00,,CLR,0.01,VWS V14.01,2013-03-07 05:39:00,
2013-03-06 23:40:00,10.7,7.1,30.23,West,276,0.0,0.0,85,0.00,,CLR,0.01,VWS V14.01,2013-03-07 05:40:00,
2013-03-06 23:41:00,10.5,6.9,30.23,West,276,0.0,0.0,85,0.00,,CLR,0.01,VWS V14.01,2013-03-07 05:41:00,
2013-03-06 23:42:00,10.5,6.9,30.23,West,276,0.0,0.0,85,0.00,,CLR,0.01,VWS V14.01,2013-03-07 05:42:00,
2013-03-06 23:43:00,10.5,6.9,30.23,West,276,0.0,0.0,85,0.00,,CLR,0.01,VWS V14.01,2013-03-07 05:43:00,
2013-03-06 23:44:00,10.4,6.5,30.23,West,276,0.0,0.0,84,0.00,,CLR,0.01,VWS V14.01,2013-03-07 05:44:00,
2013-03-06 23:45:00,10.4,6.5,30.24,West,276,0.0,0.0,84,0.00,,CLR,0.01,VWS V14.01,2013-03-07 05:45:00,
2013-03-06 23:46:00,10.2,6.3,30.24,West,276,0.0,0.0,84,0.00,,CLR,0.01,VWS V14.01,2013-03-07 05:46:00,
2013-03-06 23:47:00,10.0,6.1,30.24,West,276,0.0,0.0,84,0.00,,CLR,0.01,VWS V14.01,2013-03-07 05:47:00,
2013-03-06 23:48:00,10.0,5.9,30.24,West,276,0.0,0.0,83,0.00,,CLR,0.01,VWS V14.01,2013-03-07 05:48:00,
2013-03-06 23:49:00,9.9,5.8,30.24,West,276,0.0,0.0,83,0.00,,CLR,0.01,VWS V14.01,2013-03-07 05:49:00,
2013-03-06 23:50:00,9.7,5.6,30.24,West,276,0.0,0.0,83,0.00,,CLR,0.01,VWS V14.01,2013-03-07 05:50:00,
2013-03-06 23:51:00,9.5,5.1,30.24,West,276,0.0,0.0,82,0.00,,CLR,0.01,VWS V14.01,2013-03-07 05:51:00,
2013-03-06 23:52:00,9.5,5.1,30.24,West,276,0.0,0.0,82,0.00,,CLR,0.01,VWS V14.01,2013-03-07 05:52:00,
2013-03-06 23:53:00,9.3,4.9,30.24,West,276,0.0,0.0,82,0.00,,CLR,0.01,VWS V14.01,2013-03-07 05:53:00,
2013-03-06 23:54:00,9.2,4.8,30.24,West,276,0.0,0.0,82,0.00,,CLR,0.01,VWS V14.01,2013-03-07 05:54:00,
2013-03-06 23:55:00,9.2,4.8,30.24,West,276,0.0,0.0,82,0.00,,CLR,0.01,VWS V14.01,2013-03-07 05:55:00,
2013-03-06 23:56:00,9.0,4.6,30.24,West,276,0.0,0.0,82,0.00,,CLR,0.01,VWS V14.01,2013-03-07 05:56:00,
2013-03-06 23:57:00,9.0,4.6,30.24,West,276,0.0,0.0,82,0.00,,CLR,0.01,VWS V14.01,2013-03-07 05:57:00,
2013-03-06 23:58:00,8.8,4.2,30.24,West,276,0.0,0.0,81,0.00,,CLR,0.01,VWS V14.01,2013-03-07 05:58:00,
2013-03-06 23:59:00,8.8,4.2,30.24,West,276,0.0,0.0,81,0.00,,CLR,0.01,VWS V14.01,2013-03-07 05:59:00,